     2              OBSERVATION DATA    GPS                 RINEX VERSION / TYPE
teqc 2000Jul20 Karen Wendt 20030617 23:22:51UTC             PGM / RUN BY / DATE
                                                            COMMENT
L2: 1 -> 1; 150 -> 5; 250 -> 9                              COMMENT
L2: 1 -> 1; 150 -> 5; 250 -> 9                              COMMENT
L2: 1 -> 1; 150 -> 5; 250 -> 9                              COMMENT
L2: 1 -> 1; 150 -> 5; 250 -> 9                              COMMENT
L2: 1 -> 1; 150 -> 5; 250 -> 9                              COMMENT
L2: 1 -> 1; 150 -> 5; 250 -> 9                              COMMENT
L2: 1 -> 1; 150 -> 5; 250 -> 9                              COMMENT
L2: 1 -> 1; 150 -> 5; 250 -> 9                              COMMENT
L2: 1 -> 1; 150 -> 5; 250 -> 9                              COMMENT
L2: 1 -> 1; 150 -> 5; 250 -> 9                              COMMENT
L2: 1 -> 1; 150 -> 5; 250 -> 9                              COMMENT
L2: 1 -> 1; 150 -> 5; 250 -> 9                              COMMENT
L2: 1 -> 1; 150 -> 5; 250 -> 9                              COMMENT
L2: 1 -> 1; 150 -> 5; 250 -> 9                              COMMENT
Original Marker Name: shos Shoshone_1933_USCGS              COMMENT
Campaign Name: USGS Death Valley 2003                       COMMENT
4-Character Station Name: SHOS                              COMMENT
6-Character Antenna Code: DMRCHT                            COMMENT
Vertical Measurement Point: BCR                             COMMENT
Vertical Offset to Rinex Ref. Point: 0.0348                 COMMENT
Radial Measurement Point: ECF                               COMMENT
Radial Offset to Rinex Ref. Point: 0.1897                   COMMENT
Antenna Height from Field Measurement: 1.3450 m             COMMENT
Additional Antenna Identification Info.:                    COMMENT
Turborogue and Ashtech Choke Ring                           COMMENT
Original XYZ: -2258960.3911 -4578542.6363 3813670.8079      COMMENT
New XYZ position is based on association with SCEC monument COMMENT
E1G0L0K7+0011. Position of that monument is believed to be  COMMENT
valid to within 1 m horizontally; vertical accuracy         COMMENT
should be no worse than 3-times this value.                 COMMENT
                                                            COMMENT
Revised Rinex header created by UCSD GPS archive for        COMMENT
GSAC on 20-Apr-2005 (2005:110) 16:33:13 GMT                 COMMENT
For assistance contact dagnew@ucsd.edu                      COMMENT
or anderson@python.ucsd.edu                                 COMMENT
                                                            COMMENT
SHOSHONE 1933                                               MARKER NAME
JMS US GEOLOGICAL SURVEY                                    OBSERVER / AGENCY
LP00108.707 ASHTECH Z-XII3 CD00                             REC # / TYPE / VERS
CR519993702 DORNE-MARGOL. TYPE T                            ANT # / TYPE
 -2258981.0000 -4578520.0000  3813650.0000                  APPROX POSITION XYZ
        1.2968        0.0000        0.0000                  ANTENNA: DELTA H/E/N
     1     1     0                                          WAVELENGTH FACT L1/2
     5    C1    L1    L2    P1    P2                        # / TYPES OF OBSERV
    30                                                      INTERVAL
  2003     6     9    21    10   30.000000                  TIME OF FIRST OBS
  2003     6     9    23    59   30.000000                  TIME OF LAST OBS
                                                            END OF HEADER
 03  6  9 21 10 30.0000000  0  7G23G14G25G 3G18G 9G15
                    105949.38049     74234.69343
  20319153.978       34845.82749     24540.47348  20319153.113
  20319158.836     -181988.14449   -130308.59844                  24196889.457
  23016120.767      190686.75149    137487.56546  23016119.582    23016130.533
  22588383.032      189559.12749    134943.62946  22588381.449    22588388.210
  23879975.093      205786.03549    147802.23845  23879973.968    23879984.015
  21320864.392      210574.35849    151823.96547  21320863.233    21320871.318
 03  6  9 21 11  0.0000000  0  8G23G14G31G25G 3G18G 9G15
                    152595.82149       323.26743
  20322171.787       50703.65249     36897.23248  20322170.774    20322176.477
  22884354.070      155190.47549    109026.27446  22884352.712    22884362.201
  24181533.673     -262598.96749   -193121.92445  24181533.882    24181549.220
  23032375.982      276110.87549    204051.67346  23032375.388    23032386.262
  22604280.327      273102.98649    200042.70546  22604279.403    22604286.109
  23895964.706      289812.09249    213276.99145  23895963.278    23895973.036
  21338832.205      304995.85149    225399.09647  21338831.045    21338839.198
 03  6  9 21 11 30.0000000  0  8G23G14G31G25G 3G18G 9G15
  21438036.827     -381037.37149   -415494.69747  21438035.427    21438043.012
  20214835.743     -513352.27649   -402626.86848  20214834.481    20214840.209
  22783343.559     -375616.84149   -304589.91646  22783343.419    22783352.998
  24055749.613     -923597.36549   -708185.37445  24055749.761    24055765.290
  22938245.712     -218548.79249   -181397.59446  22938244.903    22938255.759
  22509754.440     -223633.54249   -187024.77346  22509753.622    22509760.234
  23801605.597     -206049.28749   -173108.59945  23801604.552    23801613.572
  21246431.731     -180572.28249   -152965.76647  21246430.552    21246438.704
 03  6  9 21 12  0.0000000  0  8G23G14G31G25G 3G18G 9G15
  21442971.077     -355106.71449   -395289.00147  21442969.991    21442977.527
  20214050.416     -517478.58049   -405842.15848  20214049.315    20214055.019
  22788888.860     -346479.06449   -281885.24046  22788888.251    22788897.779
  24036428.266    -1025134.18849   -787304.69545  24036427.997    24036443.359
  22950633.401     -153452.62149   -130673.46946  22950632.408    22950643.251
  22521709.818     -160808.15449   -138069.98146  22521708.955    22521715.496
  23813801.843     -141957.43649   -123166.99345  23813800.889    23813809.680
  21260567.319     -106289.14649    -95082.87447  21260566.176    21260574.348
 03  6  9 21 12 30.0000000  0  8G23G14G31G25G 3G18G 9G15
  21447929.732     -329049.18449   -374984.43647  21447928.698    21447936.118
  20213358.617     -521113.63349   -408674.65548  20213357.584    20213363.298
  22794530.045     -316835.16549   -258786.16146  22794529.326    22794538.936
  24017111.748    -1126645.41949   -866404.05145  24017110.911    24017126.359
  22963080.929      -88040.00849    -79702.75146  22963080.100    22963091.008
  22533688.876      -97858.02949    -89017.96346  22533688.012    22533694.585
  23826095.877      -77351.21549    -72824.57645  23826095.007    23826103.879
  21274781.649      -31592.62449    -36877.85647  21274780.516    21274788.686
 03  6  9 21 13  0.0000000  0  8G23G14G31G25G 3G18G 9G15
  21452912.219     -302866.13249   -354582.06147  21452911.199    21452918.537
  20212759.954     -524259.74649   -411126.16148  20212758.948    20212764.645
  22800266.933     -286688.15349   -235295.06046  22800266.184    22800275.811
  23997799.767    -1228129.61349   -945482.33945  23997798.830    23997814.467
  22975588.144      -22315.12749    -28488.70446  22975587.252    22975598.197
  22545691.388      -34784.24049    -39869.58646  22545690.573    22545697.191
  23838487.390      -12233.90049    -22083.87545  23838486.668    23838495.462
  21289074.130       43514.85549     21647.38647  21289073.031    21289081.237
 03  6  9 21 13 30.0000000  0  8G23G14G31G25G 3G18G 9G15
  21457918.706     -276556.68049   -334081.18847  21457917.683    21457925.011
  20212254.267     -526917.16249   -413196.86048  20212253.298    20212258.941
  22806099.282     -256039.28949   -211412.89546  22806098.507    22806108.188
  23978493.544    -1329583.21749  -1024536.79145  23978492.765    23978508.334
  22988154.177       43719.79049     22966.92546  22988153.382    22988164.303
  22557717.658       28413.71949      9375.54946  22557716.807    22557723.449
  23850975.845       53392.69649     29053.66845  23850975.104    23850983.824
  21303444.789      119032.77149     80492.45247  21303443.643    21303451.874
 03  6  9 21 14  0.0000000  0  8G23G14G31G25G 3G18G 9G15
  21462949.139     -250121.53549   -313482.37647  21462948.140    21462955.485
  20211841.244     -529087.72849   -414888.19948  20211840.294    20211845.925
  22812026.727     -224891.00549   -187141.57746  22812025.933    22812035.631
  23959193.747    -1431004.47649  -1103566.05145  23959192.776    23959208.189
  23000778.610      110061.23049     74661.40046  23000777.843    23000788.838
  22569767.306       91735.21249     58716.93146  22569766.495    22569773.145
  23863560.562      119525.93049     80585.99645  23863559.841    23863568.599
  21317893.085      194959.01449    139655.69147  21317892.000    21317900.227
 03  6  9 21 14 30.0000000  0  9G23G14G31G25G 3G18G 9G15G11
  21468003.615     -223560.34649   -292785.35747  21468002.621    21468009.919
  20211520.765     -530771.77749   -416200.43548  20211519.836    20211525.470
  22818048.888     -193244.96349   -162482.39946  22818048.084    22818057.739
  23939900.440    -1532390.44149  -1182567.79845  23939899.613    23939914.986
  23013460.925      176706.89649    126592.93446  23013460.193    23013471.247
  22581840.511      155180.10349    108154.48546  22581839.698    22581846.305
  23876241.417      186164.07349    132511.75445  23876240.712    23876249.608
  21332418.974      271292.55749    199136.31347  21332417.854    21332426.120
                   -903038.59149   -690666.08743
 03  6  9 21 15  0.0000000  0  9G23G14G31G25G 3G18G 9G15G11
  21473082.025     -196873.53449   -271990.44247  21473081.025    21473088.309
  20211292.598     -531970.87749   -417134.78648  20211291.704    20211297.321
  22824165.327     -161103.45849   -137437.13646  22824164.509    22824174.182
  23920614.093    -1633738.78449  -1261540.21645  23920613.574    23920628.805
  23026200.551      243653.42149    178758.89946  23026199.803    23026210.911
  22593937.102      218747.60449    157687.55246  22593936.213    22593942.887
  23889017.879      253304.39549    184828.79545  23889017.247    23889026.171
  21347021.934      348031.52949    258932.84347  21347020.855    21347029.125
  24517355.435    -1003009.64849   -768565.49345  24517353.839    24517363.131
 03  6  9 21 15 30.0000000  0  9G23G14G31G25G 3G18G 9G15G11
  21478184.062     -170062.06349   -251098.36147  21478183.073    21478190.380
  20211156.324     -532687.09149   -417692.86348  20211155.428    20211161.028
  22830375.508     -128469.47249   -112008.14346  22830374.650    22830384.251
  23901335.515    -1735048.28649  -1340482.37845  23901334.831    23901349.989
  23038996.622      310896.81949    231156.20946  23038995.935    23039007.090
  22606056.760      282436.97049    207315.60146  22606055.943    22606062.710
  23901889.222      320943.53549    237534.52745  23901888.586    23901897.522
  21361701.663      425173.63149    319043.49447  21361700.592    21361708.859
  24498351.484    -1102876.23249   -846383.55145  24498349.456    24498359.442
 03  6  9 21 16  0.0000000  0  9G23G14G31G25G 3G18G 9G15G11
  21483309.762     -143125.96049   -230109.21447  21483308.795    21483316.104
  20211111.704     -532921.67449   -417875.64148  20211110.829    20211116.410
  22836678.915      -95345.11449    -86197.02746  22836678.036    22836687.651
  23882064.883    -1836316.29449  -1419392.19445  23882064.081    23882079.044
  23051848.696      378434.03749    283782.44246  23051847.997    23051859.108
  22618199.679      346247.76749    257038.26346  22618198.787    22618205.534
  23914855.163      389079.37449    290627.34045  23914854.500    23914863.192
  21376457.787      502717.12949    379466.93247  21376456.697    21376464.951
  24479367.222    -1202636.25549   -924118.52945  24479366.047    24479375.213
 03  6  9 21 16 30.0000000  0  9G23G14G31G25G 3G18G 9G15G11
  21488459.593     -116063.86549   -209021.87247  21488458.620    21488465.883
  20211158.759     -532674.34249   -417682.90148  20211157.877    20211163.476
  22843075.573      -61730.94549    -60004.23846  22843074.698    22843084.309
  23862802.479    -1937538.79549  -1498266.57445  23862801.787    23862816.715
  23064756.433      446263.65849    336636.53546  23064755.682    23064766.822
  22630365.780      410181.15949    306856.45546  22630364.894    22630371.664
  23927915.234      457710.77849    344106.27145  23927914.699    23927923.406
  21391290.296      580662.13549    440203.23347  21391289.238    21391297.483
  24460404.121    -1302286.90349  -1001768.28945  24460403.386    24460412.256
 03  6  9 21 17  0.0000000  0  9G23G14G31G25G 3G18G 9G15G11
  21493633.526      -88875.16649   -187835.88147  21493632.528    21493639.773
  20211297.455     -531945.48949   -417114.95448  20211296.581    20211302.180
  22849565.091      -27628.52949    -33431.01346  22849564.245    22849573.891
  23843549.550    -2038712.47249  -1577102.89845  23843548.825    23843563.756
  23077719.233      514383.18749    389716.52946  23077718.518    23077729.680
  22642555.382      474237.62549    356770.55146  22642554.535    22642561.272
  23941069.484      526836.16649    397970.14545  23941068.902    23941077.709
  21406199.037      659007.65849    501251.62947  21406197.957    21406206.192
  24441462.514    -1401825.28249  -1079330.56445  24441461.588    24441470.798
 03  6  9 21 17 30.0000000  0  9G23G14G31G25G 3G18G 9G15G11
  21498831.473      -61559.68249   -166551.08747  21498830.479    21498837.787
  20211527.554     -530736.23449   -416172.66348  20211526.701    20211532.281
  22856147.173        6960.25549     -6478.79446  22856146.329    22856156.049
  23824306.660    -2139834.68749  -1655899.09645  23824305.766    23824320.572
  23090736.783      582790.18649    443020.52746  23090736.056    23090747.253
  22654768.460      538417.11549    406780.50546  22654767.580    22654774.219
  23954317.235      596453.03649    452216.98845  23954316.711    23954325.381
  21421183.771      737752.54849    562611.21147  21421182.664    21421190.904
  24422542.729    -1501249.11949  -1156803.58045  24422541.816    24422550.971
 03  6  9 21 18  0.0000000  0  9G23G14G31G25G 3G18G 9G15G11
  21504053.797      -34116.15649   -145166.52247  21504052.834    21504060.122
  20211849.123     -529046.48349   -414855.95848  20211848.269    20211853.815
  22862821.709       42034.62949     20851.80646  22862820.838    22862830.555
  23805074.117    -2240901.59349  -1734652.20145  23805073.242    23805087.828
  23103808.627      651482.47749    496546.82346  23103807.906    23103819.092
  22667005.035      602720.63249    456887.11446  22667004.200    22667010.870
  23967658.080      666560.43049    506846.05345  23967657.516    23967666.404
  21436244.386      816896.39949    624281.66847  21436243.317    21436251.577
  24403645.363    -1600555.03549  -1234184.69845  24403644.448    24403653.762
 03  6  9 21 18 30.0000000  0  9G23G14G31G25G 3G18G 9G15G11
  21509300.196       -6546.43849   -123683.64447  21509299.212    21509306.437
  20212261.540     -526879.33249   -413167.25748  20212260.683    20212266.205
  22869587.845       77590.52449     48557.60646  22869587.004    22869596.697
  23785852.087    -2341912.54549  -1813361.70245  23785851.159    23785865.758
  23116933.850      720455.17349    550291.60946  23116933.120    23116944.334
  22679264.892      667146.03149    507088.68246  22679264.022    22679270.685
  23981091.741      737154.04249    561854.00245  23981091.236    23981099.967
  21451380.265      896435.62249    686260.21047  21451379.189    21451387.473
  24384770.451    -1699742.90749  -1311473.83445  24384769.585    24384779.075
 03  6  9 21 19  0.0000000  0  9G23G14G31G25G 3G18G 9G15G11
  21514570.650       21149.76149   -102102.20547  21514569.653    21514576.826
  20212764.613     -524235.71249   -411107.28348  20212763.735    20212769.262
  22876445.306      113625.99549     76637.09646  22876444.427    22876454.047
  23766641.449    -2442864.73849  -1892025.39545  23766640.428    23766654.955
  23130111.962      789705.87649    604253.02446  23130111.237    23130122.527
  22691547.822      731693.32249    557385.23546  22691546.939    22691553.640
  23994617.556      808231.77249    617239.17845  23994617.032    23994625.701
  21466591.078      976368.87249    748545.78447  21466590.039    21466598.356
  24365918.395    -1798810.58349  -1388669.31345  24365917.556    24365927.089
 03  6  9 21 19 30.0000000  0  9G23G14G31G25G 3G18G 9G15G11
  21519865.239       48973.04349    -80421.73547  21519864.268    21519871.483
  20213358.184     -521116.42149   -408676.65548  20213357.334    20213362.836
  22883393.675      150139.47449    105089.06946  22883392.777    22883402.435
  23747442.320    -2543755.34249  -1970641.11145  23747441.388    23747455.810
  23143342.504      859231.93049    658429.00546  23143341.768    23143353.056
  22703854.074      796363.03349    607777.17946  22703853.199    22703859.919
  24008235.065      879791.83149    673000.15745  24008234.535    24008243.346
  21481876.830     1056695.42649    811137.83047  21481875.757    21481884.062
  24347089.668    -1897755.41049  -1465769.06645  24347088.851    24347098.477
 03  6  9 21 20  0.0000000  0  9G23G14G31G25G 3G18G 9G15G11
  21525184.098       76923.68049    -58642.02647  21525183.136    21525190.368
  20214042.176     -517522.23449   -405875.97848  20214041.290    20214046.809
  22890432.588      187128.98749    133911.96146  22890431.724    22890441.380
  23728255.180    -2644581.57149  -2049206.67845  23728254.562    23728268.897
  23156624.911      929030.68649    712817.47346  23156624.153    23156635.439
  22716183.507      861154.74049    658264.17946  22716182.644    22716189.389
  24021943.862      951831.87749    729135.19345  24021943.345    24021952.180
  21497237.116     1137414.18449    874035.49447  21497236.063    21497244.408
  24328284.817    -1996575.47949  -1542771.61145  24328283.920    24328293.545
 03  6  9 21 20 30.0000000  0  9G23G14G31G25G 3G18G 9G15G11
  21530527.235      105001.79149    -36762.98947  21530526.257    21530533.476
  20214816.233     -513454.50649   -402706.31148  20214815.384    20214820.875
  22897561.744      224592.50949    163104.21646  22897560.868    22897570.571
  23709081.285    -2745340.21449  -2127719.55045  23709080.696    23709094.942
  23169958.571      999099.12649    767416.07846  23169957.862    23169969.228
  22728536.254      926068.50849    708846.29346  22728535.393    22728542.100
  24035743.639     1024349.43949    785642.28945  24035743.151    24035751.885
  21512671.811     1218523.35049    937237.36247  21512670.708    21512679.049
  24309504.082    -2095268.29149  -1619675.00345  24309503.361    24309512.786
 03  6  9 21 21  0.0000000  0  9G23G14G31G25G 3G18G 9G15G11
  21535894.528      133207.22349    -14784.74747  21535893.551    21535900.746
  20215680.128     -508914.76949   -399168.84348  20215679.256    20215684.758
  22904780.572      262527.43349    192663.78946  22904779.681    22904789.416
  23689920.645    -2846028.94649  -2206177.94045  23689919.900    23689934.106
  23183343.074     1069434.24149    822222.48246  23183342.296    23183353.716
  22740912.062      991103.87049    759523.16446  22740911.305    22740917.967
  24049633.820     1097341.82649    842519.40345  24049633.315    24049641.731
  21528180.337     1300020.96249   1000741.92247  21528179.281    21528187.632
  24290747.989    -2193831.78949  -1696477.60345  24290747.386    24290756.774
 03  6  9 21 21 30.0000000  0  9G23G14G31G25G 3G18G 9G15G11
  21541286.016      161539.63449      7292.45247  21541285.059    21541292.227
  20216633.583     -503904.55949   -395264.77648  20216632.706    20216638.181
  22912088.681      300931.22049    222588.71046  22912087.802    22912097.538
  23670773.561    -2946645.51149  -2284580.10045  23670773.006    23670787.088
  23196777.592     1140032.49549    877233.92346  23196776.885    23196788.299
  22753311.178     1056260.63749    810294.62046  22753310.371    22753316.977
  24063613.645     1170806.41549    899764.49245  24063613.187    24063621.694
  21543762.484     1381905.08649   1064547.66147  21543761.394    21543769.715
  24272016.736    -2292264.50749  -1773178.31545  24272016.202    24272025.511
 03  6  9 21 22  0.0000000  0  9G23G14G31G25G 3G18G 9G15G11
  21546701.904      190000.21849     29469.52347  21546700.939    21546708.168
  20217676.442     -498424.14649   -390994.31548  20217675.584    20217681.051
  22919485.722      339802.73949    252878.10446  22919484.851    22919494.623
  23651640.854    -3047186.51649  -2362923.35445  23651640.381    23651654.390
  23210261.820     1210892.05849    932448.99446  23210261.090    23210272.612
  22765733.306     1121539.40349    861161.16446  22765732.472    22765739.148
  24077683.035     1244741.45549    957376.13145  24077682.507    24077691.204
  21559418.055     1464175.28449   1128654.22447  21559416.986    21559425.317
  24253310.981    -2390563.32949  -1849774.67445  24253310.432    24253319.893
 03  6  9 21 22 30.0000000  0  9G23G14G31G25G 3G18G 9G15G11
  21552142.163      218588.95349     51746.45147  21552141.193    21552148.472
  20218808.552     -492474.79149   -386358.43448  20218807.681    20218813.177
  22926971.421      379139.68349    283530.15746  22926970.548    22926980.336
  23632523.207    -3147649.17949  -2441205.55245  23632522.666    23632536.631
  23223795.144     1282009.77049    987865.20046  23223794.442    23223805.997
  22778178.696     1186940.15449    912122.74346  22778177.896    22778184.565
  24091841.612     1319144.50349   1015352.45345  24091841.025    24091849.771
  21575146.719     1546829.76549   1193060.24047  21575145.667    21575154.021
  24234631.173    -2488726.26349  -1926265.16545  24234630.585    24234640.012
 03  6  9 21 23  0.0000000  0  9G23G14G31G25G 3G18G 9G15G11
  21557606.747      247305.72949     74123.14747  21557605.780    21557613.054
  20220029.573     -486058.11149   -381358.41248  20220028.715    20220034.220
  22934545.067      418939.53149    314542.91946  22934544.215    22934554.088
  23613420.792    -3248031.33449  -2519425.02145  23613420.300    23613434.126
  23237376.960     1353382.18749   1043479.88646  23237376.279    23237387.863
  22790647.215     1252462.17449    963178.82446  22790646.314    22790652.994
  24106088.582     1394012.84349   1073691.33945  24106088.052    24106096.846
  21590948.258     1629866.84749   1257764.38047  21590947.168    21590955.544
  24215977.643    -2586751.17149  -2002648.10045  24215977.119    24215986.437
 03  6  9 21 23 30.0000000  0  9G23G14G31G25G 3G18G 9G15G11
  21563095.804      276150.88849     96599.87447  21563094.840    21563102.059
  20221339.353     -479175.09249   -375995.00848  20221338.489    20221344.027
  22942206.563      459200.46949    345914.96746  22942205.711    22942215.578
  23594334.200    -3348330.08949  -2597579.50745  23594333.754    23594347.579
  23251006.860     1425006.85949   1099291.10946  23251006.163    23251017.799
  22803138.670     1318105.72549   1014329.60546  22803137.856    22803144.570
  24120423.684     1469344.52549   1132391.26345  24120423.169    24120432.133
  21606822.264     1713285.08749   1322765.52647  21606821.179    21606829.609
  24197350.755    -2684635.42249  -2078921.45545  24197350.123    24197359.552
 03  6  9 21 24  0.0000000  0  9G23G14G31G25G 3G18G 9G15G11
  21568609.280      305124.27749    119176.52747  21568608.323    21568615.516
  20222737.518     -471827.37549   -370269.50348  20222736.691    20222742.211
  22949955.225      499919.70449    377644.11946  22949954.377    22949964.343
  23575264.119    -3448543.03149  -2675667.13845  23575263.546    23575277.315
  23264684.145     1496880.50949   1155296.34946  23264683.414    23264695.093
  22815653.425     1383870.52049   1065574.83846  22815652.543    22815659.267
  24134846.597     1545136.46449   1191449.81545  24134846.014    24134854.881
  21622768.457     1797082.78249   1388062.34847  21622767.390    21622775.826
  24178750.783    -2782377.91949  -2155084.33545  24178750.189    24178759.554
 03  6  9 21 24 30.0000000  0  9G23G14G31G25G 3G18G 9G15G11
  21574147.213      334226.26749    141853.39147  21574146.249    21574153.462
  20224223.991     -464016.00949   -364182.71548  20224223.122    20224228.649
  22957790.803      541095.26749    409728.84946  22957789.903    22957799.905
  23556210.911    -3548667.10749  -2753685.53245  23556210.305    23556223.925
  23278408.225     1569000.33249   1211493.41546  23278407.494    23278419.257
  22828190.991     1449756.31849   1116914.38346  22828190.183    22828196.995
  24149356.633     1621386.46449   1250865.27145  24149356.018    24149364.902
  21638786.672     1881258.47949   1453653.71447  21638785.560    21638794.018
  24160178.276    -2879975.90349  -2231134.62245  24160177.787    24160187.011
 03  6  9 21 25  0.0000000  0  9G23G14G31G25G 3G18G 9G15G11
  21579709.718      363457.44749    164630.91447  21579708.749    21579715.988
  20225798.476     -455741.93749   -357735.37448  20225797.632    20225803.138
  22965712.774      582725.16449    442167.60746  22965711.918    22965721.913
  23537174.951    -3648699.72049  -2831632.67345  23537174.404    23537187.990
  23292178.653     1641363.68649   1267880.24546  23292177.970    23292189.816
  22840751.829     1515763.50649   1168348.49746  22840750.997    22840757.709
  24163953.420     1698092.44749   1310636.08645  24163952.743    24163961.719
  21654876.419     1965810.63049   1519538.42547  21654875.332    21654883.785
  24141633.850    -2977426.82549  -2307070.32045  24141633.445    24141642.710
 03  6  9 21 25 30.0000000  0  9G23G14G31G25G 3G18G 9G15G11
  21585296.807      392817.80949    187509.10847  21585295.841    21585303.094
  20227460.752     -447006.58149   -350928.58948  20227459.891    20227465.402
  22973720.785      624807.07549    474958.57846  22973719.944    22973729.932
  23518157.135    -3748638.01849  -2909506.32645  23518156.510    23518170.056
  23305994.915     1713967.48949   1324454.43446  23305994.205    23306005.963
  22853335.618     1581891.96349   1219877.11746  22853334.806    22853341.619
  24178636.318     1775251.53749   1370759.98145  24178635.670    24178644.703
  21671037.580     2050737.59449   1585715.18947  21671036.514    21671044.960
  24123117.852    -3074728.85849  -2382889.99745  24123117.304    24123126.671
 03  6  9 21 26  0.0000000  0  9G23G14G31G25G 3G18G 9G15G11
  21590908.457      422307.36049    210487.96347  21590907.496    21590914.757
  20229210.603     -437811.19349   -343763.33548  20229209.749    20229215.260
  22981814.458      667338.78849    508100.05246  22981813.572    22981823.627
  23499157.661    -3848479.27249  -2987304.35845  23499157.082    23499170.510
  23319856.279     1786808.91749   1381213.77946  23319855.629    23319867.414
  22865942.535     1648141.69149   1271500.23846  22865941.738    22865948.555
  24193404.970     1852861.45249   1431235.19045  24193404.514    24193413.240
  21687269.725     2136037.75449   1652182.77147  21687268.646    21687277.101
  24104630.634    -3171879.37849  -2458591.61945  24104630.012    24104639.493
 03  6  9 21 26 30.0000000  0  9G23G14G31G25G 3G18G 9G15G11
  21596544.809      451926.51249    233567.80947  21596543.864    21596551.128
  20231047.696     -428157.08549   -336240.63448  20231046.848    20231052.341
  22989993.181      710317.75449    541590.02546  22989992.269    22990002.372
  23480176.944    -3948220.69149  -3065024.62245  23480176.653    23480189.982
  23333762.427     1859884.96749   1438155.95546  23333761.743    23333773.544
  22878572.527     1714512.32249   1323217.55346  22878571.724    22878578.567
  24208259.029     1930919.54049   1492059.59545  24208258.591    24208267.245
  21703572.613     2221709.41149   1718939.82147  21703571.500    21703579.963
  24086172.726    -3268876.45749  -2534173.67345  24086172.120    24086181.440
 03  6  9 21 27  0.0000000  0  9G23G14G31G25G 3G18G 9G15G11
  21602205.886      481675.57149    256748.88047  21602204.955    21602212.209
  20232971.877     -418045.54549   -328361.49848  20232971.016    20232976.533
  22998256.585      753741.90849    575426.90346  22998255.699    22998265.845
  23461216.213    -4047859.52949  -3142664.92945  23461215.729    23461229.000
  23347712.617     1933192.80149   1495278.73346  23347711.915    23347723.779
  22891225.520     1781004.01249   1375029.22346  22891224.704    22891231.590
  24223198.000     2009423.31349   1553231.29945  24223197.508    24223206.154
  21719945.781     2307750.84749   1785985.01147  21719944.725    21719953.215
  24067744.561    -3365717.42549  -2609634.07845  24067743.907    24067753.194
 03  6  9 21 27 30.0000000  0  9G23G14G31G25G 3G18G 9G15G11
  21607891.712      511554.53449    280031.18047  21607890.768    21607898.012
  20234982.774     -407478.12749   -320127.12848  20234981.913    20234987.417
  23006604.286      797608.85949    609608.81146  23006603.370    23006613.565
  23442275.546    -4147393.35749  -3220223.43445  23442274.791    23442288.047
  23361706.317     2006729.20249   1552579.62046  23361705.528    23361717.562
  22903901.532     1847616.34449   1426934.88546  22903900.709    22903907.568
  24238221.095     2088370.20249   1614748.29345  24238220.640    24238229.515
  21736389.068     2394160.46649   1853317.08747  21736388.001    21736396.491
  24049346.437    -3462400.70949  -2684971.63745  24049345.844    24049354.733
 03  6  9 21 28  0.0000000  0  9G23G14G31G25G 3G18G 9G15G11
  21613602.278      541563.80949    303415.02347  21613601.345    21613608.599
  20237080.222     -396456.01849   -311538.45248  20237079.352    20237084.838
  23015035.741      841916.21249    644133.89546  23015034.853    23015045.104
  23423355.085    -4246819.29349  -3297697.86345  23423354.450    23423367.603
  23375742.888     2080491.44049   1610056.48646  23375742.160    23375754.242
  22916600.444     1914349.62349   1478934.79746  22916599.658    22916606.532
  24253327.855     2167757.86649   1676608.75145  24253327.371    24253336.627
  21752902.097     2480936.95649   1920935.02647  21752901.050    21752909.581
  24030978.812    -3558923.47749  -2760184.08945  24030978.240    24030986.922
 03  6  9 21 28 30.0000000  0  9G23G14G31G25G 3G18G 9G15G11
  21619337.795      571703.97249    326900.85247  21619336.845    21619344.117
  20239263.935     -384980.28949   -302596.31348  20239263.100    20239268.590
  23023550.823      886662.13249    679000.72046  23023549.877    23023560.095
  23404455.811    -4346134.31949  -3375085.87545  23404455.163    23404468.265
  23389821.923     2154476.81549   1667707.21946  23389821.244    23389833.414
  22929322.577     1981204.03649   1531029.08746  22929321.731    22929328.592
  24268518.456     2247583.93049   1738810.82545  24268517.904    24268526.991
  21769484.768     2568078.94349   1988837.78947  21769483.690    21769492.242
  24012642.069    -3655283.26449  -2835269.54945  24012641.504    24012650.017
 03  6  9 21 29  0.0000000  0  9G23G14G31G25G 3G18G 9G15G11
  21625098.155      601974.91949    350488.59647  21625097.217    21625104.503
  20241533.671     -373052.76449   -293302.11848  20241532.818    20241538.315
  23032148.648      931843.68449    714206.99846  23032147.755    23032157.974
  23385578.064    -4445336.11249  -3452385.67845  23385577.502    23385590.447
  23403942.871     2228681.81449   1725529.07746  23403942.138    23403954.360
  22942067.469     2048179.08249   1583217.39146  22942066.648    22942073.555
  24283791.841     2327845.21549   1801352.02845  24283791.311    24283800.160
  21786136.477     2655584.14349   2057023.55947  21786135.432    21786144.031
  23994336.617    -3751478.25749  -2910226.58645  23994336.177    23994344.642
 03  6  9 21 29 30.0000000  0  9G23G14G31G25G 3G18G 9G15G11
  21630883.526      632377.07049    374178.57547  21630882.582    21630889.887
  20243889.185     -360674.31449   -283656.55647  20243888.328    20243893.843
  23040829.056      977458.84049    749751.14646  23040828.157    23040838.437
  23366722.546    -4544421.52249  -3529594.78745  23366721.926    23366734.824
  23418105.065     2303103.96049   1783520.15145  23418104.324    23418116.636
  22954835.421     2115275.08449   1635499.94446  22954834.658    22954841.549
  24299147.348     2408539.51449   1864230.64845  24299146.941    24299155.846
  21802857.099     2743451.25449   2125491.35046  21802856.057    21802864.751
  23976063.178    -3847505.92449  -2985053.24345  23976062.539    23976071.250
 03  6  9 21 30  0.0000000  0  9G23G14G31G25G 3G18G 9G15G11
  21636693.909      662910.72349    397971.02447  21636692.969    21636700.238
  20246330.256     -347846.51449   -273660.85647  20246329.378    20246334.862
  23049591.428     1023505.12349    785631.22445  23049590.560    23049600.934
  23347889.874    -4643387.91449  -3606711.15445  23347889.043    23347901.808
  23432308.137     2377740.26249   1841678.09045  23432307.401    23432319.692
  22967626.423     2182491.84749   1687876.59645  22967625.534    22967632.528
  24314584.768     2489664.27449   1927444.65345  24314584.443    24314593.739
  21819646.292     2831678.45549   2194239.71446  21819645.194    21819653.896
  23957822.044    -3943364.09449  -3059747.82645  23957821.296    23957830.155
 03  6  9 21 30 30.0000000  0  9G23G14G31G25G 3G18G 9G15G11
  21642529.342      693576.03749    421866.06347  21642528.399    21642535.638
  20248856.489     -334570.92449   -263316.22848  20248855.649    20248861.125
  23058435.427     1069980.13649    821845.39546  23058434.557    23058444.875
  23329080.053    -4742232.88949  -3683732.92245  23329079.285    23329092.012
  23446551.203     2452587.60849   1900000.49445  23446550.520    23446562.938
  22980440.369     2249829.44349   1740347.39746  22980439.492    22980446.370
  24330103.722     2571216.96849   1990992.16045  24330103.499    24330112.883
  21836503.642     2920263.93349   2263267.25646  21836502.524    21836511.232
  23939613.438    -4039050.56949  -3134308.60045  23939612.750    23939621.437
 03  6  9 21 31  0.0000000  0  9G23G14G31G25G 3G18G 9G15G11
  21648389.850      724373.43149    445864.02347  21648388.922    21648396.232
  20251467.762     -320848.58049   -252623.48148  20251466.881    20251472.375
  23067360.574     1116881.52049    858391.78346  23067359.709    23067370.073
  23310293.825    -4840953.28049  -3760657.59746  23310293.170    23310305.880
  23460834.034     2527643.16149   1958485.11146  23460833.302    23460845.778
  22993277.333     2317287.93449   1792912.40646  22993276.476    22993283.365
  24345703.812     2653195.07949   2054871.14945  24345703.419    24345712.818
  21853428.867     3009206.21449   2332572.82247  21853427.766    21853436.503
  23921438.012    -4134562.61349  -3208733.48145  23921437.354    23921445.919
 03  6  9 21 31 30.0000000  0  9G23G14G31G25G 3G18G 9G15G11
  21654275.605      755302.92649    469964.91047  21654274.658    21654281.988
  20254163.700     -306681.16349   -241583.92348  20254162.855    20254168.352
  23076366.373     1164206.77549    895268.47046  23076365.504    23076375.947
  23291531.811    -4939546.58849  -3837483.25546  23291531.289    23291543.870
  23475155.838     2602904.02349   2017129.73646  23475155.118    23475167.617
  23006137.243     2384867.04549   1845571.39246  23006136.403    23006143.296
  24361384.388     2735595.81049   2119079.45245  24361383.934    24361393.084
  21870421.586     3098503.30249   2402154.87647  21870420.503    21870429.294
  23903296.052    -4229898.34849  -3283020.97545  23903295.453    23903304.047
 03  6  9 21 32  0.0000000  0  8G23G14G31G25G 3G18G15G11
  21660186.591      786365.20049    494169.26047  21660185.626    21660192.949
  20256944.190     -292069.69849   -230198.35848  20256943.330    20256948.808
  23085452.440     1211953.78049    932473.77546  23085451.545    23085462.006
  23272794.745    -5038009.93849  -3914207.63746  23272794.110    23272806.615
  23489516.264     2678367.31549   2075932.07345  23489515.476    23489528.038
  23019020.176     2452566.90849   1898324.48546  23019019.304    23019026.248
  21887481.656     3188153.96049   2472012.42147  21887480.562    21887489.387
  23885188.167    -4325055.25549  -3357169.11245  23885187.469    23885196.183
 03  6  9 21 32 30.0000000  0  8G23G14G31G25G 3G18G15G11
  21666123.006      817561.27149    518477.86947  21666122.066    21666129.383
  20259809.005     -277014.97849   -218467.39948  20259808.167    20259813.609
  23094618.393     1260120.69749    970006.29446  23094617.499    23094628.042
  23254083.009    -5136339.47249  -3990827.76146  23254082.375    23254094.808
  23503914.677     2754030.97649   2134890.55346  23503913.969    23503926.545
  23031926.232     2520388.34549   1951172.31546  23031925.369    23031932.345
  21904608.741     3278157.08749   2542144.62247  21904607.646    21904616.511
  23867114.851    -4420030.11649  -3431175.39845  23867114.191    23867122.926
 03  6  9 21 33  0.0000000  0  8G23G14G31G25G 3G18G15G11
  21672084.730      848890.14949    542889.96047  21672083.779    21672091.067
  20262757.683     -261519.79949   -206393.22948  20262756.805    20262762.250
  23103863.584     1308703.77149   1007863.09446  23103862.688    23103873.230
  23235397.051    -5234533.75749  -4067342.51346  23235396.480    23235408.781
  23518350.526     2829890.72249   2194001.82246  23518349.814    23518362.433
  23044855.106     2588329.81949   2004113.66546  23044854.240    23044861.196
  21921802.383     3368509.57749   2612549.04447  21921801.243    21921810.124
  23849076.496    -4514822.14849  -3505039.21645  23849075.798    23849084.564
 03  6  9 21 33 30.0000000  0  8G23G14G31G25G 3G18G15G11
  21678071.739      880351.96449    567405.63847  21678070.774    21678078.074
  20265789.836     -245585.49749   -193976.88848  20265788.986    20265794.407
  23113187.475     1357700.62349   1046042.31746  23113186.584    23113197.237
  23216737.308    -5332590.15349  -4143749.81246  23216736.738    23216748.918
  23532823.112     2905943.71449   2253263.66746  23532822.385    23532834.988
  23057806.872     2656391.45849   2057148.64646  23057806.063    23057812.931
  21939062.046     3459209.71549   2683224.35647  21939060.954    21939069.883
  23831073.427    -4609428.97049  -3578758.73345  23831072.751    23831081.418
 03  6  9 21 34  0.0000000  0  8G23G14G31G25G 3G18G15G11
  21684084.210      911947.58249    592025.57247  21684083.241    21684090.529
  20268905.379     -229213.33949   -181219.36248  20268904.529    20268909.928
  23122589.697     1407109.00149   1084542.19546  23122588.785    23122599.457
  23198104.357    -5430505.52749  -4220047.24246  23198103.867    23198115.946
  23547331.889     2982187.10549   2312673.87046  23547331.162    23547343.835
  23070781.556     2724573.57949   2110277.51546  23070780.711    23070787.646
  21956387.694     3550256.21249   2754169.55447  21956386.600    21956395.595
  23813106.023    -4703847.84249  -3652331.79745  23813105.380    23813114.002
 03  6  9 21 34 30.0000000  0  8G23G14G31G25G 3G18G15G11
  21690122.296      943677.62149    616750.24547  21690121.311    21690128.586
  20272104.031     -212404.33549   -168121.44548  20272103.175    20272108.564
  23132069.807     1456926.85049   1123361.13846  23132068.912    23132079.571
  23179498.897    -5528277.00249  -4296232.53346  23179498.387    23179510.346
  23561876.446     3058618.53449   2372230.57045  23561875.703    23561888.486
  23083779.148     2792876.49949   2163500.47746  23083778.313    23083785.268
  21973778.851     3641647.50349   2825383.41647  21973777.820    21973786.905
  23795174.846    -4798076.18949  -3725756.42045  23795174.264    23795182.914
 03  6  9 21 35  0.0000000  0  8G23G14G31G25G 3G18G15G11
  21696185.685      975541.18349    641578.96047  21696184.714    21696192.025
  20275385.338     -195161.05849   -154685.13548  20275384.493    20275389.872
  23141627.178     1507150.51249   1162496.28646  23141626.295    23141637.014
  23160921.220    -5625902.84449  -4372304.34246  23160920.609    23160932.500
  23576455.929     3135233.85449   2431930.56645  23576455.289    23576468.127
  23096799.621     2861299.21149   2216816.79746  23096798.799    23096805.783
  21991235.307     3733380.73049   2896863.71246  21991234.195    21991243.253
  23777280.176    -4892112.72549  -3799031.57745  23777279.601    23777288.267
 03  6  9 21 35 30.0000000  0  8G23G14G31G25G 3G18G15G11
  21702274.824     1007539.78149    666512.86347  21702273.868    21702281.168
  20278749.205     -177483.78849   -140910.67948  20278748.365    20278753.770
  23151261.518     1557778.48749   1201946.43246  23151260.645    23151271.316
  23142371.694    -5723379.21749  -4448259.77046  23142371.240    23142383.091
  23591070.225     3212031.09349   2491772.23745  23591069.532    23591082.383
  23109843.044     2929842.63249   2270227.11245  23109842.189    23109849.194
  22008756.584     3825455.24449   2968609.89646  22008755.516    22008764.601
  23759422.704    -4985953.91049  -3872154.59245  23759422.094    23759430.720
 03  6  9 21 36  0.0000000  0  8G23G14G31G25G 3G18G15G11
  21708389.719     1039673.37649    691551.94347  21708388.765    21708396.034
  20282195.318     -159374.49149   -126799.58448  20282194.479    20282199.854
  23160972.302     1608807.99449   1241709.44746  23160971.443    23160982.072
  23123851.146    -5820703.85549  -4524096.98846  23123850.761    23123862.614
  23605718.299     3289006.76449   2551752.92445  23605717.662    23605730.700
  23122909.388     2998506.43649   2323731.19446  23122908.574    23122915.521
  22026342.515     3917868.95949   3040620.38546  22026341.401    22026350.438
  23741602.863    -5079597.85149  -3945123.94045  23741602.291    23741610.749
 03  6  9 21 36 30.0000000  0  8G23G14G31G25G 3G18G15G11
  21714530.293     1071942.48249    716696.63247  21714529.364    21714536.682
  20285723.370     -140834.57849   -112352.94248  20285722.517    20285727.927
  23170759.025     1660236.70149   1281783.53246  23170758.117    23170768.794
  23105360.239    -5917873.54549  -4599813.44146  23105359.803    23105371.592
  23620400.085     3366158.49849   2611870.81045  23620399.387    23620412.413
  23135998.737     3067290.91149   2377329.34746  23135997.932    23136004.896
  22043992.550     4010619.91949   3112893.68046  22043991.462    22044000.544
  23723821.007    -5173042.06149  -4017937.63545  23723820.351    23723828.870
 03  6  9 21 37  0.0000000  0  8G23G14G31G25G 3G18G15G11
  21720696.732     1104346.97549    741946.69147  21720695.815    21720703.085
  20289332.965     -121865.99849    -97572.36448  20289332.137    20289337.531
  23180621.066     1712061.37549   1322165.96646  23180620.210    23180630.886
  23086899.243    -6014886.06849  -4675407.63846  23086898.753    23086910.485
  23635114.580     3443482.60549   2672122.78345  23635113.900    23635126.987
  23149110.793     3136194.96249   2431020.46846  23149109.994    23149117.045
  22061706.415     4103705.99849   3185427.94646  22061705.308    22061714.389
  23706077.430    -5266284.76749  -4090594.54745  23706076.825    23706085.468
 03  6  9 21 37 30.0000000  0  8G23G14G31G25G 3G18G15G11
  21726889.127     1136887.59949    767302.95347  21726888.178    21726895.480
  20293023.964     -102470.09349    -82458.70048  20293023.112    20293028.542
  23190558.135     1764280.13849   1362855.69946  23190557.291    23190568.069
  23068468.919    -6111738.01549  -4750876.49546  23068468.302    23068480.043
  23649861.507     3520976.75649   2732507.51345  23649860.792    23649874.010
  23162245.988     3205219.98649   2484806.05846  23162245.191    23162252.247
  22079483.791     4197125.93349   3258222.51146  22079482.732    22079491.834
  23688372.844    -5359322.85749  -4163091.75545  23688372.181    23688381.080
 03  6  9 21 38  0.0000000  0  8G23G14G31G25G 3G18G15G11
  21733107.169     1169563.85449    792764.93047  21733106.263    21733113.644
  20296795.835      -82648.85849    -67013.60048  20296795.011    20296800.451
  23200569.531     1816889.59749   1403849.90446  23200568.720    23200579.561
  23050069.321    -6208427.66849  -4826218.87346  23050068.730    23050080.469
  23664640.098     3598637.08949   2793021.73545  23664639.310    23664652.692
  23175403.961     3274364.69849   2538684.94246  23175403.132    23175410.276
  22097324.119     4290876.79849   3331274.97046  22097323.081    22097332.274
  23670707.566    -5452154.93249  -4235428.43045  23670706.871    23670715.752
 03  6  9 21 38 30.0000000  0  8G23G14G31G25G 3G18G15G11
  21739351.394     1202376.83449    818333.48247  21739350.461    21739357.832
  20300648.500      -62403.14049    -51237.69848  20300647.634    20300653.119
  23210654.961     1869887.75249   1445147.06646  23210654.068    23210664.966
  23031701.363    -6304951.66049  -4901432.07846  23031700.686    23031712.393
  23679449.847     3676461.53849   2853663.94645  23679449.028    23679462.512
  23188584.791     3343629.73449   2592657.65746  23188583.967    23188591.188
  22115227.270     4384957.63149   3404584.60546  22115226.217    22115235.466
  23653082.052    -5544777.88349  -4307602.04845  23653081.362    23653090.150
 03  6  9 21 39  0.0000000  0  8G23G14G31G25G 3G18G15G11
  21745621.583     1235326.54149    844008.55147  21745620.630    21745627.988
  20304581.532      -41734.95849    -35132.61748  20304580.691    20304586.192
  23220813.722     1923271.50849   1486744.64346  23220812.876    23220823.792
  23013365.272    -6401307.75049  -4976514.49646  23013364.569    23013376.242
  23694290.134     3754446.62949   2914431.29345  23694289.334    23694302.874
  23201788.352     3413014.42349   2646723.56546  23201787.497    23201794.735
  22133192.741     4479366.09449   3478149.51946  22133191.680    22133200.975
  23635496.659    -5637189.92249  -4379611.35545  23635495.967    23635504.812
 03  6  9 21 39 30.0000000  0  8G23G14G31G25G 3G18G15G11
  21751917.930     1268413.94449    869790.90447  21751916.991    21751924.383
  20308594.786      -20645.28449    -18699.11748  20308593.943    20308599.478
  23231045.428     1977038.93649   1528641.18346  23231044.532    23231055.544
  22995061.631    -6497492.45249  -5051463.39146  22995061.051    22995072.703
  23709160.571     3832590.11649   2975322.02145  23709159.850    23709173.345
  23215014.853     3482519.70949   2700883.42546  23215014.040    23215021.361
  22151220.291     4574100.89849   3551968.70946  22151219.220    22151228.560
  23617952.005    -5729387.99049  -4451453.96945  23617951.352    23617960.156
 03  6  9 21 40  0.0000000  0  8G23G14G31G25G 3G18G15G11
  21758240.514     1301639.13449    895680.62747  21758239.554    21758247.026
  20312687.903         864.25049     -1938.45448  20312687.069    20312692.611
  23241349.619     2031187.25149   1570834.51546  23241348.739    23241359.805
  22976791.262    -6593503.34549  -5126276.84446  22976790.590    22976802.219
  23724060.612     3910888.78549   3036333.70445  23724059.895    23724073.368
  23228264.203     3552145.31349   2755137.04646  23228263.488    23228270.775
  22169309.567     4669159.93849   3626040.53646  22169308.467    22169317.813
  23600448.408    -5821370.05549  -4523128.25945  23600447.750    23600456.528
 03  6  9 21 40 30.0000000  0  8G23G14G31G25G 3G18G15G11
  21764589.417     1335002.77849    921678.24447  21764588.469    21764595.907
  20316860.714       22792.25749     15148.30548  20316859.871    20316865.380
  23251725.834     2085714.03549   1613322.76646  23251724.995    23251736.072
  22958554.405    -6689337.55549  -5200952.60746  22958553.795    22958565.380
  23738989.573     3989339.75649   3097464.06145  23738988.810    23739002.420
  23241536.559     3621891.44449   2809484.60846  23241535.820    23241543.000
  22187460.196     4764541.84149   3700363.97446  22187459.131    22187468.574
  23582986.373    -5913133.37449  -4594632.07245  23582985.698    23582994.580
 03  6  9 21 41  0.0000000  0  8G23G14G31G25G 3G18G15G11
  21770964.778     1368504.99849    947783.83047  21770963.815    21770971.190
  20321112.688       45136.65549     32559.50548  20321111.847    20321117.387
  23262173.541     2140616.21449   1656103.51946  23262172.673    23262183.761
  22940351.716    -6784992.22849  -5275488.49546  22940351.146    22940362.673
  23753946.883     4067939.91349   3158710.66345  23753946.105    23753959.823
  23254831.614     3691757.60949   2863925.66346  23254830.885    23254838.180
  22205671.871     4860244.15349   3774937.06646  22205670.804    22205680.254
  23565566.407    -6004675.86549  -4665963.85045  23565565.749    23565574.540
 03  6  9 21 41 30.0000000  0  8G23G14G31G25G 3G18G15G11
  21777366.518     1402146.00849    973997.59347  21777365.553    21777372.922
  20325443.678       67895.93949     50294.02648  20325442.829    20325448.358
  23272692.058     2195891.17349   1699174.79046  23272691.271    23272702.486
  22922183.755    -6880464.66149  -5349882.33946  22922183.173    22922194.657
  23768932.013     4146686.38149   3220071.28545  23768931.331    23768945.092
  23268149.761     3761744.20749   2918460.62346  23268148.986    23268156.293
  22223944.127     4956265.16549   3849758.54146  22223943.094    22223952.594
  23548188.892    -6095995.40749  -4737121.83945  23548188.258    23548196.922
 03  6  9 21 42  0.0000000  0  8G23G14G31G25G 3G18G15G11
  21783794.671     1435926.12649   1000319.75047  21783793.723    21783801.114
  20329853.195       91068.10849     68350.26848  20329852.346    20329857.907
  23283281.136     2251535.97049   1742534.23346  23283280.250    23283291.517
  22904050.870    -6975752.57949  -5424132.41046  22904050.316    22904061.764
  23783944.335     4225575.77449   3281543.30045  23783943.608    23783957.575
  23281490.624     3831850.87549   2973089.14646  23281489.860    23281497.268
  22242276.607     5052602.50949   3924826.48646  22242275.573    22242285.073
  23530854.232    -6187089.48849  -4808104.13845  23530853.560    23530862.101
 03  6  9 21 42 30.0000000  0  8G23G14G31G25G 3G18G15G11
  21790249.470     1469846.13649   1026750.92847  21790248.535    21790255.874
  20334341.090      114652.22349     86727.52248  20334340.229    20334345.796
  23293940.085     2307548.54749   1786180.29646  23293939.221    23293950.533
  22885953.836    -7070852.45549  -5498235.92746  22885953.255    22885964.637
  23798983.441     4304605.93749   3343125.04045  23798982.767    23798996.782
  23294854.546     3902077.94749   3027811.51446  23294853.768    23294861.093
  22260669.000     5149254.82549   4000139.88846  22260667.980    22260677.523
  23513562.935    -6277955.26949  -4878908.49845  23513562.250    23513570.866
 03  6  9 21 43  0.0000000  0  8G23G14G31G25G 3G18G15G11
  21796730.816     1503905.73249   1053290.88247  21796729.848    21796737.245
  20338906.922      138645.98949    105423.98648  20338906.068    20338911.672
  23304668.462     2363925.43749   1830110.24446  23304667.504    23304678.843
  22867892.778    -7165762.54549  -5572191.57846  22867892.268    22867903.582
  23814048.537     4383773.04549   3404813.49845  23814047.927    23814062.012
  23308241.136     3972424.73749   3082627.19046  23308240.281    23308247.736
  22279120.914     5246219.62349   4075696.79146  22279119.856    22279129.411
  23496315.401    -6368591.10549  -4949533.68645  23496314.759    23496323.382
 03  6  9 21 43 30.0000000  0  8G23G14G31G25G 3G18G15G11
  21803238.825     1538105.69649   1079940.20947  21803237.902    21803245.327
  20343550.560      163048.38949    124438.85748  20343549.724    20343555.307
  23315465.498     2420664.37949   1874322.30446  23315464.639    23315476.000
  22849868.567    -7260479.93849  -5645997.07146  22849867.986    22849879.249
  23829139.364     4463074.47649   3466606.58845  23829138.680    23829152.925
  23321650.597     4042891.58049   3137536.39146  23321649.827    23321657.159
  22297631.843     5343495.02849   4151495.72446  22297630.811    22297640.414
  23479112.165    -6458994.38449  -5019977.67345  23479111.549    23479120.114
 03  6  9 21 44  0.0000000  0  8G23G14G31G25G 3G18G15G11
  21809773.699     1572446.82549   1106699.52647  21809772.759    21809780.206
  20348271.632      187857.83949    143770.90948  20348270.775    20348276.384
  23326331.119     2477763.01349   1918814.62946  23326330.307    23326341.679
  22831881.660    -7355000.94649  -5719649.55846  22831881.068    22831892.216
  23844255.143     4542507.75449   3528502.43345  23844254.546    23844268.771
  23335082.935     4113478.90349   3192539.46746  23335082.199    23335089.551
  22316201.637     5441079.47649   4227535.46046  22316200.595    22316210.233
  23461953.722    -6549162.44749  -5090238.37045  23461953.088    23461961.569
 03  6  9 21 44 30.0000000  0  8G23G14G31G25G 3G18G15G11
  21816335.350     1606928.81049   1133568.60447  21816334.416    21816341.947
  20353069.714      213072.14049    163418.42648  20353068.874    20353074.477
  23337264.519     2535218.07449   1963584.69146  23337263.679    23337275.152
  22813932.524    -7449323.37449  -5793147.30546  22813931.964    22813943.017
  23859395.365     4622069.31049   3590498.23345  23859394.744    23859409.054
  23348538.142     4184186.23249   3247636.05346  23348537.444    23348544.862
  22334829.807     5538970.58349   4303814.15446  22334828.780    22334838.424
  23444840.449    -6639093.34549  -5160314.27545  23444839.725    23444848.172
 03  6  9 21 45  0.0000000  0  8G23G14G31G25G 3G18G15G11
  21822924.013     1641552.22149   1160547.88147  21822923.085    21822930.606
  20357944.634      238689.93349    183380.35448  20357943.779    20357949.387
  23348265.235     2593026.95949   2008630.46346  23348264.413    23348275.906
  22796021.612    -7543444.84249  -5866488.46546  22796021.033    22796032.028
  23874559.492     4701756.49349   3652591.90945  23874558.877    23874573.217
  23362016.185     4255013.44349   3302826.05246  23362015.443    23362022.815
  22353515.898     5637166.56049   4380330.39946  22353514.933    22353524.581
  23427772.689    -6728784.49949  -5230203.37645  23427771.990    23427780.343
 03  6  9 21 45 30.0000000  0  8G23G14G31G25G 3G18G15G11
  21829539.719     1676317.70249   1187637.85947  21829538.765    21829546.206
  20362896.007      264709.65249    203655.46648  20362895.151    20362900.755
  23359332.794     2651186.93849   2053949.79446  23359331.970    23359343.507
  22778149.524    -7637362.37449  -5939670.72146  22778148.966    22778159.835
  23889746.992     4781566.38249   3714781.20145  23889746.352    23889760.742
  23375517.065     4325960.89349   3358109.74146  23375516.337    23375523.760
  22372259.816     5735665.65249   4457082.82646  22372258.787    22372268.426
  23410751.110    -6818233.26949  -5299903.59045  23410750.415    23410758.776
 03  6  9 21 46  0.0000000  0  8G23G14G31G25G 3G18G15G11
  21836182.427     1711225.61349   1214838.83247  21836181.486    21836188.985
  20367923.607      291129.66349    224242.49148  20367922.760    20367928.313
  23370466.744     2709695.47049   2099540.72346  23370465.853    23370477.439
  22760316.770    -7731072.99949  -6012691.76346  22760316.252    22760327.053
  23904957.248     4861495.86449   3777063.67445  23904956.623    23904971.075
  23389040.932     4397028.58749   3413487.11145  23389040.115    23389047.488
  22391060.957     5834466.04649   4534070.03946  22391059.932    22391069.611
  23393775.983    -6907437.34249  -5369413.14545  23393775.337    23393783.678
 03  6  9 21 46 30.0000000  0  8G23G14G31G25G 3G18G15G11
  21842852.404     1746276.42649   1242151.14747  21842851.448    21842858.972
  20373026.966      317948.00349    245139.89948  20373026.097    20373031.651
  23381666.308     2768549.64849   2145400.99446  23381665.399    23381677.165
  22742523.756    -7824574.18549  -6085549.61446  22742523.359    22742534.055
  23920189.758     4941542.12549   3839437.13345  23920189.147    23920203.548
  23402587.438     4468216.43549   3468958.12945  23402586.616    23402594.094
  22409919.071     5933565.28649   4611290.11146  22409917.987    22409927.756
  23376847.921    -6996394.54649  -5438730.35145  23376847.236    23376855.537
 03  6  9 21 47  0.0000000  0  8G23G14G31G25G 3G18G15G11
  21849549.540     1781470.14349   1269574.81047  21849548.562    21849556.082
  20378205.763      345162.83049    266346.25748  20378204.912    20378210.443
  23392931.278     2827746.35049   2191528.14546  23392930.332    23392942.061
  22724771.279    -7917863.82049  -6158242.62146  22724770.759    22724781.404
  23935443.945     5021702.19449   3901899.26245  23935443.287    23935457.753
  23416156.885     4539524.00949   3524522.40645  23416156.063    23416163.593
  22428833.538     6032961.25549   4688741.40446  22428832.492    22428842.283
  23359967.199    -7085102.79149  -5507853.55045  23359966.471    23359974.807
 03  6  9 21 47 30.0000000  0  8G23G14G31G25G 3G18G15G11
  21856274.023     1816807.69549   1297110.55547  21856273.087    21856280.593
  20383459.802      372772.99949    287860.67048  20383458.945    20383464.490
  23404260.814     2887283.26249   2237920.39546  23404260.007    23404271.692
  22707059.624    -8010938.50149  -6230768.14946  22707059.061    22707069.644
  23950719.283     5101973.43149   3964448.02145  23950718.542    23950733.120
  23429749.081     4610951.86349   3580180.42845  23429748.293    23429755.914
  22447804.183     6132652.39349   4766422.69546  22447803.169    22447812.963
  23343134.374    -7173559.24649  -5576780.55545  23343133.665    23343142.012
 03  6  9 21 48  0.0000000  0  8G23G14G31G25G 3G18G15G11
  21863025.931     1852288.97649   1324758.29247  21863024.992    21863032.455
  20388788.665      400776.34049    309681.45148  20388787.806    20388793.364
  23415654.549     2947157.12049   2284575.20745  23415653.700    23415665.440
  22689389.288    -8103795.75449  -6303124.23046  22689388.773    22689399.293
  23966015.100     5182352.41149   4027080.71945  23966014.354    23966029.010
  23443364.166     4682499.51849   3635931.77445  23443363.377    23443370.927
  22466830.602     6232636.10949   4844331.98446  22466829.488    22466839.289
  23326349.876    -7261761.88449  -5645509.79045  23326349.214    23326357.538
 03  6  9 21 48 30.0000000  0  8G23G14G31G25G 3G18G15G11
  21869805.287     1887914.43149   1352518.37447  21869804.350    21869811.836
  20394192.041      429171.14649    331807.27247  20394191.175    20394196.711
  23427111.924     3007365.20549   2331490.45045  23427111.028    23427122.912
  22671761.086    -8196432.80149  -6375308.72146  22671760.397    22671770.778
  23981330.869     5262836.17049   4089795.06445  23981329.960    23981345.067
  23457002.157     4754166.74249   3691776.30445  23457001.315    23457008.760
  22485912.344     6332910.70149   4922467.91846  22485911.257    22485920.933
  23309614.215    -7349708.08749  -5714039.18445  23309613.571    23309621.788
 03  6  9 21 49  0.0000000  0  8G23G14G31G25G 3G18G15G11
  21876612.060     1923684.45449   1380391.11047  21876611.127    21876618.638
  20399669.495      457955.46149    354236.60148  20399668.643    20399674.211
  23438632.353     3067904.67549   2378663.91645  23438631.472    23438643.294
  22654175.040    -8288847.13049  -6447319.66746  22654174.402    22654184.725
  23996665.963     5343421.79649   4152588.79145  23996665.074    23996680.185
  23470662.769     4825953.59649   3747714.06145  23470661.958    23470669.471
  22505048.956     6433473.84749   5000828.69546  22505047.879    22505057.618
  23292927.821    -7437395.73249  -5782367.13046  23292927.122    23292935.293
 03  6  9 21 49 30.0000000  0  8G23G14G31G25G 3G18G15G11
  21883446.498     1959599.77349   1408377.06347  21883445.626    21883453.127
  20405220.957      487128.40649    376968.76348  20405220.070    20405225.659
  23450215.356     3128773.10649   2426093.70745  23450214.163    23450226.136
  22636631.933    -8381035.54149  -6519154.57746  22636631.407    22636641.691
  24012019.979     5424106.58749   4215459.78045  24012019.394    24012033.989
  23484346.158     4897860.42849   3803745.28445  23484345.226    23484352.691
  22524240.136     6534323.91449   5079413.04846  22524239.064    22524249.005
  23276291.117    -7524821.96749  -5850491.37545  23276290.490    23276298.603
 03  6  9 21 50  0.0000000  0  8G23G14G31G25G 3G18G15G11
  21890308.784     1995660.97849   1436476.69047  21890307.875    21890315.390
  20410845.911      516687.98749    400002.19448  20410845.036    20410850.655
  23461860.392     3189967.74749   2473777.68745  23461859.322    23461871.323
  22619132.338    -8472995.61549  -6590811.56146  22619131.792    22619142.067
  24027392.382     5504887.66049   4278405.77945  24027391.723    24027406.380
  23498052.546     4969887.65949   3859870.32145  23498051.658    23498059.170
  22543485.585     6635459.14749   5158219.59746  22543484.520    22543494.502
  23259704.458    -7611984.30849  -5918409.99146  23259703.842    23259711.993
 03  6  9 21 50 30.0000000  0  8G23G14G31G25G 3G18G15G11
  21897198.782     2031868.24849   1464690.13347  21897197.855    21897205.375
  20416544.125      546632.30849    423335.42948  20416543.261    20416548.861
  23473566.956     3251485.46449   2521713.40145  23473565.938    23473577.839
  22601676.721    -8564724.71149  -6662288.55046  22601676.145    22601686.360
  24042782.395     5585761.78149   4341424.29045  24042781.768    24042796.475
  23511781.720     5042034.69049   3916088.72645  23511780.853    23511788.366
  22562784.835     6736877.04149   5237246.39546  22562783.810    22562793.811
  23243168.454    -7698880.86549  -5986121.49846  23243167.860    23243176.075
 03  6  9 21 51  0.0000000  0  8G23G14G31G25G 3G18G15G11
  21904116.638     2068221.85849   1493017.60947  21904115.736    21904123.271
  20422315.244      576959.67149    446967.13748  20422314.366    20422320.008
  23485334.391     3313323.28749   2569898.55745  23485333.422    23485345.374
  22584265.550    -8656220.16249  -6733583.49546  22584265.009    22584275.181
  24058189.598     5666726.11249   4404513.09545  24058188.952    24058203.670
  23525533.621     5114301.63849   3972400.56845  23525532.793    23525540.385
  22582137.577     6838575.33849   5316491.70646  22582136.452    22582146.453
  23226683.664    -7785509.05049  -6053623.87346  23226683.052    23226691.276
 03  6  9 21 51 30.0000000  0  8G23G14G31G25G 3G18G15G11
  21911062.507     2104722.45749   1521459.61347  21911061.608    21911069.110
  20428158.916      607668.51049    470896.09548  20428158.070    20428163.698
  23497162.254     3375478.78349   2618331.25145  23497161.343    23497173.292
  22566899.316    -8747479.39349  -6804694.36246  22566898.772    22566908.909
  24073613.453     5747778.16149   4467670.23245  24073612.844    24073627.682
  23539308.330     5186688.33449   4028805.71245  23539307.536    23539315.110
  22601543.163     6940552.40249   5395954.23346  22601542.128    22601552.126
  23210250.421    -7871866.28849  -6120915.14046  23210249.779    23210257.961
 03  6  9 21 52  0.0000000  0  8G23G14G31G25G 3G18G15G11
  21918036.313     2141370.01149   1550016.13147  21918035.410    21918042.895
  20434074.824      638756.58449    495120.56848  20434073.965    20434079.552
  23509049.981     3437948.48749   2667008.77845  23509049.124    23509061.124
  22549578.607    -8838499.86249  -6875619.17446  22549577.982    22549588.104
  24089053.503     5828914.40649   4530892.97545  24089052.745    24089067.755
  23553105.972     5259194.59649   4085304.03645  23553105.105    23553112.725
  22621001.473     7042805.54249   5475631.87946  22621000.377    22621010.359
  23193869.103    -7957950.73549  -6187993.83746  23193868.419    23193876.600
 03  6  9 21 52 30.0000000  0  8G23G14G31G25G 3G18G15G11
  21925038.382     2178165.88849   1578688.21947  21925037.482    21925044.943
  20440062.618      670222.66249    519639.58448  20440061.760    20440067.357
  23520997.092     3500730.29349   2715929.49945  23520996.293    23521008.252
  22532303.804    -8929278.19449  -6946355.31146  22532303.251    22532313.371
  24104508.874     5910132.69549   4594179.66545  24104508.236    24104523.311
  23566926.355     5331821.05849   4141896.02345  23566925.497    23566933.125
  22640511.831     7145333.42649   5555523.61346  22640510.850    22640520.867
  23177540.220    -8043759.15849  -6254857.44746  23177539.483    23177547.670
 03  6  9 21 53  0.0000000  0  8G23G14G31G25G 3G18G15G11
  21932068.604     2215109.68049   1607475.57047  21932067.656    21932075.116
  20446121.908      702064.40849    544451.33548  20446121.055    20446126.659
  23533002.845     3563820.47849   2765090.51945  23533002.041    23533014.066
  22515075.483    -9019812.60949  -7016901.40046  22515074.958    22515085.009
  24119979.501     5991429.40849   4657527.45545  24119978.686    24119993.952
  23580769.472     5404566.79149   4198580.94445  23580768.613    23580776.249
  22660074.150     7248133.22649   5635627.23246  22660073.147    22660083.171
  23161264.070    -8129290.08449  -6321504.82546  23161263.361    23161271.601
 03  6  9 21 53 30.0000000  0  8G23G14G31G25G 3G18G15G11
  21939127.016     2252202.27949   1636378.87847  21939126.079    21939133.642
  20452252.432      734280.57049    569554.83848  20452251.571    20452257.176
  23545066.942     3627216.76749   2814490.04045  23545066.079    23545078.047
  22497894.211    -9110099.85749  -7087254.88646  22497893.663    22497903.689
  24135464.329     6072802.01849   4720934.38745  24135463.666    24135478.876
  23594635.337     5477432.44049   4255359.30245  23594634.584    23594642.187
  22679687.907     7351203.39649   5715941.51846  22679686.809    22679696.915
  23145041.429    -8214540.59449  -6387933.70546  23145040.752    23145048.941
 03  6  9 21 54  0.0000000  0  8G23G14G31G25G 3G18G15G11
  21946213.902     2289443.94249   1665398.33247  21946212.953    21946220.503
  20458453.773      766868.93649    594948.36648  20458452.928    20458458.525
  23557188.645     3690915.99849   2864125.64045  23557187.788    23557199.730
  22480760.321    -9200137.76249  -7157414.09846  22480759.824    22480769.789
  24150963.057     6154247.31949   4784397.95445  24150962.356    24150977.679
  23608524.105     5550417.75449   4312230.92545  23608523.319    23608530.944
  22699352.612     7454541.61849   5796464.68646  22699351.536    22699361.626
  23128872.514    -8299508.57749  -6454142.42946  23128871.775    23128879.990
 03  6  9 21 54 30.0000000  0  8G23G14G31G25G 3G18G15G11
  21953329.219     2326834.95649   1694534.16247  21953328.267    21953335.769
  20464725.698      799828.04849    620630.78348  20464724.856    20464730.477
  23569367.432     3754915.35349   2913995.09245  23569366.607    23569378.499
  22463674.572    -9289923.28349  -7227376.64146  22463674.022    22463683.910
  24166475.081     6235762.59549   4847916.05945  24166474.437    24166489.787
  23622435.628     5623522.72149   4369195.76345  23622434.709    23622442.416
  22719067.904     7558145.75049   5877195.04746  22719066.867    22719076.972
  23112757.810    -8384191.57349  -6520129.09246  23112757.081    23112765.232
 03  6  9 21 55  0.0000000  0  8G23G14G31G25G 3G18G15G11
  21960473.012     2364375.86249   1723786.78947  21960472.101    21960479.610
  20471067.805      833156.18649    646600.75148  20471066.955    20471072.616
  23581602.639     3819211.84249   2964096.06745  23581601.827    23581613.928
  22446637.272    -9379453.91049  -7297140.56046  22446636.747    22446646.582
  24182000.170     6317345.02549   4911486.46745  24181999.299    24182014.705
  23636369.728     5696747.40049   4426253.88945  23636368.862    23636376.645
  22738833.399     7662013.42049   5958130.75246  22738832.324    22738842.458
  23096697.805    -8468587.20049  -6585891.84046  23096697.109    23096705.182
 03  6  9 21 55 30.0000000  0  8G23G14G31G25G 3G18G15G11
  21967645.479     2402067.08649   1753156.55047  21967644.556    21967652.051
  20477479.777      866851.36249    672856.72548  20477478.946    20477484.579
  23593894.124     3883802.65849   3014426.39845  23593893.178    23593905.309
  22429649.071    -9468727.08149  -7366703.87046  22429648.488    22429658.268
  24197536.964     6398991.57549   4975106.85445  24197536.244    24197551.927
  23650326.797     5770091.66149   4483405.20045  23650325.969    23650333.701
  22758648.603     7766142.71749   6039270.33046  22758647.576    22758657.699
  23080692.885    -8552693.06149  -6651428.80046  23080692.200    23080700.288
 03  6  9 21 56  0.0000000  0  8G23G14G31G25G 3G18G15G11
  21974846.743     2439909.97349   1782644.49547  21974845.791    21974853.341
  20483961.421      900912.46049    699397.83248  20483960.579    20483966.211
  23606241.024     3948685.63149   3064984.35945  23606240.149    23606252.396
  22412710.442    -9557739.29749  -7436063.84046  22412709.874    22412719.610
  24213085.922     6480700.12449   5038775.54245  24213085.109    24213100.976
  23664306.688     5843556.17049   4540650.19445  23664305.911    23664313.532
  22778513.475     7870532.29649   6120612.72746  22778512.414    22778522.586
  23064743.737    -8636506.12949  -6716737.60146  23064743.011    23064751.037
 03  6  9 21 56 30.0000000  0  8G23G14G31G25G 3G18G15G11
  21982076.635     2477903.36149   1812249.70547  21982075.716    21982083.299
  20490512.074      935336.37849    726221.65748  20490511.224    20490516.868
  23618642.684     4013856.19549   3115766.43845  23618641.884    23618654.128
  22395821.671    -9646489.54949  -7505219.68846  22395821.106    22395830.777
  24228645.677     6562466.21749   5102489.09045  24228645.007    24228660.902
  23678309.266     5917139.27649   4597987.61745  23678308.468    23678316.054
  22798426.989     7975178.27349   6202154.92046  22798425.958    22798436.172
  23048850.511    -8720025.24349  -6781817.35746  23048849.773    23048857.797
 03  6  9 21 57  0.0000000  0  8G23G14G31G25G 3G18G15G11
  21989335.593     2516049.29249   1841973.78247  21989334.670    21989342.276
  20497131.727      970122.76149    753327.92448  20497130.862    20497136.480
  23631098.861     4079313.13449   3166771.64945  23631098.071    23631110.334
  22378983.534    -9734973.68449  -7574168.17546  22378983.003    22378992.621
  24244216.173     6644288.38949   5166246.32445  24244215.448    24244231.449
  23692334.596     5990842.56449   4655418.68545  23692333.839    23692341.435
  22818389.184     8080080.20149   6283896.52946  22818388.208    22818398.480
  23033013.897    -8803246.62449  -6846665.09646  23033013.177    23033021.211
 03  6  9 21 57 30.0000000  0  8G23G14G31G25G 3G18G15G11
  21996623.428     2554347.09849   1871816.20047  21996622.515    21996630.125
  20503819.812     1005268.86849    780714.49448  20503818.981    20503824.586
  23643608.650     4145052.47149   3217996.93945  23643607.931    23643620.287
  22362196.399    -9823189.79749  -7642907.81846  22362195.884    22362205.438
  24259796.644     6726162.82849   5230044.28045  24259795.912    24259811.905
  23706382.569     6064665.19549   4712942.75545  23706381.813    23706389.614
  22838399.645     8185235.09949   6365835.27446  22838398.645    22838408.993
  23017234.279    -8886169.08949  -6911279.93546  23017233.601    23017241.487
 03  6  9 21 58  0.0000000  0  8G23G14G31G25G 3G18G15G11
  22003940.369     2592797.75749   1901777.72247  22003939.440    22003947.055
  20510576.078     1040773.22349    808380.21348  20510575.234    20510580.880
  23656171.993     4211071.74149   3269440.32845  23656171.173    23656183.544
  22345460.862    -9911134.92149  -7711436.30846  22345460.350    22345469.827
  24275386.485     6808087.06249   5293881.03345  24275385.859    24275401.863
  23720453.277     6138607.48549   4770560.04845  23720452.571    23720460.387
  22858457.814     8290641.00049   6447969.59046  22858456.839    22858467.211
  23001512.142    -8968789.50649  -6975659.38746  23001511.405    23001519.301
 03  6  9 21 58 30.0000000  0  8G23G14G31G25G 3G18G15G11
  22011286.464     2631401.64549   1931858.65147  22011285.544    22011293.153
  20517400.135     1076633.90649    836323.59048  20517399.290    20517404.935
  23668787.881     4277367.80449   3321099.41545  23668787.039    23668799.462
  22328777.281    -9998806.90849  -7779751.96546  22328776.810    22328786.200
  24290985.404     6890058.28349   5357754.39945  24290984.690    24291000.710
  23734546.894     6212669.37349   4828270.54245  23734546.076    23734553.995
  22878563.319     8396295.68049   6530297.76446  22878562.331    22878572.771
  22985847.746    -9051105.90649  -7039801.96246  22985847.030    22985854.921
 03  6  9 21 59  0.0000000  0  8G23G14G31G25G 3G18G15G11
  22018661.773     2670159.16549   1962059.29647  22018660.848    22018668.494
  20524291.681     1112849.20149    864543.28948  20524290.849    20524296.454
  23681455.874     4343937.79649   3372971.93545  23681455.019    23681467.496
  22312146.314   -10086202.85949  -7847852.53247  22312145.773    22312155.100
  24306592.558     6972073.67949   5421662.20045  24306591.867    24306608.120
  23748663.042     6286850.62649   4886074.05645  23748662.343    23748670.300
  22898715.753     8502196.95549   6612818.08746  22898714.730    22898725.209
  22970241.621    -9133115.67249  -7103705.60046  22970240.933    22970248.887
 03  6  9 21 59 30.0000000  0  8G23G14G31G25G 3G18G15G11
  22026066.521     2709071.09949   1992380.26047  22026065.592    22026073.219
  20531250.470     1149417.81649    893038.30248  20531249.642    20531255.266
  23694175.501     4410779.17649   3425055.93245  23694174.665    23694187.151
  22295568.330   -10173319.57749  -7915735.52447  22295567.860    22295577.176
  24322207.827     7054130.65349   5485602.38345  24322206.966    24322223.396
  23762802.175     6361151.66249   4943970.89245  23762801.465    23762809.386
  22918914.764     8608343.15149   6695529.26346  22918913.726    22918924.290
  22954694.411    -9214816.37149  -7167368.40546  22954693.756    22954701.681
 03  6  9 22  0  0.0000000  0  8G23G14G31G25G 3G18G15G11
  22033500.592     2748137.57749   2022821.64747  22033499.676    22033507.344
  20538276.063     1186337.40349    921806.79748  20538275.228    20538280.846
  23706946.162     4477888.50449   3477348.72645  23706945.343    23706957.789
  22279043.973   -10260155.24249  -7983399.51147  22279043.430    22279052.716
  24337830.076     7136225.88449   5549572.39945  24337829.381    24337845.946
  23776963.879     6435571.94649   5001960.64845  23776963.191    23776971.130
  22939159.934     8714731.79749   6778429.34846  22939158.941    22939169.515
  22939206.447    -9296206.20049  -7230788.98446  22939205.788    22939213.622
 03  6  9 22  0 30.0000000  0  8G23G14G31G25G 3G18G15G11
  22040964.150     2787358.72549   2053383.55347  22040963.239    22040970.923
  20545368.012     1223605.79549    950847.09248  20545367.188    20545372.792
  23719767.212     4545262.50149   3529847.74045  23719766.288    23719778.800
  22262573.358   -10346707.83049  -8050842.92547  22262572.862    22262582.155
  24353459.351     7218356.39749   5613569.88745  24353458.581    24353475.053
  23791148.356     6510111.30949   5060043.20245  23791147.642    23791155.549
  22959450.706     8821360.14249   6861516.21546  22959449.743    22959460.373
  22923778.095    -9377282.27949  -7293965.08546  22923777.489    22923785.229
 03  6  9 22  1  0.0000000  0  8G23G14G31G25G 3G18G15G11
  22048457.477     2826736.19549   2084067.27547  22048456.551    22048464.231
  20552526.197     1261222.36649    980158.69548  20552525.383    20552530.995
  23732638.333     4612899.49449   3582551.67045  23732637.427    23732649.940
  22246157.504   -10432973.10749  -8118062.46347  22246157.006    22246166.279
  24369094.923     7300520.53649   5677593.58845  24369094.196    24369110.612
  23805355.540     6584770.72649   5118219.28545  23805354.855    23805362.898
  22979786.977     8928227.20349   6944789.09346  22979785.965    22979796.587
  22908410.113    -9458041.48649  -7356894.28046  22908409.478    22908417.161
 03  6  9 22  1 30.0000000  0  8G23G14G31G25G 3G18G15G11
  22055980.415     2866269.39049   2114872.33747  22055979.503    22055987.126
  20559750.084     1299184.06249   1009739.23048  20559749.242    20559754.869
  23745558.491     4680795.24849   3635457.27545  23745557.652    23745570.298
  22229796.559   -10518949.95249  -8185057.25547  22229796.003    22229805.241
  24384736.061     7382714.12249   5741640.23645  24384735.309    24384751.846
  23819585.474     6659548.92149   5176487.92945  23819584.774    23819592.602
  23000168.013     9035329.73449   7028245.44546  23000167.035    23000177.721
  22893102.571    -9538482.74549  -7419575.72146  22893101.946    22893109.623
 03  6  9 22  2  0.0000000  0  8G23G14G31G25G 3G18G15G11
  22063533.097     2905958.77049   2145799.11347  22063532.174    22063539.806
  20567039.278     1337489.13149   1039587.33348  20567038.446    20567044.105
  23758527.527     4748946.77749   3688562.15645  23758526.664    23758539.289
  22213491.008   -10604635.46249  -8251825.02947  22213490.451    22213499.647
  24400382.460     7464934.47649   5805707.75645  24400381.597    24400398.067
  23833837.941     6734446.16449   5234849.33145  23833837.268    23833845.229
  23020593.487     9142665.64049   7111883.66746  23020592.515    23020603.176
  22877856.028    -9618603.60149  -7482007.47746  22877855.410    22877863.097
 03  6  9 22  2 30.0000000  0  8G23G14G31G25G 3G18G15G11
  22071115.605     2945805.06249   2176848.14347  22071114.695    22071122.284
  20574393.549     1376136.01349   1069701.77348  20574392.714    20574398.372
  23771544.560     4817351.45949   3741864.30945  23771543.823    23771556.557
  22197241.338   -10690027.17049  -8318363.88847  22197240.830    22197249.981
  24416033.086     7547178.59249   5869793.77345  24416032.313    24416048.930
  23848113.237     6809462.46249   5293303.52145  23848112.475    23848120.501
  23041062.986     9250232.62749   7195701.95746  23041061.954    23041072.620
  22862671.061    -9698401.32649  -7544187.46646  22862670.403    22862678.028
 03  6  9 22  3  0.0000000  0  8G23G14G31G25G 3G18G15G11
  22078728.068     2985808.52949   2208019.65047  22078727.115    22078734.707
  20581812.422     1415122.56949   1100080.89448  20581811.578    20581817.262
  23784609.246     4886006.05549   3795361.18945  23784608.429    23784621.267
  22181048.105   -10775122.56449  -8384671.84747  22181047.601    22181056.701
  24431687.906     7629443.84249   5933896.25845  24431687.135    24431703.741
  23862410.979     6884597.41349   5351850.14945  23862410.277    23862418.179
  23061576.026     9358028.48249   7279698.56446  23061574.953    23061585.629
  22847547.879    -9777873.85549  -7606114.06046  22847547.212    22847554.797
 03  6  9 22  3 30.0000000  0  8G23G14G31G25G 3G18G15G11
  22086370.527     3025970.08849   2239314.35047  22086369.614    22086377.222
  20589295.697     1454447.67649   1130723.82148  20589294.888    20589300.562
  23797721.033     4954908.16549   3849050.92845  23797720.171    23797733.106
  22164911.804   -10859918.37249  -8450746.38147  22164911.362    22164920.434
  24447346.286     7711727.75549   5998013.29045  24447345.415    24447362.138
  23876731.437     6959851.86549   5410489.90745  23876730.663    23876738.648
  23082132.193     9466051.25949   7363871.99646  23082131.193    23082141.824
  22832487.127    -9857018.45249  -7667785.12146  22832486.449    22832493.950
 03  6  9 22  4  0.0000000  0  8G23G14G31G25G 3G18G15G11
  22094043.244     3066290.12349   2270732.53147  22094042.303    22094049.887
  20596843.051     1494109.24649   1161628.92448  20596842.243    20596847.937
  23810879.263     5024054.51149   3902930.99345  23810878.441    23810891.416
  22148833.102   -10944412.42149  -8516585.76247  22148832.563    22148841.598
  24463007.550     7794027.31749   6062142.51845  24463006.752    24463023.482
  23891074.724     7035225.44949   5469222.47445  23891073.953    23891081.879
  23102731.198     9574298.80449   7448220.56246  23102730.123    23102740.769
  22817489.262    -9935832.73549  -7729198.80346  22817488.601    22817495.999
 03  6  9 22  4 30.0000000  0  8G23G14G31G25G 3G18G15G11
  22101746.077     3106768.78049   2302274.31547  22101745.110    22101752.720
  20604454.020     1534105.07449   1192794.48848  20604453.194    20604458.901
  23824083.548     5093441.86749   3956998.84045  23824082.640    23824095.566
  22132812.155   -11028602.34649  -8582188.18047  22132811.643    22132820.650
  24478671.184     7876339.47449   6126281.56445  24478670.569    24478687.310
  23905440.466     7110717.75649   5528047.56745  23905439.678    23905447.700
  23123372.547     9682768.79049   7532742.45746  23123371.363    23123382.105
  22802554.512   -10014314.99249  -7790353.74746  22802553.870    22802561.324
 03  6  9 22  5  0.0000000  0  8G23G14G31G25G 3G18G15G11
  22109479.265     3147407.09549   2333940.51047  22109478.336    22109485.988
  20612128.337     1574433.97949   1224219.59448  20612127.511    20612133.281
  23837332.991     5163067.91249   4011252.68645  23837332.178    23837345.054
  22116849.645   -11112485.18249  -8647551.29947  22116849.174    22116858.123
  24494336.824     7958661.97449   6190428.65345  24494336.174    24494353.132
  23919829.005     7186329.35249   5586965.61445  23919828.177    23919836.147
  23144055.709     9791459.65349   7617436.48446  23144054.654    23144065.476
  22787683.564   -10092461.88849  -7851247.37946  22787682.906    22787690.441
 03  6  9 22  5 30.0000000  0  8G23G14G31G25G 3G18G15G11
  22117242.908     3188205.23249   2365731.23247  22117241.942    22117249.617
  20619865.670     1615093.87149   1255902.61448  20619864.854    20619870.620
  23850627.429     5232929.29249   4065689.91845  23850626.544    23850639.450
  22100946.051   -11196058.69849  -8712673.39447  22100945.554    22100954.458
  24510004.001     8040991.88749   6254581.52845  24510003.317    24510020.384
  23934240.105     7262059.94449   5645976.38045  23934239.290    23934247.202
  23164780.366     9900368.44649   7702300.31546  23164779.417    23164790.320
  22772876.840   -10170271.68149  -7911878.33646  22772876.176    22772883.678
 03  6  9 22  6  0.0000000  0  8G23G14G31G25G 3G18G15G11
  22125037.074     3229164.03349   2397647.15947  22125036.146    22125043.848
  20627665.670     1656083.00649   1287842.19048  20627664.855    20627670.616
  23863965.982     5303023.15649   4120308.29145  23863965.060    23863977.999
  22085101.888   -11279320.10049  -8777552.28247  22085101.383    22085110.211
  24525671.908     8123326.72149   6318738.22845  24525671.262    24525688.500
  23948673.808     7337909.53649   5705079.87645  23948673.019    23948681.071
  23185546.235    10009493.03449   7787332.29346  23185545.270    23185556.269
  22758134.768   -10247741.70549  -7972244.52646  22758134.092    22758141.609
 03  6  9 22  6 30.0000000  0  8G23G14G31G25G 3G18G15G11
  22132861.976     3270284.00549   2429688.65447  22132861.039    22132868.747
  20635527.936     1697399.63449   1320036.94248  20635527.132    20635532.900
  23877348.193     5373346.82149   4175105.73345  23877347.266    23877360.316
  22069317.555   -11362267.02249  -8842186.12947  22069317.030    22069325.821
  24541340.434     8205663.60749   6382896.52845  24541339.624    24541357.046
  23963130.121     7413878.36149   5764276.28145  23963129.450    23963137.656
  23206352.778    10118831.42849   7872530.87246  23206351.767    23206362.853
  22743457.714   -10324869.61549  -8032344.15346  22743457.042    22743464.519
 03  6  9 22  7  0.0000000  0  8G23G14G31G25G 3G18G15G11
  22140717.453     3311564.78649   2461855.46847  22140716.551    22140724.247
  20643452.048     1739041.04649   1352484.77948  20643451.236    20643457.012
  23890773.534     5443896.37649   4230079.18145  23890772.592    23890785.720
  22053593.437   -11444897.48749  -8906573.38347  22053592.886    22053601.615
  24557008.530     8287998.77649   6447053.50645  24557007.637    24557025.143
  23977609.272     7489965.35649   5823564.75545  23977608.398    23977616.533
  23227199.393    10228380.62349   7957893.71746  23227198.464    23227209.566
  22728846.204   -10401653.67049  -8092175.82246  22728845.498    22728853.026
 03  6  9 22  7 30.0000000  0  8G23G14G31G25G 3G18G15G11
  22148603.814     3353007.48249   2494148.44547  22148602.891    22148610.554
  20651437.778     1781006.17149   1385184.85948  20651436.968    20651442.739
  23904241.258     5514669.37249   4285226.75345  23904240.309    23904253.705
  22037930.054   -11527208.45549  -8970711.68047  22037929.519    22037938.254
  24572675.794     8370330.17049   6511207.52945  24572675.010    24572692.704
  23992110.522     7566171.10349   5882945.77445  23992109.878    23992118.127
  23248085.927    10338139.10149   8043419.63446  23248084.955    23248096.127
  22714300.597   -10478091.09149  -8151737.40446  22714299.888    22714307.453
 03  6  9 22  8  0.0000000  0  8G23G14G31G25G 3G18G15G11
  22156521.008     3394612.32349   2526567.76147  22156520.081    22156527.704
  20659484.731     1823292.99249   1418135.60848  20659483.917    20659489.665
  23917751.051     5585662.55249   4340545.86745  23917749.996    23917763.512
  22022327.872   -11609197.73549  -9034599.31347  22022327.380    22022336.081
  24588341.935     8452654.96949   6575356.42245  24588341.155    24588358.835
  24006634.699     7642495.32049   5942419.09245  24006634.032    24006642.224
  23269011.848    10448104.34749   8129106.66746  23269010.709    23269022.009
  22699821.339   -10554179.63149  -8211027.11146  22699820.601    22699828.170
 03  6  9 22  8 30.0000000  0  8G23G14G31G25G 3G18G15G11
  22164469.092     3436379.64349   2559113.69047  22164468.158    22164475.838
  20667592.474     1865899.47449   1451335.44748  20667591.654    20667597.395
  23931302.011     5656872.83449   4396034.18645  23931301.045    23931314.610
  22006787.472   -11690862.90949  -9098234.38847  22006786.928    22006795.608
  24604006.246     8534970.25249   6639497.90245  24604005.501    24604023.184
  24021181.415     7718937.98249   6001984.70745  24021180.533    24021188.898
  23289976.383    10558274.01249   8214952.98846  23289975.395    23289986.715
  22685408.937   -10629917.20649  -8270043.35346  22685408.268    22685415.726
 03  6  9 22  9  0.0000000  0  8G23G14G31G25G 3G18G15G11
  22172448.262     3478310.45749   2591787.01347  22172447.364    22172455.036
  20675760.773     1908824.17049   1484783.24248  20675759.969    20675765.708
  23944893.870     5728297.62949   4451689.64345  23944892.916    23944906.547
  21991309.254   -11772201.02249  -9161614.62147  21991308.724    21991317.346
  24619668.408     8617273.60649   6703630.08545  24619667.518    24619685.170
  24035750.655     7795499.49549   6061642.94145  24035749.757    24035758.069
  23310979.630    10668646.13649   8300957.07546  23310978.595    23310989.983
  22671063.861   -10705301.07049  -8328783.97046  22671063.169    22671070.589
 03  6  9 22  9 30.0000000  0  8G23G14G31G25G 3G18G15G11
  22180458.621     3520404.72549   2624587.69747  22180457.689    22180465.346
  20683989.247     1952065.00149   1518477.37348  20683988.443    20683994.170
  23958525.973     5799933.51549   4507509.58645  23958525.008    23958538.585
  21975893.657   -11853210.09849  -9224738.46447  21975893.106    21975901.671
  24635327.607     8699561.89149   6767750.52645  24635326.757    24635344.533
  24050342.304     7872179.11549   6121393.20545  24050341.435    24050349.859
  23332020.899    10779217.84749   8387116.68046  23332019.829    23332031.214
  22656786.359   -10780329.46849  -8387247.59846  22656785.694    22656793.129
 03  6  9 22 10  0.0000000  0  8G23G14G31G25G 3G18G15G11
  22188500.231     3562663.73849   2657516.76647  22188499.331    22188507.035
  20692277.624     1995620.32049   1552416.56748  20692276.805    20692282.506
  23972197.642     5871778.12249   4563492.17345  23972196.743    23972210.487
  21960541.200   -11933887.18149  -9287603.61247  21960540.664    21960549.210
  24650983.428     8781832.98649   6831857.58345  24650982.680    24651000.518
  24064956.668     7948977.44549   6181235.95845  24064955.707    24064964.303
  23353099.641    10889987.85949   8473430.79545  23353098.746    23353110.177
  22642577.077   -10854999.30049  -8445431.82946  22642576.461    22642583.928
 03  6  9 22 10 30.0000000  0  8G23G14G31G25G 3G18G15G11
  22196573.300     3605087.66049   2690574.31947  22196572.363    22196580.029
  20700625.473     2039488.31749   1586599.40348  20700624.656    20700630.354
  23985908.502     5943828.03149   4619634.71645  23985907.542    23985921.218
  21945252.333   -12014230.21649  -9350208.47247  21945251.828    21945260.328
  24666635.457     8864083.64549   6895948.69245  24666634.574    24666652.516
  24079593.372     8025894.07949   6241170.91245  24079592.525    24079601.102
  23374215.936    11000953.46849   8559897.32145  23374214.987    23374226.442
  22628436.488   -10929308.51049  -8503335.05846  22628435.879    22628443.285
 03  6  9 22 11  0.0000000  0  8G23G14G31G25G 3G18G15G11
  22204677.740     3647676.78649   2723760.61747  22204676.812    22204684.498
  20709032.398     2083666.92549   1621024.27348  20709031.566    20709037.275
  23999657.796     6016080.29649   4675934.95845  23999656.852    23999670.655
  21930027.567   -12094236.72249  -9412551.09547  21930027.008    21930035.494
  24682282.923     8946310.96749   6960021.62445  24682282.091    24682300.129
  24094252.771     8102928.81849   6301197.89445  24094251.866    24094260.454
  23395368.953    11112112.24049   8646514.36245  23395367.953    23395379.408
  22614364.882   -11003255.32549  -8560955.91446  22614364.242    22614371.605
 03  6  9 22 11 30.0000000  0  8G23G14G31G25G 3G18G15G11
  22212813.648     3690430.96349   2757075.51647  22212812.710    22212820.409
  20717497.944     2128153.63449   1655689.22248  20717497.125    20717502.815
  24013445.023     6088531.21949   4732389.97445  24013444.058    24013457.840
  21914867.092   -12173904.95149  -9474630.13547  21914866.584    21914875.054
  24697925.404     9028511.86049   7024073.96845  24697924.672    24697942.801
  24108934.335     8180080.93049   6361316.32545  24108933.423    24108942.020
  23416558.095    11223461.32049   8733279.68645  23416557.075    23416568.623
  22600362.510   -11076837.80749  -8618292.87046  22600361.905    22600369.255
 03  6  9 22 12  0.0000000  0  8G23G14G31G25G 3G18G15G11
  22220981.127     3733351.41649   2790519.98347  22220980.176    22220987.895
  20726021.982     2172947.57049   1690593.56748  20726021.134    20726026.868
  24027269.431     6161178.47049   4788997.99445  24027268.508    24027282.368
  21899771.712   -12253231.37549  -9536442.83947  21899771.194    21899779.624
  24713562.629     9110684.25749   7088104.09145  24713561.907    24713580.151
  24123638.557     8257351.49049   6421527.05145  24123637.673    24123646.252
  23437783.155    11334999.08749   8820192.05145  23437782.111    23437793.758
  22586430.144   -11150052.71449  -8675343.40546  22586429.570    22586436.928
 03  6  9 22 12 30.0000000  0  8G23G14G31G25G 3G18G15G11
  22229180.363     3776438.81449   2824094.54147  22229179.429    22229187.231
  20734604.091     2218046.90449   1725735.88248  20734603.243    20734609.037
  24041130.856     6234019.32949   4845756.86145  24041129.902    24041143.817
  21884741.754   -12332213.69549  -9597987.41047  21884741.249    21884749.662
  24729193.735     9192825.52149   7152109.95345  24729193.045    24729211.311
  24138365.176     8334740.50049   6481830.08945  24138364.438    24138373.028
  23459043.621    11446723.35249   8907249.72345  23459042.662    23459054.294
  22572568.250   -11222897.58749  -8732105.61046  22572567.637    22572574.970
 03  6  9 22 13  0.0000000  0  8G23G14G31G25G 3G18G15G11
  22237411.453     3819693.13949   2857799.16247  22237410.521    22237418.265
  20743243.860     2263449.27549   1761114.33048  20743243.042    20743248.856
  24055028.274     6307050.15049   4902663.76245  24055027.481    24055041.269
  21869777.694   -12410850.02249  -9659262.37547  21869777.189    21869785.584
  24744818.524     9274932.72149   7216089.29345  24744817.788    24744836.097
  24153114.343     8412247.17249   6542224.78645  24153113.537    24153122.052
  23480339.185    11558631.47549   8994450.66345  23480338.270    23480349.856
  22558776.973   -11295371.04149  -8788578.40046  22558776.344    22558783.656
 03  6  9 22 13 30.0000000  0  8G23G14G31G25G 3G18G15G11
  22245674.508     3863115.59749   2891634.81247  22245673.581    22245681.350
  20751941.093     2309153.43749   1796727.94648  20751940.251    20751946.054
  24068961.573     6380268.53449   4959716.80645  24068960.635    24068974.526
  21854880.026   -12489137.56549  -9720265.56247  21854879.472    21854887.860
  24760436.467     9357003.67949   7280040.38745  24760435.696    24760453.991
  24167885.827     8489871.83149   6602711.43045  24167884.981    24167893.512
  23501669.343    11670721.78349   9081793.57345  23501668.403    23501680.109
  22545056.888   -11367470.10849  -8844759.44846  22545056.302    22545063.663
 03  6  9 22 14  0.0000000  0  8G23G14G31G25G 3G18G15G11
  22253969.527     3906705.96749   2925601.28847  22253968.598    22253976.415
  20760695.283     2355156.92349   1832574.79648  20760694.450    20760700.245
  24082929.737     6453670.86249   5016913.18145  24082928.776    24082942.739
  21840049.068   -12567074.22749  -9780995.33647  21840048.529    21840056.912
  24776046.771     9439035.01049   7343960.60945  24776046.089    24776064.392
  24182679.703     8567613.76649   6663289.44945  24182678.919    24182687.396
  23523033.851    11782991.47049   9169276.24445  23523032.744    23523044.455
  22531408.390   -11439193.20549  -8900647.53446  22531407.781    22531415.163
 03  6  9 22 14 30.0000000  0  8G23G14G31G25G 3G18G15G11
  22262296.622     3950465.05549   2959699.23047  22262295.703    22262303.517
  20769506.109     2401458.21449   1868653.70348  20769505.281    20769511.109
  24096932.390     6527254.50149   5074250.83245  24096931.471    24096945.456
  21825285.365   -12644657.62849  -9841449.85147  21825284.810    21825293.192
  24791649.169     9521024.22749   7407847.99745  24791648.408    24791666.670
  24197496.144     8645473.55249   6723959.30945  24197495.422    24197503.751
  23544432.015    11895438.38249   9256897.01645  23544430.870    23544442.591
  22517831.999   -11510537.54149  -8956240.49046  22517831.350    22517838.761
 03  6  9 22 15  0.0000000  0  8G23G14G31G25G 3G18G15G11
  22270655.939     3994393.21749   2993928.92747  22270655.006    22270662.858
  20778373.248     2448055.40149   1904963.17848  20778372.432    20778378.297
  24110969.045     6601016.22949   5131727.25845  24110968.023    24110982.111
  21810589.291   -12721885.59449  -9901627.39947  21810588.764    21810597.121
  24807242.787     9602968.74849   7471700.57545  24807242.113    24807260.531
  24212334.649     8723450.96749   6784720.84845  24212334.010    24212342.384
  23565863.396    12008060.35249   9344654.18145  23565862.293    23565874.033
  22504328.050   -11581501.04749  -9011536.69246  22504327.388    22504334.768
 03  6  9 22 15 30.0000000  0  7G23G14G31G25G18G15G11
  22279048.176     4038494.54549   3028293.55847  22279047.237    22279055.067
  20787297.020     2494950.08149   1941504.46948  20787296.204    20787302.063
  24125039.470     6674956.61449   5189342.89845  24125038.583    24125052.730
  21795962.024   -12798751.99149  -9961523.20947  21795961.510    21795969.852
  24227196.625     8801549.56449   6845576.78745  24227195.851    24227204.074
  23587328.228    12120858.50349   9432548.64945  23587327.233    23587339.032
  22490897.668   -11652077.96249  -9066531.65746  22490897.036    22490904.359
 03  6  9 22 16  0.0000000  0  7G23G14G31G25G18G15G11
  22287473.104     4082767.87649   3062792.21047  22287472.194    22287480.095
  20796276.802     2542138.93249   1978274.98148  20796275.978    20796281.836
  24139143.196     6749070.93749   5247094.05645  24139142.279    24139156.486
  21781403.727   -12875256.13049 -10021136.74147  21781403.188    21781411.485
  24242080.815     8879767.24749   6906525.54145  24242080.167    24242088.576
  23608825.878    12233828.74949   9520577.19345  23608824.990    23608836.779
  22477541.021   -11722267.69749  -9121224.92546  22477540.362    22477547.672
 03  6  9 22 16 30.0000000  0  7G23G14G31G25G18G15G11
  22295930.077     4127209.28849   3097421.84547  22295929.120    22295937.065
  20805311.363     2589615.72649   2015269.86748  20805310.533    20805316.429
  24153278.490     6823351.79949   5304975.01445  24153277.664    24153291.964
  21766913.947   -12951400.19949 -10080469.70147  21766913.420    21766921.691
  24256987.424     8958099.66349   6967563.63645  24256986.578    24256994.819
  23630355.028    12346964.34749   9608734.57345  23630354.076    23630365.927
  22464257.601   -11792072.36349  -9175618.13146  22464256.928    22464264.276
 03  6  9 22 17  0.0000000  0  7G23G14G31G25G18G15G11
  22304419.339     4171820.66149   3132183.90247  22304418.382    22304426.279
  20814400.593     2637379.85749   2052488.64748  20814399.771    20814405.685
  24167445.146     6897797.78149   5362984.61245  24167444.446    24167458.692
  21752493.425   -13027180.42149 -10139519.13847  21752492.883    21752501.103
  24271915.405     9036548.20949   7028692.28445  24271914.733    24271923.364
  23651915.439    12460264.43849   9697020.13445  23651914.500    23651926.396
  22451048.133   -11861488.34349  -9229708.47346  22451047.473    22451054.810
 03  6  9 22 17 30.0000000  0  7G23G14G31G25G18G15G11
  22312941.167     4216603.06349   3167079.23747  22312940.223    22312948.168
  20823544.319     2685430.16349   2089930.41848  20823543.491    20823549.359
  24181642.778     6972406.18949   5421120.77245  24181641.957    24181656.351
  21738142.680   -13102593.62549 -10198282.59847  21738142.167    21738150.355
  24286866.127     9115113.29249   7089911.68145  24286865.402    24286873.950
  23673506.932    12573727.38649   9785432.58145  23673505.962    23673517.917
  22437913.146   -11930512.84349  -9283493.76246  22437912.486    22437919.799
 03  6  9 22 18  0.0000000  0  7G23G14G31G25G18G15G11
  22321495.627     4261556.95749   3202108.20446  22321494.671    22321502.670
  20832742.132     2733764.93049   2127593.84548  20832741.283    20832747.151
  24195870.812     7047174.01449   5479381.16045  24195869.926    24195884.453
  21723862.106   -13177638.32949 -10256758.91147  21723861.564    21723869.729
  24301838.663     9193794.64349   7151221.73045  24301837.918    24301846.658
  23695128.732    12687350.75949   9873970.03845  23695127.904    23695139.909
  22424853.108   -11999143.83749  -9336972.43046  22424852.428    22424859.639
 03  6  9 22 18 30.0000000  0  7G23G14G31G25G18G15G11
  22330082.913     4306683.18249   3237271.44546  22330081.985    22330089.941
  20841993.757     2782382.55349   2165477.67948  20841992.948    20841998.787
  24210128.718     7122098.69549   5537763.78145  24210127.807    24210142.333
  21709652.237   -13252311.19549 -10314945.49047  21709651.711    21709659.869
  24316833.666     9272592.67149   7212622.66145  24316832.986    24316841.562
  23716781.023    12801132.79649   9962631.10145  23716780.065    23716792.167
  22411868.374   -12067378.72249  -9390142.43246  22411867.737    22411874.962
 03  6  9 22 19  0.0000000  0  7G23G14G31G25G18G15G11
  22338703.025     4351982.02049   3272569.19546  22338702.078    22338710.052
  20851298.844     2831281.00849   2203580.33948  20851298.017    20851303.857
  24224415.884     7197176.97049   5596266.06945  24224414.995    24224429.653
  21695513.483   -13326610.38849 -10372840.89547  21695512.959    21695521.110
  24331850.468     9351507.02049   7274114.26545  24331849.901    24331858.396
  23738462.961    12915070.72549  10051413.65945  23738461.865    23738474.033
  22398959.389   -12135215.46649  -9443002.19746  22398958.743    22398965.982
 03  6  9 22 19 30.0000000  0  7G23G14G31G25G18G15G11
  22347356.185     4397454.46249   3308002.21446  22347355.298    22347363.209
  20860657.085     2880458.87749   2241900.72948  20860656.258    20860662.157
  24238731.760     7272406.26049   5654886.02545  24238730.866    24238745.475
  21681446.445   -13400532.95249 -10430442.82047  21681445.917    21681454.037
  24346889.696     9430538.06449   7335696.77045  24346889.040    24346897.681
  23760173.943    13029162.83549  10140316.33545  23760173.034    23760185.330
  22386126.823   -12202651.27849  -9495549.55846  22386126.157    22386133.320
 03  6  9 22 20  0.0000000  0  7G23G14G31G25G18G15G11
  22356042.442     4443100.97849   3343570.87746  22356041.535    22356049.524
  20870068.153     2929914.19949   2280437.31548  20870067.323    20870073.248
  24253075.673     7347783.53449   5713621.30345  24253074.756    24253089.703
  21667451.376   -13474077.11249 -10487749.89247  21667450.886    21667458.962
  24361950.905     9509685.24949   7397369.77345  24361950.312    24361958.987
  23781914.138    13143406.74449  10229337.29045  23781913.123    23781925.474
  22373370.858   -12269684.04449  -9547782.85246  22373370.178    22373377.340
 03  6  9 22 20 30.0000000  0  7G23G14G31G25G18G15G11
  22364761.852     4488921.65049   3379275.24246  22364760.978    22364768.942
  20879531.579     2979644.82149   2319188.42248  20879530.772    20879536.667
  24267447.264     7423305.31549   5772469.16745  24267446.326    24267461.191
  21653528.861   -13547240.53249 -10544760.28547  21653528.314    21653536.356
  24377034.454     9588948.52049   7459133.22745  24377033.541    24377042.385
  23803682.650    13257799.76849  10318474.42445  23803681.564    23803694.044
  22360691.870   -12336312.21849  -9599700.88446  22360691.216    22360698.465
 03  6  9 22 21  0.0000000  0  7G23G14G31G25G18G15G11
  22373514.650     4534917.62149   3415116.20946  22373513.759    22373521.774
  20889047.246     3029649.79549   2358153.29948  20889046.424    20889052.303
  24281845.828     7498969.45549   5831427.95745  24281844.908    24281859.877
  21639679.240   -13620020.36749 -10601471.78447  21639678.742    21639686.764
  24392139.948     9668328.56149   7520987.66545  24392139.164    24392148.023
  23825479.183    13372340.37349  10407726.56145  23825478.174    23825490.745
  22348090.461   -12402532.99249  -9651301.46146  22348089.819    22348097.125
 03  6  9 22 21 30.0000000  0  7G23G14G31G25G18G15G11
  22382300.786     4581088.72049   3451093.62146  22382299.906    22382307.857
  20898614.597     3079926.48649   2397329.90248  20898613.771    20898619.656
  24296270.888     7574772.20749   5890494.75145  24296269.951    24296284.993
  21625902.914   -13692415.32949 -10657883.38547  21625902.349    21625910.380
  24407267.731     9747824.35849   7582932.32045  24407266.711    24407275.576
  23847303.290    13487025.50049  10497091.28445  23847302.206    23847314.925
  22335566.933   -12468344.79949  -9702583.37646  22335566.259    22335573.531
 03  6  9 22 22  0.0000000  0  7G23G14G31G25G18G15G11
  22391120.382     4627435.89549   3487208.24946  22391119.471    22391127.472
  20908233.379     3130473.51549   2436717.16148  20908232.552    20908238.470
  24310721.678     7650710.87749   5949667.46945  24310720.848    24310735.766
  21612200.271   -13764422.76649 -10713993.00447  21612199.756    21612207.755
  24422417.348     9827436.33449   7644967.50945  24422416.463    24422425.450
  23869154.447    13601853.23049  10586567.12745  23869153.428    23869166.115
  22323121.735   -12533744.72149  -9753544.33246  22323121.075    22323128.363
 03  6  9 22 22 30.0000000  0  7G23G14G31G25G18G15G11
  22399973.625     4673959.32649   3523460.19846  22399972.721    22399980.621
  20917903.271     3181288.91149   2476313.53348  20917902.447    20917908.341
  24325197.967     7726782.33949   6008943.63545  24325197.076    24325211.946
  21598571.845   -13836040.35849 -10769798.86947  21598571.330    21598579.315
  24437589.071     9907163.84449   7707092.70945  24437588.190    24437597.243
  23891032.132    13716820.67549  10676151.82145  23891031.233    23891043.957
  22310755.223   -12598731.31449  -9804183.22946  22310754.566    22310761.810
 03  6  9 22 23  0.0000000  0  7G23G14G31G25G18G15G11
  22408860.478     4720659.94849   3559850.22646  22408859.559    22408867.501
  20927623.992     3232371.15749   2516117.83048  20927623.148    20927629.005
  24339698.706     7802983.72749   6068321.04245  24339697.887    24339712.773
  21585018.041   -13907265.97849 -10825299.30547  21585017.524    21585025.499
  24452782.829     9987007.30149   7769308.23045  24452782.100    24452790.990
  23912936.290    13831926.21349  10765844.10245  23912935.318    23912948.046
  22298467.832   -12663302.02249  -9854498.07146  22298467.182    22298474.354
 03  6  9 22 23 30.0000000  0  7G23G14G31G25G18G15G11
  22417781.068     4767537.68649   3596378.27046  22417780.174    22417788.116
  20937394.954     3283717.97649   2556128.30048  20937394.114    20937400.009
  24354223.883     7879311.94249   6127797.31145  24354222.862    24354237.819
  21571539.112   -13978098.11849 -10880493.11047  21571538.565    21571546.549
  24467998.801    10066965.98449   7831613.56245  24467997.996    24468006.706
  23934866.210    13947167.08049  10855641.89245  23934865.137    23934877.926
  22286259.937   -12727454.92449  -9904487.30946  22286259.284    22286266.490
 03  6  9 22 24  0.0000000  0  7G23G14G31G25G18G15G11
  22426735.472     4814593.12949   3633044.79746  22426734.575    22426742.507
  20947216.024     3335327.90049   2596343.78347  20947215.195    20947221.121
  24368772.266     7955763.90149   6187370.01345  24368771.390    24368786.511
  21558135.544   -14048534.03449 -10935378.16347  21558134.984    21558142.974
  24483236.424    10147040.12949   7894008.88745  24483235.529    24483244.527
  23956821.258    14062540.93749  10945543.29745  23956820.248    23956833.127
  22274131.920   -12791187.99149  -9954149.41646  22274131.270    22274138.436
 03  6  9 22 24 30.0000000  0  7G23G14G31G25G18G15G11
  22435723.833     4861827.16149   3669850.47246  22435722.912    22435730.903
  20957086.781     3387199.05249   2636762.81847  20957085.961    20957091.889
  24383343.955     8032336.85849   6247036.98345  24383342.923    24383358.083
  21544807.825   -14118571.37449 -10989952.64447  21544807.290    21544815.264
  24498496.157    10227229.79549   7956494.22945  24498495.424    24498504.288
  23978801.219    14178045.65949  11035546.67545  23978800.321    23978813.239
  22262084.250   -12854498.88349 -10003482.55646  22262083.590    22262090.776
 03  6  9 22 25  0.0000000  0  7G23G14G31G25G18G15G11
  22444746.236     4909239.89749   3706795.39246  22444745.336    22444753.329
  20967006.949     3439329.57749   2677383.96047  20967006.124    20967012.064
  24397937.807     8109027.58549   6306795.70145  24397936.969    24397952.138
  21531556.319   -14188208.26249 -11044215.09247  21531555.774    21531563.727
  24513777.687    10307534.49749   8019069.17545  24513776.856    24513785.953
  24000805.758    14293678.65349  11125649.98645  24000804.788    24000817.689
  22250117.264   -12917385.71249 -10052485.25746  22250116.634    22250123.825
 03  6  9 22 25 30.0000000  0  7G23G14G31G25G18G15G11
  22453802.809     4956832.01249   3743880.08946  22453801.876    22453809.883
  20976976.125     3491717.83749   2718205.93747  20976975.282    20976981.248
  24412553.656     8185833.25149   6366644.00145  24412552.761    24412568.070
  21518381.433   -14257442.54349 -11098163.81747  21518380.875    21518388.797
  24529081.122    10387954.08949   8081733.65645  24529080.331    24529089.408
  24022834.253    14409437.78949  11215851.58245  24022833.268    24022846.169
  22238231.421   -12979846.17949 -10101155.73646  22238230.774    22238237.913
 03  6  9 22 26  0.0000000  0  7G23G14G31G25G18G15G11
  22462893.562     5004603.96549   3781104.91646  22462892.653    22462900.676
  20986993.974     3544361.94149   2759227.27447  20986993.157    20986999.143
  24427190.843     8262750.80449   6426579.48145  24427189.848    24427205.177
  21505283.536   -14326272.23149 -11151797.27747  21505282.982    21505290.881
  24544406.502    10468488.42349   8144487.53945  24544405.671    24544414.823
  24044886.267    14525320.77449  11306149.68545  24044885.212    24044898.319
  22226427.069   -13041878.25349 -10149492.40246  22226426.435    22226433.572
 03  6  9 22 26 30.0000000  0  7G23G14G31G25G18G15G11
  22472018.548     5052555.74049   3818469.86246  22472017.636    22472025.688
  20997060.120     3597259.75549   2800446.30847  20997059.308    20997065.344
  24441848.811     8339777.00649   6486599.62645  24441847.770    24441863.072
  21492263.018   -14394695.35749 -11205113.93547  21492262.486    21492270.341
  24559753.544    10549137.04649   8207330.49145  24559752.696    24559761.778
  24066961.280    14641324.92549  11396542.18345  24066960.279    24066973.582
  22214704.574   -13103480.43349 -10197494.08846  22214703.921    22214711.018
 03  6  9 22 27  0.0000000  0  7G23G14G31G25G18G15G11
  22481178.025     5100688.83049   3855976.09546  22481177.115    22481185.170
  21007174.404     3650410.22049   2841862.20247  21007173.556    21007179.607
  24456526.772     8416909.61649   6546702.68245  24456525.849    24456541.058
  21479320.347   -14462709.22449 -11258111.69547  21479319.806    21479327.653
  24575122.564    10629900.79649   8270263.11345  24575121.777    24575130.722
  24089059.070    14757448.45549  11487027.71245  24089058.092    24089071.515
  22203064.406   -13164649.79249 -10245158.51446  22203063.749    22203070.829
 03  6  9 22 27 30.0000000  0  7G23G14G31G25G18G15G11
  22490371.780     5149002.59849   3893623.11146  22490370.930    22490379.007
  21017336.228     3703810.82149   2883473.00547  21017335.391    21017341.455
  24471224.357     8494144.64749   6606885.55745  24471223.364    24471238.678
  21466455.767   -14530312.77449 -11310789.72947  21466455.232    21466463.044
  24590513.195    10710778.68849   8333284.71045  24590512.353    24590521.506
  24111179.037    14873688.41749  11577603.96445  24111178.098    24111191.433
  22191506.840   -13225385.17349 -10292484.77047  22191506.190    22191513.235
 03  6  9 22 28  0.0000000  0  6G23G14G31G25G15G11
  22499599.554     5197494.11949   3931408.63346  22499598.672    22499606.736
  21027544.678     3757456.39749   2925274.71447  21027543.854    21027549.869
  24485940.101     8571475.87049   6667143.37145  24485939.157    24485954.708
  21453669.062   -14597507.27549 -11363149.02647  21453668.504    21453676.297
  24133320.097    14990038.82649  11668266.26545  24133319.181    24133332.563
  22180031.656   -13285687.71649 -10339473.75547  22180030.994    22180038.037
 03  6  9 22 28 30.0000000  0  6G23G14G31G25G15G11
  22508861.743     5246167.48449   3969335.86246  22508860.910    22508869.020
  21037800.016     3811348.50649   2967268.51747  21037799.185    21037805.197
  24500674.474     8648903.68049   6727476.43645  24500673.427    24500688.954
  21440961.188   -14664287.23049 -11415185.29947  21440960.662    21440968.453
  24155482.540    15106501.18849  11759015.79445  24155481.398    24155494.975
  22168639.782   -13345552.04349 -10386121.27447  22168639.141    22168646.249
 03  6  9 22 29  0.0000000  0  6G23G14G31G25G15G11
  22518159.119     5295024.92849   4007406.51246  22518158.223    22518166.343
  21048102.286     3865487.24049   3009454.49647  21048101.453    21048107.513
  24515426.702     8726427.09949   6787884.02445  24515425.764    24515441.379
  21428333.045   -14730648.48249 -11466895.31247  21428332.514    21428340.255
  24177666.198    15223075.12649  11849852.27845  24177664.930    24177678.628
  22157332.088   -13404974.33049 -10432424.34447  22157331.439    22157338.521
 03  6  9 22 29 30.0000000  0  6G23G14G31G25G15G11
  22527491.443     5344066.63649   4045620.76746  22527490.613    22527498.789
  21058451.130     3919870.73849   3051831.20447  21058450.308    21058456.421
  24530196.777     8804042.84149   6848363.53945  24530195.869    24530211.605
  21415784.814   -14796589.38849 -11518277.78147  21415784.301    21415792.041
  24199870.323    15339757.69149  11940773.40845  24199869.148    24199882.865
  22146108.830   -13463952.86549 -10478381.62647  22146108.168    22146115.321
 03  6  9 22 30  0.0000000  0  6G23G14G31G25G15G11
  22536858.949     5393292.10149   4083978.18546  22536857.998    22536866.132
  21068846.079     3974496.28049   3094396.52147  21068845.242    21068851.406
  24544983.545     8881746.87449   6908911.85745  24544982.711    24544998.541
  21403316.776   -14862109.14149 -11569332.08447  21403316.263    21403323.968
  24222094.506    15456545.45849  12031776.48945  24222093.523    24222107.184
  22134970.217   -13522486.61549 -10523992.33147  22134969.540    22134976.668
 03  6  9 22 30 30.0000000  0  6G23G14G31G25G15G11
  22546261.276     5442701.76349   4122479.15546  22546260.378    22546268.512
  21079286.710     4029361.88549   3137148.89347  21079285.874    21079292.074
  24559786.527     8959536.22649   6969526.65645  24559785.603    24559801.601
  21390929.311   -14927205.46449 -11620056.43647  21390928.828    21390936.517
  24244338.366    15573436.21749  12122859.82845  24244337.414    24244351.090
  22123916.624   -13580573.74349 -10569255.01447  22123915.962    22123923.057
 03  6  9 22 31  0.0000000  0  6G23G14G31G25G15G11
  22555698.853     5492295.84749   4161123.82046  22555697.915    22555706.033
  21089772.670     4084465.60949   3180086.82147  21089771.835    21089778.005
  24574605.232     9037407.66749   7030205.39945  24574604.365    24574620.361
  21378622.741   -14991876.66549 -11670449.53147  21378622.228    21378629.907
  24266601.359    15690427.31949  12214021.35345  24266600.322    24266614.105
  22112948.305   -13638212.45849 -10614168.28447  22112947.645    22112954.803
 03  6  9 22 31 30.0000000  0  6G23G14G31G25G15G11
  22565171.537     5542075.13549   4199912.79446  22565170.657    22565178.763
  21100303.610     4139805.90749   3223209.09147  21100302.764    21100308.912
  24589438.919     9115358.57149   7090946.09445  24589438.046    24589454.361
  21366397.533   -15056120.51749 -11720509.62847  21366397.021    21366404.665
  24288883.119    15807516.94849  12305259.63245  24288882.066    24288895.842
  22102065.664   -13695400.75249 -10658730.57147  22102065.029    22102072.206
 03  6  9 22 32  0.0000000  0  6G23G14G31G25G15G11
  22574679.572     5592040.05049   4238846.42146  22574678.626    22574686.872
  21110879.194     4195381.12949   3266514.41647  21110878.373    21110884.517
  24604287.312     9193385.99749   7151746.38945  24604286.347    24604302.798
  21354253.875   -15119935.77749 -11770235.75947  21354253.348    21354260.982
  24311183.164    15924702.57049  12396572.73045  24311181.978    24311196.006
  22091269.199   -13752136.60149 -10702940.31847  22091268.563    22091275.699
 03  6  9 22 32 30.0000000  0  6G23G14G31G25G15G11
  22584222.772     5642190.32949   4277924.48346  22584221.899    22584230.165
  21121499.051     4251188.78049   3310000.85347  21121498.221    21121504.394
  24619149.510     9271486.22049   7212603.41845  24619148.477    24619165.058
  21342192.083   -15183320.73149 -11819626.59047  21342191.568    21342199.184
  24333500.718    16041980.90649  12487958.05345  24333499.678    24333513.679
  22080559.059   -13808418.46049 -10746796.29247  22080558.437    22080565.630
 03  6  9 22 33  0.0000000  0  6G23G14G31G25G15G11
  22593801.599     5692526.72149   4317147.56546  22593800.677    22593808.991
  21132162.978     4307227.80649   3353667.57847  21132162.149    21132168.327
  24634024.968     9349656.73349   7273515.21645  24634024.130    24634040.722
  21330212.649   -15246272.88549 -11868680.17447  21330212.111    21330219.720
  24355835.515    16159350.28449  12579414.31845  24355834.586    24355848.718
  22069935.849   -13864244.03149 -10790296.72247  22069935.232    22069942.395
 03  6  9 22 33 30.0000000  0  6G23G14G31G25G15G11
  22603415.811     5743049.63049   4356515.99146  22603414.901    22603423.252
  21142870.505     4363496.18049   3397513.02447  21142869.686    21142875.861
  24648913.533     9427894.58349   7334479.49045  24648912.632    24648929.013
  21318315.892   -15308790.57249 -11917395.21447  21318315.357    21318322.972
  24378187.255    16276808.35349  12670939.70045  24378186.462    24378200.627
  22059399.743   -13919611.66249 -10833440.32347  22059399.106    22059406.223
 03  6  9 22 34  0.0000000  0  6G23G14G31G25G15G11
  22613065.514     5793759.00549   4396029.71246  22613064.591    22613072.969
  21153621.290     4419991.58849   3441535.37647  21153620.453    21153626.604
  24663813.995     9506196.24749   7395493.48045  24663813.108    24663829.552
  21306501.998   -15370872.57049 -11965770.75447  21306501.476    21306509.094
  24400555.438    16394352.21349  12762531.91745  24400554.487    24400568.858
  22048951.056   -13974520.02749 -10876226.05547  22048950.419    22048957.511
 03  6  9 22 34 30.0000000  0  6G23G14G31G25G15G11
  22622750.971     5844655.58749   4435689.30046  22622749.966    22622758.363
  21164414.993     4476712.61149   3485733.53047  21164414.161    21164420.289
  24678726.288     9584559.04949   7456555.11645  24678725.364    24678741.718
  21294771.545   -15432516.43749 -12013804.89747  21294771.027    21294778.627
  24422939.699    16511979.87549  12854189.42345  24422938.571    24422953.003
  22038590.181   -14028966.85049 -10918652.14547  22038589.542    22038596.621
 03  6  9 22 35  0.0000000  0  6G23G14G31G25G15G11
  22632471.936     5895739.87949   4475495.17046  22632471.026    22632479.460
  21175251.359     4533657.77149   3530106.33747  21175250.529    21175256.669
  24693649.518     9662980.24149   7517662.25245  24693648.592    24693665.192
  21283124.816   -15493720.27349 -12061496.16147  21283124.300    21283131.898
  24445339.380    16629688.96049  12945910.38145  24445338.124    24445352.795
  22028317.467   -14082950.35449 -10960717.21147  22028316.834    22028323.847
 03  6  9 22 35 30.0000000  0  6G23G14G31G25G15G11
  22642228.943     5947012.42049   4515447.71146  22642228.002    22642236.390
  21186129.978     4590825.23049   3574652.35947  21186129.138    21186135.354
  24708583.423     9741456.85049   7578812.55945  24708582.313    24708599.016
  21271562.217   -15554482.27649 -12108843.13647  21271561.674    21271569.252
  24467753.973    16747477.15049  13037692.96545  24467752.717    24467767.479
  22018133.298   -14136468.59049 -11002419.72247  22018132.634    22018139.656
 03  6  9 22 36  0.0000000  0  6G23G14G31G25G15G11
  22652021.755     5998474.03149   4555547.58646  22652020.852    22652029.300
  21197050.694     4648213.86549   3619370.72047  21197049.888    21197056.117
  24723527.261     9819986.34449   7640004.08645  24723526.219    24723543.154
  21260084.051   -15614800.16049 -12155844.05347  21260083.521    21260091.083
  24490183.281    16865342.52649  13129535.68945  24490182.089    24490197.048
  22008038.083   -14189519.16949 -11043757.83547  22008037.482    22008044.462
 03  6  9 22 36 30.0000000  0  6G23G14G31G25G15G11
  22661850.581     6050124.31549   4595794.48546  22661849.638    22661858.157
  21208013.036     4705821.15349   3664259.46947  21208012.229    21208018.433
  24738480.552     9898565.26049   7701234.11145  24738479.636    24738496.567
  21248690.611   -15674673.03249 -12202498.20047  21248690.068    21248697.639
  24512626.701    16983282.32349  13221436.40045  24512625.682    24512640.618
  21998032.143   -14242101.06249 -11084730.73447  21998031.470    21998038.458
 03  6  9 22 37  0.0000000  0  6G23G14G31G25G15G11
  22671715.479     6101964.56149   4636189.39646  22671714.568    22671723.118
  21219016.844     4763646.26749   3709317.94947  21219016.021    21219022.216
  24753442.809     9977191.60449   7762501.09645  24753441.889    24753458.934
  21237382.275   -15734098.35249 -12248803.60847  21237381.767    21237389.338
  24535083.790    17101294.94449  13313393.86945  24535082.865    24535098.062
  21988115.759   -14294211.63649 -11125336.37647  21988115.154    21988122.122
 03  6  9 22 37 30.0000000  0  6G23G14G31G25G15G11
  22681616.460     6153994.12449   4676731.83546  22681615.534    22681624.090
  21230061.540     4821686.28949   3754543.89547  21230060.715    21230066.893
  24768413.236    10055861.01149   7823801.64645  24768412.324    24768429.555
  21226159.369   -15793075.10149 -12294759.47247  21226158.856    21226166.433
  24557554.363    17219376.87649  13405405.34345  24557553.349    24557568.716
  21978289.315   -14345850.31949 -11165574.30547  21978288.677    21978295.625
 03  6  9 22 38  0.0000000  0  6G23G14G31G25G15G11
  22691553.696     6206214.15349   4717422.68446  22691552.755    22691561.400
  21241146.966     4879940.30749   3799936.58947  21241146.130    21241152.305
  24783391.579    10134571.37449   7885134.09545  24783390.775    24783408.134
  21215022.228   -15851600.89849 -12340363.95747  21215021.736    21215029.300
  24580038.128    17337526.22049  13497469.32845  24580036.914    24580052.203
  21968553.093   -14397014.34849 -11205442.37447  21968552.438    21968559.435
 03  6  9 22 38 30.0000000  0  6G23G14G31G25G15G11
  22701526.984     6258623.98049   4758261.42946  22701526.070    22701534.687
  21252272.617     4938405.82149   3845494.08747  21252271.778    21252277.974
  24798376.890    10213318.75649   7946495.40645  24798376.081    24798393.493
  21203971.035   -15909675.26649 -12385616.68047  21203970.507    21203978.066
  24602533.921    17455739.73149  13589583.31045  24602532.531    24602547.810
  21958907.309   -14447703.32949 -11244940.27947  21958906.665    21958913.655
 03  6  9 22 39  0.0000000  0  6G23G14G31G25G15G11
  22711536.781     6311225.59049   4799249.62646  22711535.851    22711544.520
  21263438.390     4997082.48749   3891216.11547  21263437.578    21263443.793
  24813368.963    10292101.86249   8007884.55645  24813368.172    24813385.493
  21193006.293   -15967295.06549 -12430515.18947  21193005.797    21193013.355
  24625041.361    17574016.65149  13681746.70045  24625040.170    24625055.452
  21949352.553   -14497913.66349 -11284065.20547  21949351.890    21949358.931
 03  6  9 22 39 30.0000000  0  6G23G14G31G25G15G11
  22721583.069     6364018.66349   4840387.00146  22721582.145    22721590.762
  21274643.949     5055967.91249   3937100.80947  21274643.131    21274649.366
  24828367.306    10370917.06449   8069298.69545  24828366.379    24828383.833
  21182128.355   -16024458.98949 -12475058.48047  21182127.828    21182135.368
  24647560.425    17692354.16149  13773957.30945  24647559.359    24647574.659
  21939889.092   -14547644.63549 -11322816.62047  21939888.411    21939895.432
 03  6  9 22 40  0.0000000  0  6G23G14G31G25G15G11
  22731665.820     6417003.59849   4881673.88746  22731664.886    22731673.511
  21285888.988     5115060.49149   3983146.92647  21285888.146    21285894.387
  24843370.984    10449761.48849   8130735.60245  24843370.262    24843387.703
  21171337.538   -16081165.15049 -12519245.06547  21171337.008    21171344.499
  24670090.786    17810749.62149  13866213.06045  24670089.622    24670105.050
  21930517.169   -14596894.11549 -11361192.83147  21930516.500    21930523.585
 03  6  9 22 40 30.0000000  0  5G23G14G31G25G11
  22741785.793     6470183.64849   4923112.80946  22741784.840    22741793.413
  21297173.596     5174361.38549   4029355.36447  21297172.754    21297179.032
  24858380.386    10528635.04549   8192195.21745  24858379.542    24858397.198
  21160634.607   -16137409.41849 -12563071.73647  21160634.078    21160641.570
  21921237.717   -14645657.86749 -11399190.56147  21921237.063    21921244.175
 03  6  9 22 41  0.0000000  0  4G23G14G25G11
  22751948.582     6523589.40449   4964727.60946  22751947.624    22751956.297
  21308503.261     5233899.12249   4075748.36147  21308502.441    21308508.749
  21150025.640   -16193159.66849 -12606513.45347  21150025.092    21150032.575
  21912056.808   -14693903.81749 -11436784.80747  21912056.149    21912063.261
 03  6  9 22 41 30.0000000  0  4G23G14G25G11
  22762145.651     6577174.82849   5006482.41046  22762144.724    22762153.298
  21319868.878     5293625.51649   4122288.36447  21319868.052    21319874.369
  21139502.184   -16248460.60449 -12649605.06247  21139501.658    21139509.127
  21902965.877   -14741676.76449 -11474010.47847  21902965.233    21902972.369
 03  6  9 22 42  0.0000000  0  4G23G14G25G11
  22772377.531     6630943.31849   5048379.86346  22772376.542    22772385.162
  21331270.707     5353542.17649   4168976.63147  21331269.849    21331276.177
  21129065.059   -16303307.95649 -12692343.21847  21129064.513    21129071.992
  21893965.835   -14788972.45149 -11510864.26147  21893965.213    21893972.317
 03  6  9 22 42 30.0000000  0  4G23G14G25G11
  22782645.331     6684900.79449   5090424.57346  22782644.334    22782653.002
  21342709.364     5413652.79049   4215816.03047  21342708.540    21342714.920
  21118715.567   -16357694.78249 -12734722.53447  21118715.028    21118722.490
  21885058.033   -14835783.54049 -11547340.43447  21885057.390    21885064.482
 03  6  9 22 43  0.0000000  0  4G23G14G25G11
  22792949.367     6739048.60149   5132617.59946  22792948.370    22792957.056
  21354184.834     5473956.83349   4262806.15547  21354184.016    21354190.461
  21108454.229   -16411618.22549 -12776740.76847  21108453.722    21108461.170
  21876242.934   -14882107.00449 -11583436.64647  21876242.332    21876249.427
 03  6  9 22 43 30.0000000  0  4G23G14G25G11
  22803290.165     6793389.42849   5174961.01646  22803289.151    22803297.838
  21365697.261     5534454.78449   4309947.37447  21365696.446    21365702.879
  21098281.871   -16465074.29049 -12818394.80947  21098281.334    21098288.763
  21867521.452   -14927939.08549 -11619149.95647  21867520.800    21867527.881
 03  6  9 22 44  0.0000000  0  4G23G14G25G11
  22813667.819     6847923.96349   5217455.39246  22813666.767    22813675.540
  21377246.378     5595145.44149   4357238.75547  21377245.551    21377251.983
  21088198.793   -16518061.11949 -12859683.21548  21088198.264    21088205.708
  21858893.720   -14973277.86249 -11654478.87247  21858893.083    21858900.162
 03  6  9 22 44 30.0000000  0  4G23G14G25G11
  22824082.541     6902653.61749   5260101.79846  22824081.517    22824090.303
  21388831.966     5656028.08849   4404679.73947  21388831.140    21388837.586
  21078205.366   -16570576.61749 -12900604.34848  21078204.872    21078212.309
  21850360.412   -15018120.96849 -11689421.55947  21850359.761    21850366.783
 03  6  9 22 45  0.0000000  0  4G23G14G25G11
  22834534.379     6957578.21049   5302900.10946  22834533.431    22834542.201
  21400453.734     5717100.84549   4452268.86147  21400452.935    21400459.393
  21068301.969   -16622619.29949 -12941157.05048  21068301.428    21068308.868
  21841921.566   -15062467.24549 -11723977.10047  21841920.913    21841927.969
 03  6  9 22 45 30.0000000  0  4G23G14G25G11
  22845023.502     7012698.86349   5345851.21146  22845022.570    22845031.327
  21412111.541     5778362.89549   4500005.49447  21412110.744    21412117.221
  21058488.917   -16674187.04649 -12981339.67448  21058488.402    21058495.821
  21833577.765   -15106314.30249 -11758143.64647  21833577.129    21833584.133
 03  6  9 22 46  0.0000000  0  4G23G14G25G11
  22855550.046     7068015.64249   5388955.12546  22855549.073    22855557.806
  21423804.932     5839812.10449   4547887.95047  21423804.119    21423810.651
  21048766.463   -16725278.62349 -13021151.25948  21048765.953    21048773.375
  21825329.132   -15149661.02849 -11791920.32247  21825328.480    21825335.551
 03  6  9 22 46 30.0000000  0  4G23G14G25G11
  22866113.838     7123528.80449   5432212.07646  22866112.879    22866121.687
  21435533.681     5901447.09749   4595915.17847  21435532.879    21435539.435
  21039134.912   -16775892.65049 -13060590.72348  21039134.400    21039141.821
  21817176.060   -15192505.73449 -11825305.81347  21817175.414    21817182.469
 03  6  9 22 47  0.0000000  0  4G23G14G25G11
  22876715.296     7179239.18249   5475622.69546  22876714.281    22876723.057
  21447297.554     5963266.55749   4644086.14547  21447296.745    21447303.308
  21029594.609   -16826027.06549 -13099656.46748  21029594.125    21029601.521
  21809118.870   -15234846.56049 -11858298.66947  21809118.232    21809125.271
 03  6  9 22 47 30.0000000  0  4G23G14G25G11
  22887354.151     7235146.78949   5519187.00046  22887353.166    22887362.032
  21459096.195     6025268.67349   4692399.44347  21459095.387    21459101.946
  21020145.732   -16875681.17049 -13138347.93948  21020145.206    21020152.603
  21801157.821   -15276682.33249 -11890897.97247  21801157.153    21801164.229
 03  6  9 22 48  0.0000000  0  4G23G14G25G11
  22898030.792     7291252.25049   5562905.48046  22898029.773    22898038.608
  21470929.343     6087451.94549   4740853.91147  21470928.535    21470935.117
  21010788.552   -16924853.28649 -13176663.83848  21010788.074    21010795.456
  21793293.145   -15318011.48049 -11923102.50847  21793292.468    21793299.508
 03  6  9 22 48 30.0000000  0  4G23G14G25G11
  22908744.945     7347555.31049   5606777.93946  22908743.956    22908752.781
  21482796.586     6149814.55449   4789448.11047  21482795.750    21482802.365
  21001523.304   -16973542.44449 -13214603.40648  21001522.788    21001530.148
  21785525.110   -15358832.78249 -11954911.32347  21785524.465    21785531.520
 03  6  9 22 49  0.0000000  0  4G23G14G25G11
  22919496.787     7404056.40049   5650804.68846  22919495.783    22919504.665
  21494697.583     6212354.91149   4838180.81047  21494696.771    21494703.417
  20992350.213   -17021747.17649 -13252165.49948  20992349.709    20992357.061
  21777853.916   -15399145.16849 -11986323.57547  21777853.256    21777860.372
 03  6  9 22 49 30.0000000  0  5G23G14G25G20G11
  22930284.709     7460747.16149   5694979.24246  22930283.774    22930292.636
  21506630.494     6275062.72249   4887044.00247  21506629.700    21506636.347
  20983267.912   -17069474.89349 -13289355.89548  20983267.416    20983274.740
  24719236.571    -2404842.14549  -1865648.77245  24719235.429    24719249.585
  21770278.259   -15438955.57249 -12017344.68047  21770277.610    21770284.708
 03  6  9 22 50  0.0000000  0  5G23G14G25G20G11
  22941108.989     7517628.58549   5739302.35546  22941108.051    22941116.781
  21518595.140     6337937.19849   4936037.06547  21518594.327    21518600.987
  20974276.735   -17116723.54249 -13326172.98848  20974276.231    20974283.555
  24702030.664    -2495258.91249  -1936103.24245  24702029.551    24702043.779
  21762798.496   -15478261.97249 -12047973.05047  21762797.868    21762804.977
 03  6  9 22 50 30.0000000  0  5G23G14G25G20G11
  22951972.642     7574717.93249   5783787.50546  22951971.820    22951980.589
  21530594.425     6400993.65749   4985171.93547  21530593.610    21530600.281
  20965380.268   -17163474.83249 -13362602.53248  20965379.750    20965387.067
  24684820.259    -2585699.09949  -2006575.92445  24684819.175    24684833.526
  21755418.144   -15517046.04449 -12078194.41847  21755417.488    21755424.640
 03  6  9 22 51  0.0000000  0  5G23G14G25G20G11
  22962875.250     7632010.91649   5828431.31946  22962874.373    22962883.146
  21542627.211     6464226.25249   5034444.05647  21542626.400    21542633.086
  20956577.780   -17209731.96849 -13398647.02048  20956577.273    20956584.571
  24667604.886    -2676166.17149  -2077069.56045  24667603.953    24667617.930
  21748136.530   -15555311.01949 -12108011.28947  21748135.899    21748143.060
 03  6  9 22 51 30.0000000  0  5G23G14G25G20G11
  22973816.221     7689506.03949   5873232.64746  22973815.338    22973824.143
  21554692.845     6527631.24749   5083850.51347  21554692.027    21554698.742
  20947869.229   -17255495.65849 -13434307.00048  20947868.692    20947875.961
  24650384.197    -2766661.22249  -2147584.98845  24650383.195    24650397.038
  21740953.604   -15593057.56649 -12137424.19947  21740952.971    21740960.086
 03  6  9 22 52  0.0000000  0  5G23G14G25G20G11
  22984795.559     7747202.67349   5918190.98546  22984794.718    22984803.505
  21566790.808     6591206.26649   5133389.45947  21566790.002    21566796.697
  20939254.626   -17300765.61749 -13469582.25948  20939254.096    20939261.364
  24633158.015    -2857184.39949  -2218122.33345  24633157.140    24633170.797
  21733869.416   -15630285.07649 -12166432.65447  21733868.816    21733875.942
 03  6  9 22 52 30.0000000  0  5G23G14G25G20G11
  22995813.144     7805099.99449   5963305.69946  22995812.319    22995821.133
  21578920.662     6654948.95149   5183059.04747  21578919.854    21578926.497
  20930734.009   -17345541.40749 -13504472.45148  20930733.505    20930740.759
  24615926.461    -2947736.05149  -2288681.87645  24615925.569    24615939.341
  21726884.160   -15666993.16649 -12195036.37047  21726883.532    21726890.647
 03  6  9 22 53  0.0000000  0  5G23G14G25G20G11
  23006868.999     7863198.66049   6008577.30946  23006868.166    23006876.969
  21591082.136     6718857.76249   5232858.07947  21591081.345    21591087.947
  20922307.716   -17389821.88349 -13538976.68148  20922307.178    20922314.449
  24598689.824    -3038315.13149  -2359262.76745  24598688.922    24598702.501
  21719997.878   -15703180.68949 -12223234.44647  21719997.269    21720004.421
 03  6  9 22 53 30.0000000  0  5G23G14G25G20G11
  23017963.099     7921498.13549   6054005.39446  23017962.216    23017971.077
  21603274.864     6782930.68749   5282784.99547  21603274.064    21603280.626
  20913975.756   -17433606.43049 -13573094.47748  20913975.236    20913982.491
  24581447.883    -3128921.39249  -2429864.83645  24581446.829    24581460.487
  21713210.858   -15738846.86949 -12251026.28647  21713210.227    21713217.353
 03  6  9 22 54  0.0000000  0  5G23G14G25G20G11
  23029095.471     7979998.97449   6099590.38346  23029094.580    23029103.499
  21615498.595     6847166.37449   5332838.73547  21615497.792    21615504.305
  20905738.463   -17476893.52149 -13606824.64048  20905737.929    20905745.199
  24564200.921    -3219553.84249  -2500487.30745  24564199.799    24564213.666
  21706523.283   -15773990.26649 -12278410.76147  21706522.667    21706529.815
 03  6  9 22 54 30.0000000  0  5G23G14G25G20G11
  23040266.265     8038701.48249   6145332.51146  23040265.356    23040274.319
  21627753.025     6911563.54149   5383018.29847  21627752.229    21627758.684
  20897596.044   -17519682.16149 -13640166.40448  20897595.526    20897602.779
  24546949.125    -3310211.73649  -2571129.62345  24546948.101    24546961.892
  21699935.490   -15808609.57549 -12305386.86047  21699934.858    21699941.982
 03  6  9 22 55  0.0000000  0  5G23G14G25G20G11
  23051475.501     8097605.93549   6191232.00346  23051474.566    23051483.524
  21640037.880     6976120.29249   5433322.22747  21640037.074    21640043.497
  20889548.739   -17561970.86849 -13673118.60948  20889548.207    20889555.474
  24529692.687    -3400894.30649  -2641791.13645  24529691.737    24529705.384
  21693447.592   -15842703.64149 -12331953.67847  21693446.969    21693454.070
 03  6  9 22 55 30.0000000  0  5G23G14G25G20G11
  23062723.020     8156712.03449   6237288.63046  23062722.120    23062731.136
  21652352.787     7040835.29949   5483749.46947  21652351.969    21652358.382
  20881596.665   -17603759.07449 -13705680.81348  20881596.152    20881603.421
  24512431.559    -3491600.90349  -2712471.37245  24512430.768    24512444.289
  21687059.857   -15876271.66949 -12358110.59447  21687059.221    21687066.341
 03  6  9 22 56  0.0000000  0  5G23G14G25G20G11
  23074009.299     8216020.63049   6283503.02046  23074008.326    23074017.268
  21664697.501     7105707.13649   5534298.92147  21664696.683    21664703.108
  20873740.081   -17645045.47949 -13737852.00248  20873739.551    20873746.831
  24495166.168    -3582330.45049  -2783169.49445  24495165.320    24495178.786
  21680772.485   -15909312.02149 -12383856.33447  21680771.834    21680778.972
 03  6  9 22 56 30.0000000  0  5G23G14G25G20G11
  23085333.874     8275531.31349   6329874.89046  23085332.887    23085341.880
  21677071.689     7170733.67649   5584968.91647  21677070.836    21677077.279
  20865979.099   -17685829.69349 -13769631.87048  20865978.584    20865985.836
  24477896.473    -3673082.69349  -2853885.31445  24477895.486    24477909.156
  21674585.597   -15941824.40249 -12409190.66747  21674584.937    21674592.080
 03  6  9 22 57  0.0000000  0  5G23G14G25G20G11
  23096696.998     8335244.89349   6376404.86046  23096696.080    23096705.065
  21689475.127     7235914.10149   5635758.82147  21689474.289    21689480.739
  20858313.938   -17726110.09149 -13801019.16148  20858313.430    20858320.680
  24460622.793    -3763856.04649  -2924617.56945  24460621.795    24460635.349
  21668499.469   -15973807.06049 -12434112.22847  21668498.840    21668506.025
 03  6  9 22 57 30.0000000  0  5G23G14G25G20G11
  23108098.743     8395161.25349   6423092.84346  23108097.807    23108106.863
  21701907.535     7301246.88449   5686667.44347  21701906.723    21701913.191
  20850744.878   -17765885.86249 -13832013.23748  20850744.340    20850751.567
  24443345.067    -3854650.02349  -2995365.87345  24443343.965    24443357.409
  21662514.443   -16005258.89349 -12458620.16847  21662513.794    21662520.960
 03  6  9 22 58  0.0000000  0  5G23G14G25G20G11
  23119539.158     8455281.12449   6469939.39846  23119538.277    23119547.425
  21714368.781     7366730.90949   5737693.92147  21714367.976    21714374.442
  20843272.130   -17805155.18349 -13862612.67248  20843271.623    20843278.820
  24426063.682    -3945463.33149  -3066129.26545  24426062.589    24426075.959
  21656630.690   -16036178.31649 -12482713.23647  21656630.037    21656637.228
 03  6  9 22 58 30.0000000  0  5G23G14G25G20G11
  23131018.290     8515604.20249   6516944.29246  23131017.430    23131026.658
  21726858.458     7432364.42549   5788836.88547  21726857.620    21726864.097
  20835895.852   -17843917.70149 -13892817.20148  20835895.330    20835902.522
  24408778.799    -4036295.38949  -3136907.27545  24408777.705    24408791.028
  21650848.321   -16066564.92849 -12506391.13447  21650847.680    21650854.833
 03  6  9 22 59  0.0000000  0  5G23G14G25G20G11
  23142536.175     8576131.26949   6564108.14946  23142535.326    23142544.636
  21739376.402     7498146.47649   5840095.59147  21739375.563    21739382.056
  20828616.293   -17882172.20649 -13922625.87148  20828615.759    20828622.910
  24391490.603    -4127144.83649  -3207698.81145  24391489.443    24391502.817
  21645167.610   -16096417.21649 -12529652.66447  21645166.963    21645174.169
 03  6  9 22 59 30.0000000  0  5G23G14G25G20G11
  23154092.976     8636861.78649   6611430.52246  23154092.066    23154101.343
  21751922.159     7564074.88549   5891468.33847  21751921.338    21751927.847
  20821433.411   -17919918.26649 -13952038.35248  20821432.902    20821440.052
  24374198.913    -4218011.49849  -3278503.77645  24374197.865    24374211.069
  21639588.683   -16125734.66649 -12552497.44147  21639588.045    21639595.236
 03  6  9 23  0  0.0000000  0  5G23G14G25G20G11
  23165688.519     8697796.58449   6658912.07946  23165687.618    23165696.957
  21764495.638     7630148.84349   5942954.50847  21764494.804    21764501.325
  20814347.589   -17957154.42149 -13981053.50348  20814347.057    20814354.218
  24356904.419    -4308893.77249  -3349320.89145  24356903.397    24356916.501
  21634111.838   -16154515.83149 -12574924.33347  21634111.206    21634118.372
 03  6  9 23  0 30.0000000  0  5G23G14G25G20G11
  23177322.928     8758935.14349   6706552.42046  23177321.974    23177331.297
  21777096.329     7696366.02449   5994552.28347  21777095.511    21777102.059
  20807358.834   -17993880.32749 -14009671.05848  20807358.306    20807365.484
  24339606.978    -4399791.70849  -3420150.20145  24339605.892    24339618.953
  21628737.102   -16182760.39449 -12596933.08947  21628736.448    21628743.635
 03  6  9 23  1  0.0000000  0  6G23G30G14G25G20G11
  23188996.346     8820278.96049   6754352.69046  23188995.392    23189004.700
  24509090.839    -3871423.74749  -3007443.75945  24509090.680    24509100.665
  21789724.336     7762726.63849   6046261.82147  21789723.548    21789730.105
  20800467.525   -18030094.05749 -14037889.51648  20800467.016    20800474.198
  24322307.006    -4490702.80749  -3490989.78445  24322305.789    24322318.932
  21623464.852   -16210466.17149 -12618522.01247  21623464.217    21623471.415
 03  6  9 23  1 30.0000000  0  6G23G30G14G25G20G11
  23200709.054     8881829.26949   6802313.87246  23200708.144    23200717.441
  24502991.141    -3903478.13949  -3032421.14245  24502991.032    24503000.687
  21802379.536     7829230.11649   6098082.67647  21802378.747    21802385.317
  20793674.073   -18065793.81149 -14065707.47448  20793673.559    20793680.725
  24305004.726    -4581625.25249  -3561838.21045  24305003.577    24305016.622
  21618295.508   -16237631.04249 -12639689.44847  21618294.886    21618302.077
 03  6  9 23  2  0.0000000  0  6G23G30G14G25G20G11
  23212460.544     8943583.23449   6850433.74146  23212459.679    23212468.912
  24496973.090    -3935103.18249  -3057064.00645  24496973.108    24496982.494
  21815061.111     7895872.10949   6150011.47047  21815060.308    21815066.904
  20786978.092   -18100981.16349 -14093126.15948  20786977.615    20786984.753
  24287700.011    -4672560.95049  -3632696.95145  24287698.886    24287711.785
  21613228.695   -16264257.14749 -12660437.06847  21613228.074    21613235.306
 03  6  9 23  2 30.0000000  0  6G23G30G14G25G20G11
  23224250.788     9005541.16149   6898712.55446  23224249.956    23224259.233
  24491037.165    -3966296.74049  -3081370.66045  24491037.098    24491046.463
  21827768.817     7962651.49749   6202047.32447  21827768.021    21827774.644
  20780379.745   -18135655.67449 -14120145.22848  20780379.253    20780386.390
  24270393.021    -4763509.12949  -3703565.41245  24270391.918    24270404.781
  21608264.619   -16290343.43349 -12680764.05147  21608263.990    21608271.257
 03  6  9 23  3  0.0000000  0  6G23G30G14G25G20G11
  23236080.128     9067704.22749   6947151.20046  23236079.257    23236088.573
  24485183.895    -3997055.72449  -3105338.70245  24485183.680    24485193.237
  21840502.563     8029567.69649   6254189.77447  21840501.775    21840508.389
  20773879.300   -18169815.54349 -14146763.27848  20773878.803    20773885.938
  24253084.008    -4854467.51949  -3774441.86945  24253082.841    24253095.841
  21603403.620   -16315888.03949 -12700668.94047  21603403.005    21603410.291
 03  6  9 23  3 30.0000000  0  6G23G30G14G25G20G11
  23247948.379     9130072.06449   6995749.40346  23247947.491    23247956.868
  24479413.731    -4027378.61849  -3128966.93545  24479413.415    24479422.872
  21853262.012     8096618.92949   6306437.44547  21853261.222    21853267.842
  20767476.966   -18203460.06949 -14172979.76048  20767476.465    20767483.572
  24235773.232    -4945435.70849  -3845325.92945  24235772.064    24235784.936
  21598645.841   -16340890.60549 -12720151.46847  21598645.189    21598652.487
 03  6  9 23  4  0.0000000  0  6G23G30G14G25G20G11
  23259855.736     9192645.24449   7044507.63246  23259854.837    23259864.277
  24473726.662    -4057262.87149  -3152253.35345  24473726.452    24473736.163
  21866047.055     8163804.39349   6358789.71947  21866046.241    21866052.907
  20761172.819   -18236588.35049 -14198793.97148  20761172.320    20761179.410
  24218460.851    -5036412.43849  -3916216.64145  24218459.640    24218472.339
  21593991.339   -16365350.01249 -12739210.74447  21593990.701    21593998.014
 03  6  9 23  4 30.0000000  0  6G23G30G14G25G20G11
  23271802.249     9255424.47149   7093426.40846  23271801.367    23271810.838
  24468123.844    -4086706.15549  -3175196.16545  24468123.601    24468133.399
  21878857.451     8231123.25949   6411245.94447  21878856.643    21878863.305
  20754967.185   -18269199.27449 -14224205.04648  20754966.666    20754973.754
  24201146.942    -5127396.13149  -3987112.77945  24201145.766    24201158.433
  21589440.593   -16389264.50349 -12757845.41647  21589439.952    21589447.262
 03  6  9 23  5  0.0000000  0  6G23G30G14G25G20G11
  23283788.076     9318409.68049   7142505.69646  23283787.140    23283796.650
  24462605.208    -4115706.45149  -3197793.79145  24462605.141    24462614.824
  21891692.907     8298573.75749   6463804.73547  21891692.087    21891698.768
  20748860.023   -18301292.38749 -14249212.63848  20748859.504    20748866.586
  24183831.873    -5218385.86849  -4058013.64345  24183830.692    24183843.469
  21584993.504   -16412633.96849 -12776055.39947  21584992.870    21585000.174
 03  6  9 23  5 30.0000000  0  6G23G30G14G25G20G11
  23295812.844     9381599.87249   7191744.69846  23295811.885    23295821.481
  24457171.349    -4144263.02349  -3220045.64945  24457171.063    24457180.790
  21904552.954     8366153.38449   6516464.14247  21904552.124    21904558.800
  20742851.470   -18332867.47149 -14273816.56948  20742850.953    20742858.040
  24166515.846    -5309381.89749  -4128919.41445  24166514.670    24166527.309
  21580650.147   -16435458.63549 -12793840.86547  21580649.477    21580656.808
 03  6  9 23  6  0.0000000  0  6G23G30G14G25G20G11
  23307876.768     9444996.26849   7241144.38746  23307875.903    23307885.476
  24451822.164    -4172372.76249  -3241949.35145  24451821.945    24451831.652
  21917437.574     8433862.33049   6569224.30947  21917436.724    21917443.397
  20736941.738   -18363923.17249 -14298015.78948  20736941.214    20736948.315
  24149198.903    -5400382.11049  -4199828.43445  24149197.828    24149210.214
  21576410.808   -16457736.52449 -12811200.27547  21576410.172    21576417.459
 03  6  9 23  6 30.0000000  0  6G23G30G14G25G20G11
  23319980.025     9508598.56649   7290704.51746  23319979.134    23319988.742
  24446558.398    -4200034.11549  -3263503.64045  24446558.190    24446567.890
  21930346.450     8501698.74949   6622083.82147  21930345.568    21930352.270
  20731130.852   -18394459.43249 -14321810.24948  20731130.337    20731137.440
  24131881.244    -5491385.80949  -4270740.18345  24131880.317    24131892.439
  21572275.647   -16479467.05149 -12828133.16247  21572274.995    21572282.294
 03  6  9 23  7  0.0000000  0  6G23G30G14G25G20G11
  23332122.531     9572407.63249   7340425.76446  23332121.648    23332131.286
  24441380.131    -4227244.42749  -3284706.48845  24441380.145    24441390.041
  21943279.442     8569662.06449   6675042.21547  21943278.584    21943285.298
  20725419.154   -18424474.44549 -14345198.54548  20725418.661    20725425.738
  24114563.219    -5582391.06949  -4341653.13645  24114562.296    24114574.495
  21568244.895   -16500649.00749 -12844638.59747  21568244.255    21568251.512
 03  6  9 23  7 30.0000000  0  6G23G30G14G25G20G11
  23344304.239     9636422.36249   7390307.27546  23344303.286    23344312.954
  24436288.010    -4254003.31849  -3305557.55945  24436287.870    24436297.818
  21956236.041     8637749.59949   6728097.39247  21956235.195    21956241.978
  20719806.535   -18453968.99349 -14368181.27748  20719806.027    20719813.103
  24097245.156    -5673398.28949  -4412567.61845  24097244.255    24097256.376
  21564318.356   -16521283.17249 -12860717.17647  21564317.694    21564324.951
 03  6  9 23  8  0.0000000  0  6G23G30G14G25G20G11
  23356525.264     9700644.10749   7440350.09446  23356524.394    23356534.022
  24431282.521    -4280307.45749  -3326054.29245  24431282.305    24431292.353
  21969216.258     8705961.30349   6781249.32547  21969215.419    21969222.221
  20714293.293   -18482941.06949 -14390756.88948  20714292.784    20714299.872
  24079926.920    -5764405.13449  -4483481.81745  24079925.935    24079938.109
  21560496.429   -16541367.56949 -12876367.36547  21560495.789    21560503.022
 03  6  9 23  8 30.0000000  0  6G23G30G14G25G20G11
  23368785.632     9765071.97749   7490553.54045  23368784.657    23368794.332
  24426363.764    -4306156.24449  -3346196.19045  24426363.521    24426373.522
  21982219.759     8774294.93249   6834496.26747  21982218.927    21982225.714
  20708879.363   -18511391.41249 -14412925.96048  20708878.852    20708885.942
  24062608.596    -5855411.78549  -4554395.88745  24062607.644    24062619.780
  21556779.077   -16560902.41049 -12891589.33147  21556778.413    21556785.670
 03  6  9 23  9  0.0000000  0  6G23G30G14G25G20G11
  23381085.218     9829706.82749   7540918.26945  23381084.272    23381094.027
  24421532.233    -4331546.70749  -3365980.96845  24421532.015    24421541.988
  21995246.354     8842749.99449   6887837.84247  21995245.528    21995252.291
  20703564.958   -18539318.67749 -14434687.43448  20703564.431    20703571.511
  24045290.839    -5946416.00149  -4625308.03545  24045289.822    24045302.031
  21553166.643   -16579886.18149 -12906381.89347  21553166.004    21553173.211
 03  6  9 23  9 30.0000000  0  6G23G30G14G25G20G11
  23393424.151     9894548.33049   7591444.01745  23393423.230    23393433.048
  24416788.004    -4356477.47549  -3385407.53945  24416787.690    24416797.926
  22008295.755     8911324.86949   6941272.77647  22008294.905    22008301.659
  20698350.079   -18566722.71449 -14456041.20148  20698349.581    20698356.669
  24027973.907    -6037417.19149  -4696217.84645  24027972.990    24027984.907
  21549659.014   -16598318.79249 -12920744.97647  21549658.372    21549665.597
 03  6  9 23 10  0.0000000  0  6G23G30G14G25G20G11
  23405802.555     9959596.68949   7642130.94945  23405801.631    23405811.389
  24412131.357    -4380946.74249  -3404474.49045  24412131.273    24412141.458
  22021367.749     8980018.45749   6994800.20747  22021366.915    22021373.640
  20693234.917   -18593603.12949 -14476986.95348  20693234.412    20693241.473
  24010657.683    -6128414.08349  -4767124.31345  24010656.678    24010668.771
  21546256.480   -16616199.28249 -12934677.84447  21546255.827    21546263.063
 03  6  9 23 10 30.0000000  0  6G23G30G14G25G20G11
  23418220.235    10024852.05749   7692979.20145  23418219.344    23418229.228
  24407563.270    -4404952.53649  -3423180.28945  24407563.156    24407573.313
  22034462.120     9048829.66749   7048419.29347  22034461.290    22034468.030
  20688219.498   -18619959.19749 -14497524.11748  20688218.984    20688226.025
  23993342.191    -6219405.63049  -4838026.62645  23993341.227    23993353.424
  21542958.988   -16633527.55349 -12948180.40647  21542958.350    21542965.619
 03  6  9 23 11  0.0000000  0  6G23G30G14G25G20G11
  23430677.430    10090314.65749   7743988.91845  23430676.491    23430686.425
  24403083.588    -4428492.99349  -3441523.49545  24403083.495    24403093.693
  22047578.606     9117757.26949   7102129.07147  22047577.790    22047584.555
  20683304.030   -18645789.93349 -14517651.93648  20683303.537    20683310.542
  23976028.169    -6310390.64149  -4908923.83245  23976027.222    23976039.293
  21539766.779   -16650302.65349 -12961251.92947  21539766.140    21539773.444
 03  6  9 23 11 30.0000000  0  6G23G30G14G25G20G11
  23443173.818    10155983.70949   7795159.50045  23443172.988    23443182.939
  24398692.948    -4451567.21949  -3459503.38645  24398692.786    24398702.774
  22060716.844     9186799.14049   7155927.89447  22060716.064    22060722.849
  20678488.441   -18671096.00349 -14537370.92348  20678487.921    20678494.927
  23958715.605    -6401368.77649  -4979815.68045  23958714.627    23958726.421
  21536679.823   -16666524.79249 -12973892.57247  21536679.187    21536686.536
 03  6  9 23 12  0.0000000  0  6G23G30G14G25G20G11
  23455709.792    10221859.21649   7846490.95145  23455708.840    23455718.730
  24394391.177    -4474173.40449  -3477118.60845  24394391.093    24394400.970
  22073876.675     9255954.24949   7209814.95847  22073875.874    22073882.670
  20673772.733   -18695877.09249 -14556680.83348  20673772.215    20673779.202
  23941404.499    -6492338.72949  -5050701.16345  23941403.482    23941415.150
  21533698.132   -16682193.59249 -12986102.04347  21533697.471    21533704.844
 03  6  9 23 12 30.0000000  0  6G23G30G14G25G20G11
  23468284.963    10287941.88049   7897983.82745  23468284.085    23468293.932
  24390178.978    -4496309.36149  -3494367.40145  24390178.751    24390188.555
  22087057.913     9325221.90149   7263789.70847  22087057.108    22087063.871
  20669157.157   -18720131.92149 -14575580.67048  20669156.641    20669163.634
  23924095.142    -6583298.75249  -5121578.90745  23924094.115    23924105.681
  21530821.978   -16697307.91449 -12997879.45547  21530821.343    21530828.698
 03  6  9 23 13  0.0000000  0  6G23G30G14G25G20G11
  23480899.619    10354231.80449   7949638.20945  23480898.692    23480908.612
  24386056.390    -4517973.21449  -3511248.30745  24386056.344    24386066.146
  22100260.361     9394601.00949   7317851.31547  22100259.569    22100266.293
  20664641.824   -18743859.94849 -14594070.01948  20664641.317    20664648.304
  23906787.882    -6674247.46849  -5192447.85045  23906786.887    23906798.513
  21528051.440   -16711867.25149 -13009224.40447  21528050.791    21528058.167
 03  6  9 23 13 30.0000000  0  6G23G30G14G25G20G11
  23493553.742    10420729.28249   8001454.28945  23493552.821    23493562.732
  24382024.177    -4539163.02649  -3527759.82145  24382024.076    24382033.842
  22113483.824     9464090.50849   7371998.94047  22113483.014    22113489.722
  20660226.820   -18767060.88449 -14612148.63848  20660226.303    20660233.269
  23889483.084    -6765183.85049  -5263307.18145  23889482.006    23889493.798
  21525386.684   -16725870.86049 -13020136.32647  21525386.045    21525393.357
 03  6  9 23 14  0.0000000  0  6G23G30G14G25G20G11
  23506247.255    10487433.55749   8053431.53345  23506246.324    23506256.266
  24378082.301    -4559877.95249  -3543901.27645  24378082.305    24378091.829
  22126727.882     9533688.48349   7426231.07747  22126727.055    22126733.795
  20655912.063   -18789734.85349 -14629816.64048  20655911.550    20655918.527
  23872180.764    -6856107.52949  -5334156.61545  23872179.675    23872191.401
  21522827.526   -16739319.34649 -13030615.68147  21522826.887    21522834.152
 03  6  9 23 14 30.0000000  0  6G23G30G14G25G20G11
  23518980.265    10554345.14849   8105570.30245  23518979.259    23518989.277
  24374231.188    -4580115.89049  -3559671.07945  24374231.121    24374240.671
  22139992.463     9603394.09749   7480547.09547  22139991.613    22139998.379
  20651697.703   -18811881.35449 -14647073.62548  20651697.188    20651704.176
  23854881.287    -6947016.76249  -5404994.77345  23854880.150    23854891.844
  21520374.219   -16752211.66149 -13040661.65547  21520373.585    21520380.867
 03  6  9 23 15  0.0000000  0  6G23G30G14G25G20G11
  23531752.536    10621463.73649   8157870.36845  23531751.577    23531761.667
  24370471.055    -4599875.54349  -3575068.17645  24370470.944    24370480.406
  22153277.319     9673206.15449   7534946.05947  22153276.476    22153283.258
  20647583.772   -18833500.13349 -14663919.39948  20647583.256    20647590.239
  23837584.630    -7037910.50449  -5475820.87145  23837583.524    23837595.072
  21518026.816   -16764547.48149 -13050273.99847  21518026.170    21518033.463
 03  6  9 23 15 30.0000000  0  6G23G30G14G25G20G11
  23544564.369    10688789.58649   8210331.92045  23544563.428    23544573.469
  24366802.041    -4619154.95849  -3590091.09745  24366801.845    24366811.454
  22166582.228     9743123.75949   7589427.25947  22166581.385    22166588.192
  20643570.375   -18854590.62649 -14680353.52648  20643569.874    20643576.813
  23820291.188    -7128787.37149  -5546633.83545  23820290.127    23820301.532
  21515785.354   -16776326.55149 -13059452.50647  21515784.722    21515792.046
 03  6  9 23 16  0.0000000  0  6G23G30G14G25G20G11
  23557415.629    10756322.86549   8262955.11445  23557414.741    23557424.774
  24363224.925    -4637952.63449  -3604738.61545  24363224.851    24363234.361
  22179906.991     9813145.75949   7643989.81247  22179906.151    22179912.965
  20639657.552   -18875152.48149 -14696375.72548  20639657.033    20639663.981
  23803001.292    -7219646.17449  -5617432.72145  23803000.276    23803011.562
  21513649.944   -16787548.50349 -13068196.89847  21513649.300    21513656.626
 03  6  9 23 16 30.0000000  0  6G23G30G14G25G20G11
  23570306.211    10824063.21249   8315739.64745  23570305.337    23570315.437
  24359739.628    -4656267.27949  -3619009.76145  24359739.513    24359748.985
  22193251.233     9883270.34449   7698632.28947  22193250.393    22193257.279
  20635845.322   -18895185.76949 -14711986.05648  20635844.802    20635851.761
  23785715.009    -7310485.86449  -5688216.70945  23785713.963    23785725.257
  21511620.513   -16798213.17949 -13076507.05247  21511619.885    21511627.207
 03  6  9 23 17  0.0000000  0  6G23G30G14G25G20G11
  23583236.302    10892011.06249   8368685.88845  23583235.466    23583245.655
  24356346.964    -4674096.91349  -3632902.93245  24356346.882    24356356.250
  22206614.840     9953497.16749   7753354.44247  22206614.041    22206621.051
  20632133.739   -18914690.15249 -14727184.25348  20632133.231    20632140.185
  23768432.561    -7401304.78349  -5758984.52245  23768431.498    23768442.815
  21509697.266   -16808319.95749 -13084382.47647  21509696.627    21509703.942
 03  6  9 23 17 30.0000000  0  6G23G30G14G25G20G11
  23596205.780    10960165.86249   8421793.38645  23596204.996    23596215.246
  24353046.374    -4691440.56249  -3646417.48245  24353046.148    24353056.023
  22219997.601    10023824.40049   7808154.82747  22219996.826    22220003.938
  20628522.812   -18933665.85449 -14741970.49448  20628522.271    20628529.205
  23751154.159    -7492102.27349  -5829735.63745  23751153.129    23751164.360
  21507880.138   -16817869.16349 -13091823.43347  21507879.475    21507886.799
 03  6  9 23 18  0.0000000  0  6G23G30G14G25G20G11
  23609214.813    11028527.64149   8475062.17645  23609213.931    23609224.193
  24349838.746    -4708296.64849  -3659552.07045  24349838.649    24349848.383
  22233399.416    10094251.39949   7863032.96947  22233398.668    22233405.842
  20625012.530   -18952112.35949 -14756344.37148  20625012.001    20625018.946
  23733880.103    -7582877.02549  -5900469.01545  23733879.107    23733890.273
  21506169.152   -16826860.34749 -13098829.55747  21506168.489    21506175.855
 03  6  9 23 18 30.0000000  0  6G23G30G14G25G20G11
  23622263.049    11097096.96149   8528492.68045  23622262.277    23622272.601
  24346724.154    -4724663.01649  -3672305.12845  24346723.983    24346733.983
  22246820.161    10164777.34549   7917988.20047  22246819.377    22246826.575
  20621603.065   -18970029.05649 -14770305.41648  20621602.532    20621609.470
  23716610.894    -7673627.09249  -5971183.16645  23716609.854    23716620.921
  21504564.503   -16835292.87849 -13105400.37747  21504563.840    21504571.198
 03  6  9 23 19  0.0000000  0  6G23G30G14G25G20G11
  23635350.946    11165873.15049   8582084.38345  23635350.097    23635360.439
  24343703.318    -4740539.03349  -3684676.01145  24343702.956    24343712.678
  22260259.372    10235400.40249   7973019.10847  22260258.613    22260265.814
  20618294.302   -18987416.61449 -14783854.14648  20618293.762    20618300.721
  23699346.327    -7764351.88249  -6041877.64345  23699345.325    23699356.365
  21503066.100   -16843166.96249 -13111536.04147  21503065.457    21503072.823
 03  6  9 23 19 30.0000000  0  6G23G30G14G25G20G11
  23648478.081    11234856.25349   8635837.32645  23648477.279    23648487.625
  24340775.589    -4755922.74349  -3696663.29945  24340775.272    24340785.129
  22273716.934    10306119.91449   8028125.17147  22273716.137    22273723.358
  20615086.304   -19004274.63449 -14796990.24948  20615085.783    20615092.728
  23682086.837    -7855050.07949  -6112551.39445  23682085.844    23682096.974
  21501674.012   -16850482.45949 -13117236.43847  21501673.381    21501680.712
 03  6  9 23 20  0.0000000  0  6G23G30G14G25G20G11
  23661644.655    11304046.19349   8689751.44145  23661643.875    23661654.116
  24337942.084    -4770813.28749  -3708266.29845  24337941.734    24337951.519
  22287192.544    10376934.50049   8083305.33147  22287191.728    22287198.954
  20611979.064   -19020603.01049 -14809713.64048  20611978.574    20611985.516
  23664832.733    -7945720.47549  -6183203.47245  23664831.738    23664842.836
  21500388.251   -16857239.31849 -13122501.53447  21500387.601    21500394.914
 03  6  9 23 20 30.0000000  0  6G23G30G14G25G20G11
  23674850.524    11373443.18249   8743826.89745  23674849.722    23674859.988
  24335202.390    -4785208.56949  -3719483.40845  24335202.260    24335211.904
  22300686.038    10447843.29349   8138558.88947  22300685.237    22300692.505
  20608972.688   -19036401.41349 -14822024.06848  20608972.175    20608979.153
  23647584.288    -8036361.30749  -6253832.52745  23647583.259    23647594.251
  21499208.821   -16863437.10349 -13127330.98747  21499208.188    21499215.466
 03  6  9 23 21  0.0000000  0  6G23G30G14G25G20G11
  23688095.737    11443046.38949   8798063.04345  23688094.863    23688105.203
  24332557.651    -4799108.23849  -3730314.32545  24332557.422    24332567.026
  22314197.223    10518844.73549   8193884.64246  22314196.433    22314203.631
  20606067.034   -19051670.82849 -14833922.29248  20606066.527    20606073.475
  23630341.531    -8126972.15349  -6324438.20145  23630340.356    23630351.382
  21498135.752   -16869076.59249 -13131725.40947  21498135.101    21498142.334
 03  6  9 23 21 30.0000000  0  6G23G30G14G25G20G11
  23701380.387    11512856.54449   8852460.41545  23701379.436    23701389.717
  24330007.163    -4812510.05649  -3740757.30545  24330007.016    24330016.765
  22327725.970    10589938.42449   8249282.27946  22327725.187    22327732.341
  20603262.201   -19066410.21949 -14845407.51548  20603261.709    20603268.644
  23613104.742    -8217550.98049  -6395018.94745  23613103.688    23613114.599
  21497168.999   -16874157.05349 -13135684.22447  21497168.360    21497175.563
 03  6  9 23 22  0.0000000  0  6G23G30G14G25G20G11
  23714704.126    11582873.47749   8907018.93545  23714703.143    23714713.688
  24327552.014    -4825412.90849  -3750811.48145  24327551.846    24327561.598
  22341272.017    10661123.03349   8304750.76246  22341271.200    22341278.352
  20600558.221   -19080619.71149 -14856479.83048  20600557.711    20600564.644
  23595874.298    -8308096.41949  -6465573.67545  23595873.247    23595884.148
  21496308.602   -16878678.46349 -13139207.41847  21496307.936    21496315.149
 03  6  9 23 22 30.0000000  0  6G23G30G14G25G20G11
  23728067.239    11653097.02849   8961738.46545  23728066.341    23728076.956
  24325191.808    -4837815.47849  -3760475.84845  24325191.670    24325201.513
  22354835.175    10732397.62449   8360289.35646  22354834.330    22354841.516
  20597955.099   -19094299.28149 -14867139.21548  20597954.583    20597961.515
  23578650.529    -8398607.12949  -6536101.32545  23578649.461    23578660.397
  21495554.687   -16882640.49449 -13142294.73247  21495554.028    21495561.223
 03  6  9 23 23  0.0000000  0  6G23G30G14G25G20G11
  23741469.634    11723526.82249   9016618.69045  23741468.753    23741479.340
  24322927.373    -4849716.57449  -3769749.43445  24322927.138    24322936.608
  22368415.131    10803760.88649   8415897.04346  22368414.319    22368421.533
  20595452.742   -19107449.22049 -14877385.90448  20595452.245    20595459.147
  23561433.603    -8489082.13049  -6606601.16445  23561432.450    23561443.451
  21494907.120   -16886043.57149 -13144946.50047  21494906.476    21494913.667
 03  6  9 23 23 30.0000000  0  6G23G30G14G25G20G11
  23754911.346    11794162.40549   9071659.26745  23754910.387    23754920.916
  24320758.079    -4861115.38049  -3778631.65345  24320758.049    24320767.648
  22382011.744    10875211.49149   8471572.79546  22382010.946    22382018.170
  20593051.127   -19120069.82649 -14887220.12948  20593050.618    20593057.484
  23544223.608    -8579520.60849  -6677072.54945  23544222.493    23544233.430
  21494365.822   -16888888.18349 -13147163.10547  21494365.151    21494372.342
 03  6  9 23 24  0.0000000  0  6G23G30G14G25G20G11
  23768392.175    11865004.53049   9126860.80045  23768391.314    23768401.812
  24318685.252    -4872010.05349  -3787121.00045  24318685.075    24318694.547
  22395624.986    10946749.35549   8527316.53546  22395624.172    22395631.386
  20590750.341   -19132160.53449 -14896641.44748  20590749.821    20590756.676
  23527021.062    -8669920.17949  -6747513.63045  23527020.013    23527030.747
  21493930.938   -16891173.50649 -13148943.90047  21493930.282    21493937.471
 03  6  9 23 24 30.0000000  0  6G23G30G14G25G20G11
  23781912.246    11936052.15449   9182222.44545  23781911.335    23781921.860
  24316708.043    -4882399.67049  -3795216.83745  24316707.883    24316717.454
  22409254.496    11018372.61349   8583126.81146  22409253.676    22409260.866
  20588550.212   -19143722.23449 -14905650.55148  20588549.704    20588556.529
  23509826.146    -8760279.99749  -6817923.71845  23509825.077    23509835.613
  21493602.392   -16892900.10449 -13150289.32647  21493601.749    21493608.964
 03  6  9 23 25  0.0000000  0  6G23G30G14G25G20G11
  23795471.430    12007305.54549   9237744.41945  23795470.529    23795481.105
  24314827.494    -4892282.93449  -3802918.10445  24314827.226    24314836.701
  22422900.123    11090080.70049   8639003.20546  22422899.290    22422906.454
  20586450.751   -19154754.73849 -14914247.29248  20586450.257    20586457.087
  23492639.109    -8850598.59449  -6888301.70045  23492637.975    23492648.404
  21493380.082   -16894068.27849 -13151199.61647  21493379.433    21493386.647
 03  6  9 23 25 30.0000000  0  6G23G30G14G25G20G11
  23809069.765    12078764.72149   9293426.76245  23809068.835    23809079.425
  24313043.285    -4901658.62649  -3810223.86745  24313042.951    24313052.519
  22436561.686    11161872.41949   8694944.76646  22436560.872    22436568.012
  20584452.055   -19165258.06349 -14922431.68648  20584451.541    20584458.347
  23475460.057    -8940874.45249  -6958646.37045  23475458.928    23475469.320
  21493264.122   -16894677.65549 -13151674.48147  21493263.483    21493270.705
 03  6  9 23 26  0.0000000  0  6G23G30G14G25G20G11
  23822707.212    12150429.55749   9349269.34745  23822706.193    23822716.919
  24311355.926    -4910525.61949  -3817133.22145  24311355.600    24311365.169
  22450238.947    11233746.86749   8750950.76146  22450238.133    22450245.352
  20582553.992   -19175232.29649 -14930203.80748  20582553.485    20582560.316
  23458289.334    -9031106.25949  -7028956.73645  23458288.226    23458298.704
  21493254.476   -16894728.50849 -13151714.13747  21493253.820    21493261.044
 03  6  9 23 26 30.0000000  0  7G23G30G14G25G 1G20G11
  23836381.854    12222289.79149   9405264.20445  23836380.846    23836391.640
  24309763.502    -4918892.85249  -3823653.19145  24309763.420    24309772.918
  22463929.915    11305693.14849   8807012.75546  22463929.105    22463936.351
  20580754.735   -19184687.37849 -14937571.38748  20580754.220    20580761.049
  24635678.924    -4454964.63249  -2849556.33045  24635678.196    24635697.398
  23441125.348    -9121302.74849  -7099239.55845  23441124.238    23441134.771
  21493349.148   -16894231.19849 -13151326.65447  21493348.494    21493355.722
 03  6  9 23 27  0.0000000  0  7G23G30G14G25G 1G20G11
  23850094.660    12294350.30949   9461415.10245  23850093.693    23850104.479
  24308267.766    -4926754.12249  -3829778.89745  24308267.507    24308277.099
  22477635.286    11377715.13349   8863133.72746  22477634.478    22477641.759
  20579055.060   -19193619.06249 -14944531.13148  20579054.567    20579061.387
  24620741.669    -4533458.76649  -2910720.26545  24620740.876    24620760.143
  23423969.384    -9211457.39149  -7169489.79045  23423968.204    23423978.752
  21493549.041   -16893180.76849 -13150508.17147  21493548.396    21493555.642
 03  6  9 23 27 30.0000000  0  7G23G30G14G25G 1G20G11
  23863847.653    12366622.52749   9517730.97045  23863846.802    23863857.524
  24306870.351    -4934096.80349  -3835500.52745  24306870.303    24306879.991
  22491357.147    11449823.67149   8919322.14746  22491356.328    22491363.588
  20577457.179   -19202015.87449 -14951074.08748  20577456.693    20577463.516
  24605829.484    -4611822.16849  -2971782.32345  24605828.690    24605847.767
  23406823.844    -9301557.15349  -7239697.24445  23406822.724    23406833.223
  21493856.393   -16891565.73749 -13149249.73747  21493855.743    21493863.003
 03  6  9 23 28  0.0000000  0  7G23G30G14G25G 1G20G11
  23877640.407    12439103.40349   9574209.43245  23877639.534    23877650.305
  24305571.764    -4940922.70149  -3840819.40745  24305571.504    24305581.206
  22505094.657    11522014.74249   8975574.87546  22505093.858    22505101.080
  20575960.522   -19209880.90749 -14957202.67048  20575960.009    20575966.865
  24590941.421    -4690057.70649  -3032744.75045  24590940.716    24590959.661
  23389688.540    -9391603.29149  -7309862.91745  23389687.397    23389697.823
  21494270.502   -16889389.64849 -13147554.11847  21494269.857    21494277.125
 03  6  9 23 28 30.0000000  0  7G23G30G14G25G 1G20G11
  23891472.427    12511791.02149   9630848.99545  23891471.608    23891482.551
  24304370.916    -4947232.22949  -3845735.99745  24304370.684    24304380.663
  22518847.463    11594285.98249   9031890.07646  22518846.637    22518853.888
  20574564.706   -19217215.96249 -14962918.27948  20574564.196    20574571.034
  24576077.591    -4768166.73149  -3093608.61245  24576076.777    24576095.664
  23372563.396    -9481596.18149  -7379987.09046  23372562.232    23372572.653
  21494791.097   -16886654.01949 -13145422.49647  21494790.446    21494797.735
 03  6  9 23 29  0.0000000  0  7G23G30G14G25G 1G20G11
  23905343.710    12584683.78049   9687648.40745  23905342.825    23905353.675
  24303268.621    -4953025.88349  -3850250.54345  24303268.358    24303278.016
  22532615.047    11666634.76949   9088265.69846  22532614.206    22532621.453
  20573269.443   -19224022.35849 -14968221.94548  20573268.942    20573275.810
  24561237.516    -4846150.35749  -3154374.76745  24561236.780    24561255.602
  23355448.333    -9571535.67649  -7450069.66846  23355447.241    23355457.571
  21495417.859   -16883360.56649 -13142856.19647  21495417.212    21495424.523
 03  6  9 23 29 30.0000000  0  7G23G30G14G25G 1G20G11
  23919253.757    12657781.61449   9744607.62045  23919252.926    23919263.794
  24302264.477    -4958302.49349  -3854362.21545  24302264.282    24302273.739
  22546397.257    11739060.38149   9144701.18846  22546396.394    22546403.628
  20572074.749   -19230300.58849 -14973114.05448  20572074.239    20572081.094
  24546421.441    -4924008.51149  -3215043.12445  24546420.558    24546439.322
  23338343.732    -9661420.30649  -7520109.48746  23338342.642    23338352.886
  21496150.717   -16879509.38849 -13139855.31047  21496150.085    21496157.427
 03  6  9 23 30  0.0000000  0  7G23G30G14G25G 1G20G11
  23933202.780    12731083.59149   9801725.90745  23933201.999    23933212.864
  24301359.008    -4963061.98749  -3858070.93845  24301358.620    24301368.030
  22560193.717    11811561.02849   9201195.13246  22560192.863    22560200.124
  20570980.382   -19236051.49749 -14977595.25948  20570979.857    20570986.721
  24531628.958    -5001741.91649  -3275614.30745  24531628.088    24531646.880
  23321249.733    -9751249.36249  -7590106.01546  23321248.606    23321258.866
  21496989.523   -16875101.72549 -13136420.80647  21496988.874    21496996.218
 03  6  9 23 30 30.0000000  0  7G23G30G14G25G 1G20G11
  23947190.588    12804589.79749   9859003.32145  23947189.865    23947200.753
  24300551.700    -4967303.09949  -3861375.75745  24300551.318    24300560.749
  22574004.335    11884136.38249   9257747.29146  22574003.503    22574010.849
  20569986.263   -19241275.50449 -14981665.89348  20569985.765    20569992.619
  24516860.395    -5079350.12549  -3336087.95645  24516859.592    24516878.162
  23304166.659    -9841020.92149  -7660057.71146  23304165.532    23304175.805
  21497934.177   -16870137.57649 -13132552.67047  21497933.520    21497940.874
 03  6  9 23 31  0.0000000  0  7G23G30G14G25G 1G20G11
  23961217.325    12878300.08349   9916439.76745  23961216.604    23961227.493
  24299843.527    -4971024.77849  -3864275.79545  24299843.159    24299852.358
  22587829.029    11956785.49149   9314356.93646  22587828.212    22587835.609
  20569092.431   -19245972.55849 -14985325.91248  20569091.904    20569098.769
  24502115.506    -5156832.71449  -3396463.70445  24502114.890    24502133.365
  23287094.779    -9930733.47949  -7729963.44146  23287093.691    23287103.923
  21498984.656   -16864617.42649 -13128251.28547  21498983.993    21498991.411
 03  6  9 23 31 30.0000000  0  7G23G30G14G25G 1G20G11
  23975282.753    12952213.37949   9974034.39145  23975281.987    23975292.939
  24299233.755    -4974226.89649  -3866770.99345  24299233.281    24299242.953
  22601667.424    12029506.62249   9371022.70446  22601666.602    22601674.039
  20568298.552   -19250144.23649 -14988576.54548  20568298.054    20568304.906
  24487394.634    -5234190.60149  -3456742.26745  24487393.931    24487412.447
  23270034.315   -10020386.45449  -7799822.74146  23270033.211    23270043.415
  21500140.732   -16858542.41649 -13123517.54247  21500140.062    21500147.448
 03  6  9 23 32  0.0000000  0  7G23G30G14G25G 1G20G11
  23989386.745    13026330.20749  10031787.61845  23989386.063    23989397.151
  24298723.563    -4976907.77749  -3868859.97345  24298723.244    24298732.988
  22615519.577    12102299.71049   9427744.54546  22615518.742    22615526.172
  20567604.761   -19253790.00349 -14991417.37648  20567604.234    20567611.116
  24472697.411    -5311422.81049  -3516922.92945  24472696.855    24472715.313
  23252985.602   -10109977.43149  -7869633.72846  23252984.485    23252994.642
  21501402.434   -16851912.14849 -13118351.13047  21501401.779    21501409.202
 03  6  9 23 32 30.0000000  0  7G23G30G14G25G 1G20G11
  24003529.466    13100649.61349  10089698.67745  24003528.693    24003539.861
  24298312.594    -4979067.37549  -3870542.80145  24298312.307    24298322.233
  22629385.067    12175163.04449   9484521.11346  22629384.203    22629391.624
  20567010.808   -19256911.23249 -14993849.47948  20567010.295    20567017.134
  24458024.416    -5388529.99749  -3577006.18045  24458023.583    24458042.049
  23235948.742   -10199505.62849  -7939395.80246  23235947.678    23235957.800
  21502769.582   -16844727.83049 -13112752.99047  21502768.923    21502776.341
 03  6  9 23 33  0.0000000  0  7G23G30G14G25G 1G20G11
  24017710.391    13175171.27949  10147767.34045  24017709.726    24017720.946
  24298001.297    -4980704.80249  -3871818.71345  24298001.083    24298010.991
  22643263.769    12248096.01949   9541351.94146  22643262.895    22643270.409
  20566516.622   -19259508.08149 -14995872.97548  20566516.107    20566522.931
  24443374.911    -5465511.92049  -3636991.83645  24443374.155    24443392.577
  23218924.088   -10288969.63649  -8009107.85246  23218923.075    23218933.177
  21504242.049   -16836990.05549 -13106723.58947  21504241.403    21504248.829
 03  6  9 23 33 30.0000000  0  7G23G30G14G25G 1G20G11
  24031930.139    13249895.19949  10205993.57545  24031929.421    24031940.629
  24297789.276    -4981819.05249  -3872686.98645  24297788.871    24297799.145
  22657155.524    12321097.77349   9598236.37546  22657154.728    22657162.236
  20566122.206   -19261580.79949 -14997488.05548  20566121.680    20566128.482
  24428749.574    -5542368.19949  -3696879.56145  24428748.649    24428767.081
  23201912.097   -10378367.63449  -8078768.47446  23201911.112    23201921.153
  21505819.834   -16828698.78149 -13100262.88447  21505819.181    21505826.607
 03  6  9 23 34  0.0000000  0  7G23G30G14G25G 1G20G11
  24046187.982    13324820.98349  10264377.13045  24046187.360    24046198.673
  24297676.797    -4982409.43549  -3873147.04445  24297676.548    24297686.692
  22671060.192    12394167.12549   9655173.48546  22671059.382    22671066.906
  20565827.355   -19263130.21349 -14998695.36848  20565826.834    20565833.640
  24414148.065    -5619098.79949  -3756669.35245  24414147.078    24414165.520
  23184912.922   -10467698.15349  -8148376.52746  23184911.950    23184921.933
  21507502.794   -16819855.03449 -13093371.68347  21507502.146    21507509.561
 03  6  9 23 34 30.0000000  0  7G23G30G14G25G 1G20G11
  24060484.608    13399948.38149  10322917.76145  24060483.843    24060495.171
  24297664.371    -4982475.02649  -3873198.17445  24297664.047    24297674.042
  22684977.690    12467303.65149   9712162.93946  22684976.857    22684984.351
  20565632.015   -19264156.38549 -14999494.96548  20565631.520    20565638.308
  24399570.245    -5695703.73749  -3816361.24645  24399569.331    24399587.665
  23167926.942   -10556959.58149  -8217930.73946  23167925.989    23167935.859
  21509290.900   -16810458.60149 -13086049.81847  21509290.228    21509297.647
 03  6  9 23 35  0.0000000  0  7G23G30G14G25G 1G20G11
  24074819.217    13475277.17449  10381615.34645  24074818.470    24074829.863
  24297751.733    -4982015.16349  -3872839.83745  24297751.626    24297761.457
  22698907.816    12540506.42849   9769204.02446  22698906.954    22698914.390
  20565536.218   -19264659.84849 -14999887.25448  20565535.696    20565542.505
  24385016.686    -5772182.75649  -3875955.01845  24385015.765    24385033.886
  23150954.473   -10646150.25649  -8287429.81146  23150953.488    23150963.284
  21511183.935   -16800510.70449 -13078298.23547  21511183.288    21511190.684
 03  6  9 23 35 30.0000000  0  7G23G30G14G25G 1G20G11
  24089192.420    13550806.59649  10440469.23745  24089191.429    24089202.840
  24297939.460    -4981029.55649  -3872071.84845  24297939.247    24297948.905
  22712850.230    12613774.06949   9826295.64346  22712849.392    22712856.773
  20565539.583   -19264641.93549 -14999873.28048  20565539.074    20565545.878
  24370486.975    -5848536.39749  -3935451.11345  24370486.004    24370504.032
  23133995.678   -10735269.06749  -8356872.91046  23133994.630    23134004.356
  21513181.757   -16790012.20249 -13070117.61347  21513181.095    21513188.526
 03  6  9 23 36  0.0000000  0  7G23G30G14G25G 1G20G11
  24103603.385    13626537.04649  10499479.80745  24103602.603    24103613.990
  24298227.352    -4979516.98749  -3870893.23845  24298227.267    24298237.004
  22726805.040    12687106.53349   9883437.77346  22726804.200    22726811.536
  20565642.217   -19264102.74949 -14999453.11948  20565641.693    20565648.489
  24355981.135    -5924763.81649  -3994848.83445  24355980.286    24355998.274
  23117050.957   -10824313.98949  -8426258.43446  23117049.859    23117059.541
  21515284.334   -16778963.04149 -13061507.90547  21515283.669    21515291.118
 03  6  9 23 36 30.0000000  0  7G23G30G14G25G 1G20G11
  24118052.806    13702467.87049  10558646.49245  24118051.880    24118063.254
  24298615.896    -4977476.90149  -3869303.55945  24298615.569    24298625.312
  22740771.937    12760502.55049   9940629.42946  22740771.072    22740778.397
  20565843.872   -19263042.98549 -14998627.31448  20565843.343    20565850.120
  24341499.474    -6000865.23349  -4054148.36945  24341498.572    24341516.428
  23100120.482   -10913283.61449  -8495585.28446  23100119.360    23100129.042
  21517491.538   -16767364.16349 -13052469.84347  21517490.881    21517498.360
 03  6  9 23 37  0.0000000  0  7G23G30G14G25G 1G20G11
  24132540.051    13778598.35649  10617968.77345  24132539.050    24132550.617
  24299104.531    -4974908.90349  -3867302.54045  24299104.260    24299114.105
  22754750.755    12833961.38049   9997870.03146  22754749.894    22754757.144
  20566144.478   -19261463.13349 -14997396.24348  20566143.965    20566150.737
  24327041.511    -6076840.81749  -4113349.84945  24327040.730    24327058.436
  23083204.556   -11002176.57849  -8564852.39946  23083203.451    23083213.135
  21519803.207   -16755216.54849 -13043004.19847  21519802.541    21519810.036
 03  6  9 23 37 30.0000000  0  7G23G30G14G25G 1G20G11
  24147065.534    13854928.70549  10677446.76545  24147064.495    24147075.944
  24299693.827    -4971811.96049  -3864889.33045  24299693.722    24299703.788
  22768741.448    12907482.49049  10055159.15146  22768740.569    22768747.823
  20566543.997   -19259363.58149 -14995760.21148  20566543.488    20566550.241
  24312607.725    -6152690.03349  -4172452.87945  24312606.833    24312624.586
  23066303.583   -11090990.83449  -8634058.17346  23066302.522    23066312.209
  21522219.241   -16742520.31249 -13033111.05547  21522218.568    21522226.100
 03  6  9 23 38  0.0000000  0  7G23G30G14G25G 1G20G11
  24161628.659    13931458.75049  10737080.40345  24161627.722    24161639.283
  24300383.574    -4968185.18549  -3862063.29945  24300383.634    24300394.078
  22782743.753    12981065.12449  10112496.21846  22782742.875    22782750.207
  20567042.395   -19256744.60249 -14993719.42548  20567041.893    20567048.632
  24298197.843    -6228412.52149  -4231457.14945  24298196.939    24298214.889
  23049417.999   -11179724.57049  -8703201.21346  23049416.931    23049426.675
  21524739.588   -16729275.96549 -13022790.80647  21524738.893    21524746.433
 03  6  9 23 38 30.0000000  0  7G23G30G14G25G 1G20G11
  24176230.037    14008188.07149  10796869.28545  24176229.025    24176240.621
  24301175.041    -4964028.43349  -3858824.28045  24301174.957    24301184.967
  22796757.563    13054708.51249  10169880.61446  22796756.714    22796764.182
  20567639.367   -19253607.26149 -14991274.72548  20567638.870    20567645.621
  24283812.310    -6304008.44349  -4290362.78445  24283811.338    24283829.043
  23032548.077   -11268376.20449  -8772280.27646  23032547.050    23032556.780
  21527363.990   -16715484.53249 -13012044.26147  21527363.307    21527370.860
 03  6  9 23 39  0.0000000  0  7G23G30G14G25G 1G20G11
  24190868.832    14085115.51249  10856812.57245  24190868.020    24190879.580
  24302066.963    -4959341.58149  -3855172.23545  24302066.858    24302076.614
  22810782.676    13128411.14249  10227311.18646  22810781.864    22810789.333
  20568334.738   -19249952.94249 -14988427.18448  20568334.219    20568340.986
  24269450.658    -6379478.48549  -4349170.33945  24269449.660    24269467.233
  23015693.939   -11356944.86749  -8841294.68046  23015692.928    23015702.620
  21530092.340   -16701147.18449 -13000872.32147  21530091.678    21530099.215
 03  6  9 23 39 30.0000000  0  7G23G30G14G25G 1G20G11
  24205545.565    14162241.17149  10916910.29945  24205544.670    24205556.372
  24303060.316    -4954123.83149  -3851106.43945  24303060.251    24303069.466
  22824819.093    13202172.57749  10284787.57746  22824818.287    22824825.701
  20569128.456   -19245781.58149 -14985176.75548  20569127.959    20569134.744
  24255113.042    -6454822.12049  -4407879.38745  24255112.075    24255129.615
  22998856.051   -11445428.34349  -8910242.71346  22998855.024    22998864.616
  21532924.412   -16686264.61349 -12989275.53947  21532923.757    21532931.287
 03  6  9 23 40  0.0000000  0  7G23G30G14G25G 1G20G11
  24220259.744    14239564.73449  10977162.23745  24220258.894    24220270.797
  24304154.334    -4948374.24249  -3846626.25145  24304154.224    24304163.576
  22838866.586    13275992.47749  10342309.52846  22838865.752    22838873.165
  20570020.496   -19241093.89049 -14981523.99548  20570019.992    20570026.763
  24240799.531    -6530039.13049  -4466489.76745  24240798.584    24240815.952
  22982034.662   -11533825.07749  -8979123.15746  22982033.589    22982043.138
  21535860.160   -16670837.23249 -12977254.22747  21535859.505    21535867.052
 03  6  9 23 40 30.0000000  0  7G23G30G14G25G 1G20G11
  24235011.787    14317085.85249  11037568.12145  24235010.881    24235022.656
  24305349.606    -4942092.57949  -3841731.41845  24305349.697    24305359.183
  22852924.985    13349869.69149  10399876.14246  22852924.150    22852931.635
  20571010.600   -19235890.85349 -14977469.66548  20571010.086    20571016.853
  24226510.027    -6605129.58949  -4525001.54745  24226509.117    24226526.362
  22965230.090   -11622133.35249  -9047934.66846  22965229.024    22965238.478
  21538899.372   -16654866.04349 -12964809.16747  21538898.711    21538906.254
 03  6  9 23 41  0.0000000  0  7G23G30G14G25G 1G20G11
  24249801.189    14394804.56049  11098128.00945  24249800.392    24249812.171
  24306646.291    -4935278.27849  -3836421.58645  24306646.190    24306656.249
  22866994.261    13423803.88649  10457487.16346  22866993.399    22867000.912
  20572098.636   -19230173.02049 -14973014.19248  20572098.123    20572104.883
  24212244.819    -6680093.02549  -4583414.34945  24212244.002    24212261.076
  22948442.720   -11710351.15749  -9116675.69346  22948441.665    22948451.094
  21542042.005   -16638351.47949 -12951940.69747  21542041.355    21542048.867
 03  6  9 23 41 30.0000000  0  7G23G30G14G25G 1G20G11
  24264628.221    14472719.92849  11158841.09145  24264627.328    24264639.072
  24308044.431    -4927931.18049  -3830696.60145  24308044.410    24308054.449
  22881074.097    13497793.80949  10515141.61746  22881073.263    22881080.765
  20573284.415   -19223941.57849 -14968158.50848  20573283.902    20573290.691
  24198003.522    -6754930.00849  -4641728.60545  24198002.802    24198019.616
  22931672.724   -11798477.35149  -9185345.31946  22931671.645    22931681.133
  21545287.800   -16621294.95249 -12938649.91947  21545287.148    21545294.651
 03  6  9 23 42  0.0000000  0  7G23G30G14G25G 1G20G11
  24279492.525    14550831.36049  11219706.97745  24279491.527    24279503.417
  24309544.230    -4920051.03049  -3824556.25045  24309543.983    24309553.589
  22895164.344    13571838.70649  10572838.89146  22895163.528    22895171.052
  20574567.788   -19217197.47149 -14962903.34648  20574567.283    20574574.064
  24183786.301    -6829640.60649  -4699944.37545  24183785.713    24183802.360
  22914920.477   -11886510.35849  -9253942.34446  22914919.391    22914928.864
  21548636.505   -16603697.66649 -12924937.77347  21548635.830    21548643.346
 03  6  9 23 42 30.0000000  0  7G23G30G14G25G 1G20G11
  24294394.115    14629138.38449  11280725.28045  24294392.952    24294404.848
  24311145.139    -4911637.30349  -3818000.12345  24311145.003    24311154.525
  22909265.002    13645937.97749  10630578.54546  22909264.186    22909271.712
  20575948.585   -19209941.26849 -14957249.14448  20575948.087    20575954.855
  24169593.250    -6904224.53249  -4758061.42945  24169592.549    24169609.280
  22898186.358   -11974448.38349  -9322465.35746  22898185.267    22898194.685
  21552087.937   -16585560.27049 -12910804.76347  21552087.280    21552094.809
 03  6  9 23 43  0.0000000  0  7G23G30G14G25G 1G20G11
  24309332.568    14707641.07149  11341896.06545  24309331.699    24309343.674
  24312848.036    -4902689.19449  -3811027.51745  24312847.726    24312857.399
  22923375.937    13720091.31449  10688360.32346  22923375.118    22923382.648
  20577426.802   -19202173.30249 -14951196.17048  20577426.284    20577433.028
  24155424.489    -6978681.20349  -4816079.30245  24155423.739    24155440.301
  22881470.687   -12062289.10549  -9390912.54446  22881469.608    22881479.057
  21555642.102   -16566883.22449 -12896251.25147  21555641.440    21555648.940
 03  6  9 23 43 30.0000000  0  7G23G30G14G25G 1G20G11
  24324308.343    14786338.25049  11403218.36745  24324307.452    24324319.414
  24314652.064    -4893206.99849  -3803638.78445  24314651.816    24314662.072
  22937496.820    13794297.34149  10746183.17646  22937496.032    22937503.626
  20579002.047   -19193895.24249 -14944745.71648  20579001.534    20579008.286
  24141279.815    -7053011.52849  -4873998.73945  24141278.841    24141295.454
  22864773.693   -12150031.81149  -9459283.35146  22864772.657    22864782.019
  21559298.604   -16547668.21149 -12881278.53747  21559297.969    21559305.460
 03  6  9 23 44  0.0000000  0  7G23G30G14G25G 1G20G11
  24339321.191    14865230.69149  11464692.82445  24339320.239    24339332.385
  24316558.578    -4883189.57049  -3795832.95045  24316558.357    24316568.584
  22951627.863    13868556.12949  10804047.12546  22951627.079    22951634.684
  20580674.380   -19185107.07749 -14937897.78348  20580673.866    20580680.609
  24127159.049    -7127214.66249  -4931819.05945  24127158.217    24127174.942
  22848095.902   -12237673.67149  -9527575.59346  22848094.863    22848104.161
  21563057.494   -16527915.27549 -12865886.66947  21563056.826    21563064.349
 03  6  9 23 44 30.0000000  0  7G23G30G14G25G 1G20G11
  24354370.989    14944316.66149  11526318.05345  24354369.871    24354382.108
  24318566.298    -4872637.67749  -3787610.73145  24318566.057    24318576.229
  22965768.715    13942866.04549  10861950.90846  22965767.870    22965775.457
  20582443.443   -19175810.47249 -14930653.65548  20582442.931    20582449.670
  24113062.492    -7201291.45749  -4989540.93145  24113061.605    24113078.282
  22831437.431   -12325214.01349  -9595788.71546  22831436.396    22831445.636
  21566918.319   -16507626.50449 -12850077.27047  21566917.693    21566925.209
 03  6  9 23 45  0.0000000  0  7G23G30G14G25G 1G20G11
  24369457.386    15023596.45749  11588094.31345  24369456.386    24369468.598
  24320675.875    -4861550.50749  -3778971.35045  24320675.637    24320685.509
  22979919.178    14017227.23349  10919894.65746  22979918.294    22979926.073
  20584309.181   -19166005.99949 -14923013.79048  20584308.660    20584315.386
  24098990.099    -7275241.25249  -5047163.85845  24098989.158    24099005.780
  22814798.737   -12412650.41849  -9663920.85746  22814797.695    22814806.915
  21570881.100   -16486802.10449 -12833850.49447  21570880.440    21570888.023
 03  6  9 23 45 30.0000000  0  7G23G30G14G25G 1G20G11
  24384580.921    15103069.65349  11650021.25845  24384579.826    24384591.993
  24322887.271    -4849927.52049  -3769914.48345  24322887.126    24322897.345
  22994079.158    14091638.85149  10977877.69446  22994078.311    22994086.129
  20586271.429   -19155694.20349 -14914978.61248  20586270.911    20586277.625
  24084941.766    -7349063.91749  -5104687.71045  24084940.943    24084957.612
  22798180.139   -12499981.04249  -9731970.58946  22798179.089    22798188.308
  21574945.634   -16465442.90349 -12817206.99947  21574944.996    21574952.579
 03  6  9 23 46  0.0000000  0  7G23G30G14G25G 1G20G11
  24399740.771    15182735.35749  11712098.22045  24399739.891    24399752.092
  24325200.974    -4837768.85049  -3760440.19645  24325200.992    24325211.138
  23008248.674    14166100.01149  11035899.33046  23008247.832    23008255.553
  20588329.974   -19144876.49349 -14906549.21448  20588329.466    20588336.170
  24070917.617    -7422759.84149  -5162112.80045  24070916.841    24070933.464
  22781581.985   -12587204.47349  -9799936.77846  22781580.870    22781590.121
  21579111.544   -16443550.75649 -12800148.21047  21579110.912    21579118.566
 03  6  9 23 46 30.0000000  0  7G23G30G14G25G 1G20G11
  24414937.528    15262592.66449  11774324.47745  24414936.491    24414948.594
  24327617.164    -4825074.78549  -3750548.69145  24327616.911    24327626.912
  23022427.373    14240609.54349  11093958.65646  23022426.516    23022434.223
  20590484.502   -19133554.29249 -14897726.70548  20590483.985    20590490.680
  24056917.610    -7496329.45149  -5219439.46045  24056916.823    24056933.356
  22765004.391   -12674319.61949  -9867818.60246  22765003.287    22765012.520
  21583378.643   -16421127.13849 -12782675.29347  21583378.008    21583385.639
 03  6  9 23 47  0.0000000  0  7G23G30G14G25G 1G20G11
  24430170.299    15342641.91549  11836700.31345  24430169.445    24430181.786
  24330134.729    -4811844.40549  -3740239.30945  24330134.498    24330144.888
  23036615.355    14315167.64049  11152055.84346  23036614.503    23036622.213
  20592734.905   -19121728.15749 -14888511.52748  20592734.417    20592741.112
  24042941.703    -7569772.02349  -5276667.13745  24042940.889    24042957.410
  22748447.952   -12761323.62649  -9935613.82546  22748446.918    22748456.110
  21587746.871   -16398172.11349 -12764788.29547  21587746.234    21587753.878
 03  6  9 23 47 30.0000000  0  7G23G30G14G25G 1G20G11
  24445439.864    15422882.11349  11899224.91945  24445438.945    24445451.231
  24332754.193    -4798078.08249  -3729512.25845  24332754.055    24332764.273
  23050812.419    14389773.18549  11210189.99746  23050811.585    23050819.281
  20595081.030   -19109399.12349 -14878904.47648  20595080.532    20595087.216
  24028990.016    -7643087.95949  -5333796.12145  24028989.127    24029005.579
  22731912.909   -12848215.23749 -10003321.46846  22731911.875    22731921.037
  21592215.874   -16374687.58549 -12746488.69347  21592215.220    21592222.834
 03  6  9 23 48  0.0000000  0  7G23G30G14G25G 1G20G11
  24460745.294    15503312.78749  11961897.96745  24460744.549    24460756.746
  24335475.637    -4783775.49949  -3718367.36845  24335475.611    24335485.596
  23065018.241    14464425.42049  11268360.55446  23065017.371    23065025.180
  20597522.705   -19096568.09249 -14868906.25748  20597522.202    20597528.901
  24015062.274    -7716277.18649  -5390826.37745  24015061.370    24015077.860
  22715399.710   -12934992.43549 -10070939.94846  22715398.647    22715407.757
  21596785.403   -16350674.64049 -12727777.33647  21596784.747    21596792.373
 03  6  9 23 48 30.0000000  0  7G23G30G14G25G 1G20G11
  24476087.219    15583933.62049  12024719.15945  24476086.347    24476098.868
  24338299.649    -4768936.53449  -3706804.52045  24338299.575    24338309.380
  23079232.945    14539124.16549  11326567.35146  23079232.120    23079239.893
  20600059.694   -19083236.14449 -14858517.70848  20600059.176    20600065.867
  24001158.857    -7789339.40949  -5447757.67445  24001157.905    24001174.174
  22698908.621   -13021653.46849 -10138467.92146  22698907.553    22698916.605
  21601455.316   -16326134.14649 -12708654.90347  21601454.664    21601462.247
 03  6  9 23 49  0.0000000  0  7G23G30G14G25G 1G20G11
  24491464.906    15664743.58849  12087687.75345  24491464.141    24491476.715
  24341225.581    -4753561.42149  -3694823.90945  24341225.321    24341235.231
  23093456.424    14613868.23449  11384809.45346  23093455.573    23093463.222
  20602691.652   -19069404.85049 -14847740.06348  20602691.144    20602697.863
  23987279.297    -7862275.19049  -5504590.45445  23987278.593    23987294.744
  22682439.877   -13108196.91849 -10205904.26146  22682438.815    22682447.830
  21606225.363   -16301067.53449 -12689122.51047  21606224.722    21606232.316
 03  6  9 23 49 30.0000000  0  7G23G30G14G25G 1G20G11
  24506878.908    15745742.76449  12150803.75845  24506877.871    24506890.426
  24344253.399    -4737649.76249  -3682425.18645  24344253.375    24344263.266
  23107688.394    14688657.32549  11443086.63146  23107687.571    23107695.127
  20605418.637   -19055074.66249 -14836573.66248  20605418.126    20605424.808
  23973423.990    -7935084.26449  -5561324.47945  23973423.285    23973439.226
  22665993.979   -13194620.50049 -10273247.20146  22665992.900    22666001.885
  21611095.338   -16275475.75849 -12669180.89447  21611094.680    21611102.265
 03  6  9 23 50  0.0000000  0  7G23G30G14G25G 1G20G11
  24522328.518    15826930.41849  12214066.66645  24522327.606    24522340.359
  24347383.333    -4721201.56949  -3669608.43445  24347383.307    24347393.403
  23121928.696    14763490.87849  11501398.46746  23121927.902    23121935.501
  20608240.285   -19040246.68449 -14825019.38148  20608239.782    20608246.472
  23959592.681    -8007766.54549  -5617959.70745  23959592.000    23959608.025
  22649571.173   -13280922.48749 -10340495.38446  22649570.129    22649579.005
  21616064.980   -16249360.24549 -12648831.17547  21616064.340    21616071.949
 03  6  9 23 50 30.0000000  0  7G23G30G14G25G 1G20G11
  24537813.927    15908305.84249  12277475.88045  24537813.155    24537825.503
  24350615.624    -4704216.91549  -3656373.62345  24350615.489    24350625.277
  23136177.485    14838368.26149  11559744.44346  23136176.678    23136184.262
  20611156.420   -19024922.19049 -14813078.19848  20611155.884    20611162.582
  23945785.619    -8080322.22849  -5674496.28945  23945784.859    23945800.793
  22633171.908   -13367101.14849 -10407647.48246  22633170.852    22633179.691
  21621134.019   -16222722.30449 -12628074.37147  21621133.371    21621141.018
 03  6  9 23 51  0.0000000  0  7G23G30G14G25G 1G20G11
  24553334.946    15989868.51049  12341030.99245  24553334.261    24553346.468
  24353949.958    -4686695.74649  -3642720.73645  24353949.821    24353959.329
  23150434.409    14913288.76949  11618124.03646  23150433.578    23150441.211
  20614166.858   -19009101.97549 -14800750.74448  20614166.340    20614173.050
  23932002.504    -8152751.32249  -5730934.23445  23932001.760    23932017.684
  22616796.389   -13453154.50649 -10474701.93046  22616795.388    22616804.200
  21626302.237   -16195563.30849 -12606911.55147  21626301.583    21626309.262
 03  6  9 23 51 30.0000000  0  7G23G30G14G25G 1G20G11
  24568891.501    16071617.74549  12404731.45745  24568890.680    24568903.194
  24357386.018    -4668638.46049  -3628650.10045  24357385.853    24357395.665
  23164699.350    14988251.79449  11676536.74646  23164698.552    23164706.165
  20617271.434   -18992787.44549 -14788038.10948  20617270.920    20617277.600
  23918243.637    -8225054.01849  -5787273.68445  23918242.756    23918258.694
  22600445.053   -13539080.98749 -10541657.51846  22600444.018    22600452.862
  21631569.356   -16167884.40649 -12585343.60847  21631568.716    21631576.400
 03  6  9 23 52  0.0000000  0  7G23G30G14G25G 1G20G11
  24584483.462    16153553.53449  12468577.35345  24584482.706    24584495.286
  24360924.159    -4650044.27149  -3614161.09945  24360924.043    24360934.042
  23178972.439    15063257.25649  11734982.52746  23178971.652    23178979.192
  20620469.843   -18975979.50549 -14774940.99948  20620469.336    20620475.993
  23904508.801    -8297229.55349  -5843514.03545  23904507.944    23904523.761
  22584118.323   -13624878.08549 -10608512.28746  22584117.271    22584126.152
  21636935.303   -16139686.42249 -12563371.18647  21636934.662    21636942.377
 03  6  9 23 52 30.0000000  0  6G30G14G25G 1G20G11
  24364564.211    -4630915.93549  -3599255.90445  24364564.094    24364573.878
  23193253.038    15138302.14449  11793459.02246  23193252.196    23193259.814
  20623761.487   -18958681.75249 -14761462.22248  20623760.947    20623767.648
  23890797.763    -8369280.68449  -5899657.45445  23890796.916    23890812.645
  22567816.118   -13710546.33949 -10675266.65946  22567815.057    22567823.922
  21642399.222   -16110973.52649 -12540997.54147  21642398.589    21642406.297
 03  6  9 23 53  0.0000000  0  6G30G14G25G 1G20G11
  24368305.709    -4611253.11749  -3583934.24945  24368305.582    24368315.608
  23207541.123    15213386.34749  11851966.15246  23207540.324    23207547.962
  20627146.225   -18940894.75149 -14747602.20648  20627145.704    20627152.395
  23877110.352    -8441206.91349  -5955703.52445  23877109.642    23877125.137
  22551538.871   -13796083.48849 -10741918.87146  22551537.796    22551546.630
  21647960.971   -16081746.37949 -12518223.17347  21647960.349    21647968.066
 03  6  9 23 53 30.0000000  0  6G30G14G25G 1G20G11
  24372149.950    -4591052.64249  -3568193.60745  24372149.821    24372159.491
  23221837.271    15288512.36549  11910505.87246  23221836.397    23221844.014
  20630624.419   -18922616.46349 -14733359.38048  20630623.906    20630630.639
  23863447.447    -8513004.86449  -6011649.66245  23863446.650    23863462.210
  22535287.477   -13881484.48949 -10808464.99546  22535286.376    22535295.247
  21653621.049   -16052002.96449 -12495046.52347  21653620.381    21653628.076
 03  6  9 23 54  0.0000000  0  6G30G14G25G 1G20G11
  24376095.959    -4570315.41549  -3552034.73545  24376095.790    24376105.403
  23236140.933    15363679.13549  11969077.36146  23236140.075    23236147.779
  20634195.737   -18903849.14249 -14718735.47748  20634195.214    20634201.925
  23849808.749    -8584675.60949  -6067496.66045  23849807.962    23849823.398
  22519062.239   -13966748.04149 -10874904.00946  22519061.179    22519069.993
  21659378.823   -16021745.75449 -12471469.51547  21659378.164    21659385.859
 03  6  9 23 54 30.0000000  0  6G30G14G25G 1G20G11
  24380144.155    -4549041.49449  -3535457.66145  24380144.177    24380153.869
  23250452.378    15438886.20049  12027680.23746  23250451.527    23250459.188
  20637859.953   -18884593.38449 -14703730.98548  20637859.437    20637866.164
  23836194.252    -8656218.94349  -6123244.39645  23836193.448    23836208.900
  22502863.614   -14051872.20049 -10941234.41746  22502862.542    22502871.304
  21665234.165   -15990976.00749 -12447493.12447  21665233.471    21665241.165
 03  6  9 23 55  0.0000000  0  6G30G14G25G 1G20G11
  24384294.617    -4527231.53449  -3518462.86745  24384294.485    24384304.175
  23264771.331    15514132.53449  12086313.72646  23264770.445    23264778.095
  20641616.856   -18864850.84049 -14688347.16648  20641616.316    20641623.028
  23822603.969    -8727635.45949  -6178893.31445  23822603.136    23822618.526
  22486691.826   -14136855.29349 -11007454.89346  22486690.728    22486699.422
  21671186.687   -15959695.43849 -12423118.69347  21671186.010    21671193.701
 03  6  9 23 55 30.0000000  0  7G30G14G16G25G 1G20G11
  24388546.577    -4504886.81849  -3501051.42445  24388546.391    24388556.311
  23279097.404    15589416.57149  12144976.57246  23279096.537    23279104.203
  24669490.974    -4191966.28349  -3257203.24645  24669490.109    24669507.723
  20645465.844   -18844624.27549 -14672586.19348  20645465.332    20645472.033
  23809037.490    -8798926.20349  -6234444.23745  23809036.677    23809051.951
  22470546.968   -14221696.68249 -11073564.95046  22470545.865    22470554.518
  21677235.887   -15927906.76149 -12398348.33047  21677235.212    21677242.916
 03  6  9 23 56  0.0000000  0  7G30G14G16G25G 1G20G11
  24392900.281    -4482008.67849  -3483224.32145  24392900.048    24392909.965
  23293430.413    15664736.75649  12203667.59846  23293429.584    23293437.190
  24652041.860    -4283660.69649  -3328652.89145  24652040.958    24652058.650
  20649406.538   -18823915.85249 -14656449.74848  20649406.014    20649412.692
  23795494.880    -8870092.29549  -6289898.02845  23795493.983    23795509.145
  22454429.185   -14306395.47849 -11139563.89646  22454428.133    22454436.794
  21683381.376   -15895612.32949 -12373183.87447  21683380.688    21683388.371
 03  6  9 23 56 30.0000000  0  7G30G14G16G25G 1G20G11
  24397355.502    -4458595.23349  -3464980.10445  24397355.203    24397365.456
  23307770.629    15740094.78549  12262388.11046  23307769.787    23307777.437
  24634581.093    -4375415.80449  -3400149.85145  24634580.196    24634597.962
  20653439.108   -18802724.42749 -14639936.93248  20653438.592    20653445.244
  23781976.348    -8941131.43949  -6345252.91445  23781975.501    23781990.360
  22438339.316   -14390947.60649 -11205448.54546  22438338.242    22438346.946
  21689623.186   -15862811.52549 -12347624.84247  21689622.517    21689630.169
 03  6  9 23 57  0.0000000  0  7G30G14G16G25G 1G20G11
  24401912.688    -4434646.63149  -3446318.86145  24401912.457    24401922.477
  23322117.838    15815490.16649  12321137.73346  23322117.034    23322124.706
  24617109.240    -4467228.76649  -3471691.90545  24617108.421    24617125.891
  20657563.333   -18781051.37349 -14623048.82448  20657562.807    20657569.513
  23768481.992    -9012043.48949  -6400508.74345  23768481.113    23768495.919
  22422277.851   -14475350.76649 -11271217.12446  22422276.771    22422285.469
  21695961.065   -15829505.81049 -12321672.37047  21695960.389    21695968.066
 03  6  9 23 57 30.0000000  0  7G30G14G16G25G 1G20G11
  24406571.695    -4410163.96649  -3427241.45745  24406571.432    24406581.579
  23336471.964    15890921.70149  12379915.53946  23336471.126    23336478.901
  24599627.005    -4559097.62249  -3543277.50045  24599625.885    24599643.235
  20661778.813   -18758898.71349 -14605786.99348  20661778.289    20661784.994
  23755011.689    -9082829.46749  -6455666.31845  23755010.858    23755025.529
  22406244.936   -14559603.71649 -11336868.65646  22406243.880    22406252.519
  21702394.600   -15795697.54949 -12295328.30847  21702393.915    21702401.618
 03  6  9 23 58  0.0000000  0  7G30G14G16G25G 1G20G11
  24411332.023    -4385147.88349  -3407748.43545  24411331.986    24411342.036
  23350832.927    15966388.58049  12438720.87346  23350832.015    23350839.784
  24582134.381    -4651019.78449  -3614904.63145  24582133.184    24582150.639
  20666085.251   -18736268.14349 -14588152.76448  20666084.747    20666091.443
  23741565.259    -9153489.76149  -6510725.94445  23741564.418    23741579.058
  22390240.823   -14643705.18149 -11402402.15046  22390239.770    22390248.365
  21708923.335   -15761388.66949 -12268594.14947  21708922.685    21708930.434
 03  6  9 23 58 30.0000000  0  7G30G14G16G25G 1G20G11
  24416194.265    -4359597.89949  -3387839.36645  24416194.270    24416203.812
  23365200.646    16041891.30749  12497554.15546  23365199.749    23365207.567
  24564632.023    -4742991.68749  -3686570.53945  24564631.201    24564648.322
  20670482.515   -18713160.25149 -14570146.60248  20670482.003    20670488.703
  23728142.969    -9224023.52949  -6565686.95745  23728142.059    23728156.548
  22374266.123   -14727652.20949 -11467815.31746  22374265.079    22374273.587
  21715547.271   -15726579.87149 -12241470.44447  21715546.610    21715554.364
 03  6  9 23 59  0.0000000  0  7G30G14G16G25G 1G20G11
  24421157.617    -4333515.25649  -3367515.24445  24421157.485    24421167.155
  23379574.769    16117428.16249  12556414.02946  23379573.978    23379581.787
  24547121.020    -4835011.39349  -3758273.66345  24547119.983    24547137.025
  20674970.279   -18689577.02649 -14551770.05048  20674969.766    20674976.431
  23714744.303    -9294431.75649  -6620550.15745  23714743.485    23714757.920
  22358321.051   -14811443.72949 -11533107.30846  22358320.037    22358328.419
  21722265.875   -15691273.46449 -12213958.99247  21722265.229    21722273.017
